<?xml version="1.0" encoding="UTF-8" standalone="no" ?><gpx xmlns="http://www.topografix.com/GPX/1/1" xmlns:gpxx="http://www.garmin.com/xmlschemas/GpxExtensions/v3" xmlns:wptx1="http://www.garmin.com/xmlschemas/WaypointExtension/v1" xmlns:gpxtpx="http://www.garmin.com/xmlschemas/TrackPointExtension/v1" creator="Oregon 450" version="1.1" xmlns:xsi="http://www.w3.org/2001/XMLSchema-instance" xsi:schemaLocation="http://www.topografix.com/GPX/1/1 http://www.topografix.com/GPX/1/1/gpx.xsd http://www.garmin.com/xmlschemas/GpxExtensions/v3 http://www8.garmin.com/xmlschemas/GpxExtensionsv3.xsd http://www.garmin.com/xmlschemas/WaypointExtension/v1 http://www8.garmin.com/xmlschemas/WaypointExtensionv1.xsd http://www.garmin.com/xmlschemas/TrackPointExtension/v1 http://www.garmin.com/xmlschemas/TrackPointExtensionv1.xsd"><metadata><link href="http://www.garmin.com"><text>Garmin International</text></link><time>2013-07-23T15:10:28Z</time></metadata><trk><name>23-ČRC-13 16:55:48</name><extensions><gpxx:TrackExtension><gpxx:DisplayColor>DarkRed</gpxx:DisplayColor></gpxx:TrackExtension></extensions><trkseg><trkpt lat="46.6129795834" lon="12.2926198225"><ele>2315.95</ele><time>2013-07-23T06:43:37Z</time></trkpt><trkpt lat="46.6130183078" lon="12.2925808467"><ele>2311.15</ele><time>2013-07-23T06:43:44Z</time></trkpt><trkpt lat="46.6130257677" lon="12.2925717104"><ele>2315.47</ele><time>2013-07-23T06:43:45Z</time></trkpt><trkpt lat="46.6130989417" lon="12.2924856283"><ele>2315.95</ele><time>2013-07-23T06:43:55Z</time></trkpt><trkpt lat="46.6131462995" lon="12.2924248595"><ele>2315.47</ele><time>2013-07-23T06:44:02Z</time></trkpt><trkpt lat="46.6131686792" lon="12.2923834529"><ele>2315.95</ele><time>2013-07-23T06:44:06Z</time></trkpt><trkpt lat="46.6132061463" lon="12.2923266236"><ele>2315.95</ele><time>2013-07-23T06:44:13Z</time></trkpt><trkpt lat="46.6132279392" lon="12.2922839597"><ele>2315.95</ele><time>2013-07-23T06:44:17Z</time></trkpt><trkpt lat="46.6132994369" lon="12.2921768390"><ele>2316.43</ele><time>2013-07-23T06:44:27Z</time></trkpt><trkpt lat="46.6133529972" lon="12.2921135556"><ele>2316.91</ele><time>2013-07-23T06:44:34Z</time></trkpt><trkpt lat="46.6134042945" lon="12.2920485958"><ele>2316.91</ele><time>2013-07-23T06:44:40Z</time></trkpt><trkpt lat="46.6134764627" lon="12.2919844743"><ele>2316.91</ele><time>2013-07-23T06:44:48Z</time></trkpt><trkpt lat="46.6135308612" lon="12.2919117194"><ele>2317.40</ele><time>2013-07-23T06:44:55Z</time></trkpt><trkpt lat="46.6136221401" lon="12.2918029223"><ele>2317.88</ele><time>2013-07-23T06:45:07Z</time></trkpt><trkpt lat="46.6136461962" lon="12.2917619348"><ele>2318.36</ele><time>2013-07-23T06:45:16Z</time></trkpt><trkpt lat="46.6137176938" lon="12.2916750982"><ele>2317.40</ele><time>2013-07-23T06:45:26Z</time></trkpt><trkpt lat="46.6137556639" lon="12.2916093003"><ele>2318.36</ele><time>2013-07-23T06:45:33Z</time></trkpt><trkpt lat="46.6138420813" lon="12.2914932109"><ele>2319.80</ele><time>2013-07-23T06:45:46Z</time></trkpt><trkpt lat="46.6138570849" lon="12.2914609406"><ele>2319.32</ele><time>2013-07-23T06:45:49Z</time></trkpt><trkpt lat="46.6139328573" lon="12.2914155107"><ele>2321.24</ele><time>2013-07-23T06:45:59Z</time></trkpt><trkpt lat="46.6139626969" lon="12.2913544904"><ele>2322.20</ele><time>2013-07-23T06:46:05Z</time></trkpt><trkpt lat="46.6140305065" lon="12.2912815679"><ele>2323.16</ele><time>2013-07-23T06:46:15Z</time></trkpt><trkpt lat="46.6140753496" lon="12.2912180331"><ele>2325.57</ele><time>2013-07-23T06:46:24Z</time></trkpt><trkpt lat="46.6141558159" lon="12.2911767941"><ele>2326.53</ele><time>2013-07-23T06:46:35Z</time></trkpt><trkpt lat="46.6142306663" lon="12.2910898738"><ele>2327.97</ele><time>2013-07-23T06:46:45Z</time></trkpt><trkpt lat="46.6142765153" lon="12.2910192981"><ele>2329.41</ele><time>2013-07-23T06:46:53Z</time></trkpt><trkpt lat="46.6143053491" lon="12.2908985149"><ele>2330.37</ele><time>2013-07-23T06:47:02Z</time></trkpt><trkpt lat="46.6143122222" lon="12.2908706870"><ele>2330.37</ele><time>2013-07-23T06:47:04Z</time></trkpt><trkpt lat="46.6143635195" lon="12.2907554358"><ele>2331.81</ele><time>2013-07-23T06:47:13Z</time></trkpt><trkpt lat="46.6143944487" lon="12.2906429507"><ele>2332.30</ele><time>2013-07-23T06:47:21Z</time></trkpt><trkpt lat="46.6144059319" lon="12.2905759793"><ele>2332.30</ele><time>2013-07-23T06:47:25Z</time></trkpt><trkpt lat="46.6144589055" lon="12.2903821059"><ele>2331.33</ele><time>2013-07-23T06:47:37Z</time></trkpt><trkpt lat="46.6145440657" lon="12.2902219277"><ele>2330.37</ele><time>2013-07-23T06:47:49Z</time></trkpt><trkpt lat="46.6146043316" lon="12.2901322413"><ele>2328.45</ele><time>2013-07-23T06:47:58Z</time></trkpt><trkpt lat="46.6146570537" lon="12.2900302336"><ele>2327.97</ele><time>2013-07-23T06:48:05Z</time></trkpt><trkpt lat="46.6147209238" lon="12.2899460793"><ele>2327.01</ele><time>2013-07-23T06:48:12Z</time></trkpt><trkpt lat="46.6147372685" lon="12.2898687143"><ele>2327.01</ele><time>2013-07-23T06:48:16Z</time></trkpt><trkpt lat="46.6147760767" lon="12.2896981426"><ele>2326.05</ele><time>2013-07-23T06:48:26Z</time></trkpt><trkpt lat="46.6148929205" lon="12.2894890141"><ele>2325.57</ele><time>2013-07-23T06:48:39Z</time></trkpt><trkpt lat="46.6149511747" lon="12.2893291712"><ele>2325.09</ele><time>2013-07-23T06:48:48Z</time></trkpt><trkpt lat="46.6149715427" lon="12.2890632134"><ele>2323.64</ele><time>2013-07-23T06:49:01Z</time></trkpt><trkpt lat="46.6149958503" lon="12.2888524085"><ele>2323.16</ele><time>2013-07-23T06:49:12Z</time></trkpt><trkpt lat="46.6150080040" lon="12.2886442021"><ele>2322.68</ele><time>2013-07-23T06:49:22Z</time></trkpt><trkpt lat="46.6150242649" lon="12.2884411085"><ele>2321.72</ele><time>2013-07-23T06:49:32Z</time></trkpt><trkpt lat="46.6150473990" lon="12.2883152124"><ele>2320.76</ele><time>2013-07-23T06:49:40Z</time></trkpt><trkpt lat="46.6150271147" lon="12.2882441338"><ele>2319.32</ele><time>2013-07-23T06:49:45Z</time></trkpt><trkpt lat="46.6150391847" lon="12.2881422937"><ele>2319.80</ele><time>2013-07-23T06:49:51Z</time></trkpt><trkpt lat="46.6150771547" lon="12.2879744042"><ele>2320.28</ele><time>2013-07-23T06:50:02Z</time></trkpt><trkpt lat="46.6151058208" lon="12.2878640145"><ele>2321.24</ele><time>2013-07-23T06:50:09Z</time></trkpt><trkpt lat="46.6151803359" lon="12.2877008189"><ele>2321.24</ele><time>2013-07-23T06:50:21Z</time></trkpt><trkpt lat="46.6152494028" lon="12.2875663731"><ele>2321.72</ele><time>2013-07-23T06:50:31Z</time></trkpt><trkpt lat="46.6153390892" lon="12.2874362860"><ele>2322.20</ele><time>2013-07-23T06:50:41Z</time></trkpt><trkpt lat="46.6153723653" lon="12.2874102183"><ele>2320.76</ele><time>2013-07-23T06:50:45Z</time></trkpt><trkpt lat="46.6153919790" lon="12.2873566579"><ele>2320.76</ele><time>2013-07-23T06:50:49Z</time></trkpt><trkpt lat="46.6155251674" lon="12.2872604337"><ele>2321.24</ele><time>2013-07-23T06:51:01Z</time></trkpt><trkpt lat="46.6155700106" lon="12.2873030975"><ele>2324.12</ele><time>2013-07-23T06:51:09Z</time></trkpt><trkpt lat="46.6155788954" lon="12.2873235494"><ele>2324.61</ele><time>2013-07-23T06:51:12Z</time></trkpt><trkpt lat="46.6155938990" lon="12.2873226274"><ele>2324.61</ele><time>2013-07-23T06:51:14Z</time></trkpt><trkpt lat="46.6156191286" lon="12.2873173468"><ele>2324.61</ele><time>2013-07-23T06:51:17Z</time></trkpt><trkpt lat="46.6156776343" lon="12.2872910276"><ele>2325.09</ele><time>2013-07-23T06:51:21Z</time></trkpt><trkpt lat="46.6157061327" lon="12.2872578353"><ele>2326.05</ele><time>2013-07-23T06:51:25Z</time></trkpt><trkpt lat="46.6157171130" lon="12.2872425802"><ele>2326.05</ele><time>2013-07-23T06:51:27Z</time></trkpt><trkpt lat="46.6157723498" lon="12.2871221323"><ele>2324.12</ele><time>2013-07-23T06:51:36Z</time></trkpt><trkpt lat="46.6158093978" lon="12.2870941367"><ele>2324.12</ele><time>2013-07-23T06:51:40Z</time></trkpt><trkpt lat="46.6158442665" lon="12.2870305181"><ele>2323.64</ele><time>2013-07-23T06:51:45Z</time></trkpt><trkpt lat="46.6158460267" lon="12.2869642172"><ele>2322.68</ele><time>2013-07-23T06:51:49Z</time></trkpt><trkpt lat="46.6158307716" lon="12.2868946474"><ele>2321.24</ele><time>2013-07-23T06:51:54Z</time></trkpt><trkpt lat="46.6158331186" lon="12.2867459524"><ele>2319.32</ele><time>2013-07-23T06:52:02Z</time></trkpt><trkpt lat="46.6159553267" lon="12.2865469661"><ele>2320.28</ele><time>2013-07-23T06:52:14Z</time></trkpt><trkpt lat="46.6160284169" lon="12.2864121012"><ele>2320.28</ele><time>2013-07-23T06:52:24Z</time></trkpt><trkpt lat="46.6160295065" lon="12.2863776516"><ele>2320.28</ele><time>2013-07-23T06:52:26Z</time></trkpt><trkpt lat="46.6160673928" lon="12.2861726303"><ele>2320.28</ele><time>2013-07-23T06:52:37Z</time></trkpt><trkpt lat="46.6161131579" lon="12.2861037310"><ele>2320.28</ele><time>2013-07-23T06:52:41Z</time></trkpt><trkpt lat="46.6161692329" lon="12.2858780064"><ele>2320.28</ele><time>2013-07-23T06:52:53Z</time></trkpt><trkpt lat="46.6161719151" lon="12.2858590633"><ele>2320.28</ele><time>2013-07-23T06:52:54Z</time></trkpt><trkpt lat="46.6162579134" lon="12.2856818698"><ele>2320.76</ele><time>2013-07-23T06:53:06Z</time></trkpt><trkpt lat="46.6163154971" lon="12.2855224460"><ele>2320.76</ele><time>2013-07-23T06:53:16Z</time></trkpt><trkpt lat="46.6163446661" lon="12.2854369506"><ele>2320.76</ele><time>2013-07-23T06:53:21Z</time></trkpt><trkpt lat="46.6164513677" lon="12.2852740064"><ele>2319.32</ele><time>2013-07-23T06:53:33Z</time></trkpt><trkpt lat="46.6165081132" lon="12.2851467691"><ele>2316.91</ele><time>2013-07-23T06:53:41Z</time></trkpt><trkpt lat="46.6165520344" lon="12.2850450128"><ele>2315.95</ele><time>2013-07-23T06:53:47Z</time></trkpt><trkpt lat="46.6165982187" lon="12.2849471122"><ele>2315.95</ele><time>2013-07-23T06:53:52Z</time></trkpt><trkpt lat="46.6166432295" lon="12.2848810628"><ele>2315.47</ele><time>2013-07-23T06:53:56Z</time></trkpt><trkpt lat="46.6166884080" lon="12.2848319449"><ele>2314.51</ele><time>2013-07-23T06:54:00Z</time></trkpt><trkpt lat="46.6168220993" lon="12.2846905421"><ele>2314.03</ele><time>2013-07-23T06:54:12Z</time></trkpt><trkpt lat="46.6169666871" lon="12.2845453676"><ele>2313.55</ele><time>2013-07-23T06:54:24Z</time></trkpt><trkpt lat="46.6170894820" lon="12.2844043002"><ele>2313.55</ele><time>2013-07-23T06:54:35Z</time></trkpt><trkpt lat="46.6172282863" lon="12.2843115125"><ele>2313.55</ele><time>2013-07-23T06:54:46Z</time></trkpt><trkpt lat="46.6173028853" lon="12.2842830140"><ele>2314.99</ele><time>2013-07-23T06:54:53Z</time></trkpt><trkpt lat="46.6173312161" lon="12.2842951678"><ele>2316.43</ele><time>2013-07-23T06:54:56Z</time></trkpt><trkpt lat="46.6173587088" lon="12.2842924017"><ele>2316.91</ele><time>2013-07-23T06:54:59Z</time></trkpt><trkpt lat="46.6174176335" lon="12.2843010351"><ele>2317.88</ele><time>2013-07-23T06:55:05Z</time></trkpt><trkpt lat="46.6174592916" lon="12.2842944972"><ele>2319.32</ele><time>2013-07-23T06:55:09Z</time></trkpt><trkpt lat="46.6175353155" lon="12.2842857800"><ele>2319.80</ele><time>2013-07-23T06:55:18Z</time></trkpt><trkpt lat="46.6175563540" lon="12.2842822596"><ele>2319.32</ele><time>2013-07-23T06:55:27Z</time></trkpt><trkpt lat="46.6175563540" lon="12.2842822596"><ele>2319.32</ele><time>2013-07-23T06:55:43Z</time></trkpt><trkpt lat="46.6175568569" lon="12.2842812538"><ele>2319.32</ele><time>2013-07-23T06:56:02Z</time></trkpt><trkpt lat="46.6175625566" lon="12.2842841875"><ele>2319.80</ele><time>2013-07-23T06:56:20Z</time></trkpt><trkpt lat="46.6175610479" lon="12.2842845228"><ele>2319.32</ele><time>2013-07-23T06:56:35Z</time></trkpt><trkpt lat="46.6175602935" lon="12.2842941619"><ele>2319.80</ele><time>2013-07-23T06:56:47Z</time></trkpt><trkpt lat="46.6175554320" lon="12.2843478899"><ele>2319.80</ele><time>2013-07-23T06:56:57Z</time></trkpt><trkpt lat="46.6175471339" lon="12.2844018694"><ele>2320.28</ele><time>2013-07-23T06:57:05Z</time></trkpt><trkpt lat="46.6175405961" lon="12.2844859399"><ele>2320.28</ele><time>2013-07-23T06:57:14Z</time></trkpt><trkpt lat="46.6175284423" lon="12.2845128458"><ele>2319.80</ele><time>2013-07-23T06:57:28Z</time></trkpt><trkpt lat="46.6175345611" lon="12.2846523207"><ele>2318.84</ele><time>2013-07-23T06:57:38Z</time></trkpt><trkpt lat="46.6176187992" lon="12.2847405821"><ele>2316.91</ele><time>2013-07-23T06:57:48Z</time></trkpt><trkpt lat="46.6176515725" lon="12.2847868502"><ele>2316.43</ele><time>2013-07-23T06:57:52Z</time></trkpt><trkpt lat="46.6177027859" lon="12.2848305199"><ele>2314.99</ele><time>2013-07-23T06:57:57Z</time></trkpt><trkpt lat="46.6178057995" lon="12.2849616967"><ele>2313.07</ele><time>2013-07-23T06:58:08Z</time></trkpt><trkpt lat="46.6178731900" lon="12.2849939670"><ele>2311.15</ele><time>2013-07-23T06:58:14Z</time></trkpt><trkpt lat="46.6179385688" lon="12.2850031871"><ele>2310.19</ele><time>2013-07-23T06:58:18Z</time></trkpt><trkpt lat="46.6181013454" lon="12.2850311827"><ele>2311.15</ele><time>2013-07-23T06:58:30Z</time></trkpt><trkpt lat="46.6182581708" lon="12.2850129101"><ele>2309.22</ele><time>2013-07-23T06:58:42Z</time></trkpt><trkpt lat="46.6183766071" lon="12.2850164305"><ele>2308.74</ele><time>2013-07-23T06:58:51Z</time></trkpt><trkpt lat="46.6185057722" lon="12.2850003373"><ele>2306.82</ele><time>2013-07-23T06:59:01Z</time></trkpt><trkpt lat="46.6185211949" lon="12.2849977389"><ele>2306.82</ele><time>2013-07-23T06:59:02Z</time></trkpt><trkpt lat="46.6185606737" lon="12.2849979065"><ele>2306.34</ele><time>2013-07-23T06:59:05Z</time></trkpt><trkpt lat="46.6187469196" lon="12.2849489562"><ele>2303.94</ele><time>2013-07-23T06:59:18Z</time></trkpt><trkpt lat="46.6189023200" lon="12.2849253193"><ele>2301.53</ele><time>2013-07-23T06:59:29Z</time></trkpt><trkpt lat="46.6190173198" lon="12.2849114891"><ele>2298.17</ele><time>2013-07-23T06:59:38Z</time></trkpt><trkpt lat="46.6190323234" lon="12.2849033587"><ele>2298.17</ele><time>2013-07-23T06:59:39Z</time></trkpt><trkpt lat="46.6191012226" lon="12.2848785482"><ele>2297.21</ele><time>2013-07-23T06:59:44Z</time></trkpt><trkpt lat="46.6192837805" lon="12.2849275824"><ele>2295.77</ele><time>2013-07-23T06:59:56Z</time></trkpt><trkpt lat="46.6193665937" lon="12.2849405743"><ele>2296.73</ele><time>2013-07-23T07:00:02Z</time></trkpt><trkpt lat="46.6194264404" lon="12.2849027719"><ele>2295.77</ele><time>2013-07-23T07:00:07Z</time></trkpt><trkpt lat="46.6195757221" lon="12.2848699987"><ele>2297.21</ele><time>2013-07-23T07:00:19Z</time></trkpt><trkpt lat="46.6197548434" lon="12.2849158477"><ele>2297.69</ele><time>2013-07-23T07:00:32Z</time></trkpt><trkpt lat="46.6199015267" lon="12.2849509679"><ele>2298.17</ele><time>2013-07-23T07:00:43Z</time></trkpt><trkpt lat="46.6200313624" lon="12.2850035224"><ele>2298.17</ele><time>2013-07-23T07:00:54Z</time></trkpt><trkpt lat="46.6200746968" lon="12.2850219626"><ele>2297.69</ele><time>2013-07-23T07:00:58Z</time></trkpt><trkpt lat="46.6201570909" lon="12.2850712482"><ele>2298.17</ele><time>2013-07-23T07:01:07Z</time></trkpt><trkpt lat="46.6202030238" lon="12.2851007525"><ele>2297.69</ele><time>2013-07-23T07:01:11Z</time></trkpt><trkpt lat="46.6203697398" lon="12.2852007486"><ele>2296.73</ele><time>2013-07-23T07:01:23Z</time></trkpt><trkpt lat="46.6205424070" lon="12.2853236273"><ele>2297.21</ele><time>2013-07-23T07:01:35Z</time></trkpt><trkpt lat="46.6206658725" lon="12.2854242940"><ele>2298.17</ele><time>2013-07-23T07:01:45Z</time></trkpt><trkpt lat="46.6207882483" lon="12.2855572309"><ele>2298.65</ele><time>2013-07-23T07:01:56Z</time></trkpt><trkpt lat="46.6209264658" lon="12.2856803611"><ele>2298.65</ele><time>2013-07-23T07:02:08Z</time></trkpt><trkpt lat="46.6210550442" lon="12.2857829556"><ele>2299.61</ele><time>2013-07-23T07:02:19Z</time></trkpt><trkpt lat="46.6211845446" lon="12.2858194169"><ele>2299.61</ele><time>2013-07-23T07:02:29Z</time></trkpt><trkpt lat="46.6212567128" lon="12.2858159803"><ele>2300.09</ele><time>2013-07-23T07:02:35Z</time></trkpt><trkpt lat="46.6212904919" lon="12.2858278826"><ele>2300.09</ele><time>2013-07-23T07:02:38Z</time></trkpt><trkpt lat="46.6214680206" lon="12.2858340852"><ele>2300.57</ele><time>2013-07-23T07:02:51Z</time></trkpt><trkpt lat="46.6216034722" lon="12.2858385276"><ele>2302.01</ele><time>2013-07-23T07:03:02Z</time></trkpt><trkpt lat="46.6216454655" lon="12.2858320735"><ele>2302.98</ele><time>2013-07-23T07:03:06Z</time></trkpt><trkpt lat="46.6216941644" lon="12.2858178243"><ele>2302.49</ele><time>2013-07-23T07:03:10Z</time></trkpt><trkpt lat="46.6218227427" lon="12.2858171538"><ele>2302.98</ele><time>2013-07-23T07:03:20Z</time></trkpt><trkpt lat="46.6218983475" lon="12.2858417965"><ele>2304.42</ele><time>2013-07-23T07:03:27Z</time></trkpt><trkpt lat="46.6219961643" lon="12.2858929262"><ele>2305.86</ele><time>2013-07-23T07:03:37Z</time></trkpt><trkpt lat="46.6219995171" lon="12.2858986259"><ele>2305.86</ele><time>2013-07-23T07:03:52Z</time></trkpt><trkpt lat="46.6219995171" lon="12.2858986259"><ele>2305.38</ele><time>2013-07-23T07:04:10Z</time></trkpt><trkpt lat="46.6219995171" lon="12.2858986259"><ele>2306.34</ele><time>2013-07-23T07:04:26Z</time></trkpt><trkpt lat="46.6219996009" lon="12.2858965304"><ele>2305.86</ele><time>2013-07-23T07:04:43Z</time></trkpt><trkpt lat="46.6220000200" lon="12.2858960275"><ele>2305.38</ele><time>2013-07-23T07:05:03Z</time></trkpt><trkpt lat="46.6220004391" lon="12.2858943511"><ele>2306.34</ele><time>2013-07-23T07:05:19Z</time></trkpt><trkpt lat="46.6220004391" lon="12.2858943511"><ele>2305.86</ele><time>2013-07-23T07:05:36Z</time></trkpt><trkpt lat="46.6220291890" lon="12.2858634219"><ele>2305.86</ele><time>2013-07-23T07:05:51Z</time></trkpt><trkpt lat="46.6220750380" lon="12.2858290561"><ele>2304.90</ele><time>2013-07-23T07:05:59Z</time></trkpt><trkpt lat="46.6220750380" lon="12.2858290561"><ele>2305.38</ele><time>2013-07-23T07:06:16Z</time></trkpt><trkpt lat="46.6220750380" lon="12.2858290561"><ele>2305.38</ele><time>2013-07-23T07:06:37Z</time></trkpt><trkpt lat="46.6220751218" lon="12.2858272959"><ele>2305.38</ele><time>2013-07-23T07:06:55Z</time></trkpt><trkpt lat="46.6220751218" lon="12.2858272959"><ele>2305.38</ele><time>2013-07-23T07:06:56Z</time></trkpt><trkpt lat="46.6220969986" lon="12.2858248651"><ele>2305.86</ele><time>2013-07-23T07:06:59Z</time></trkpt><trkpt lat="46.6221458651" lon="12.2857840452"><ele>2304.90</ele><time>2013-07-23T07:07:04Z</time></trkpt><trkpt lat="46.6223170236" lon="12.2857063450"><ele>2303.94</ele><time>2013-07-23T07:07:17Z</time></trkpt><trkpt lat="46.6224547382" lon="12.2857340053"><ele>2302.98</ele><time>2013-07-23T07:07:27Z</time></trkpt><trkpt lat="46.6225575842" lon="12.2857739031"><ele>2301.05</ele><time>2013-07-23T07:07:36Z</time></trkpt><trkpt lat="46.6226808820" lon="12.2857941873"><ele>2298.17</ele><time>2013-07-23T07:07:46Z</time></trkpt><trkpt lat="46.6227191873" lon="12.2858236078"><ele>2297.21</ele><time>2013-07-23T07:07:50Z</time></trkpt><trkpt lat="46.6228243802" lon="12.2858706303"><ele>2294.32</ele><time>2013-07-23T07:08:01Z</time></trkpt><trkpt lat="46.6228605900" lon="12.2859001346"><ele>2293.84</ele><time>2013-07-23T07:08:05Z</time></trkpt><trkpt lat="46.6229849774" lon="12.2859861329"><ele>2290.96</ele><time>2013-07-23T07:08:16Z</time></trkpt><trkpt lat="46.6230489314" lon="12.2860334907"><ele>2288.56</ele><time>2013-07-23T07:08:24Z</time></trkpt><trkpt lat="46.6231332533" lon="12.2861041501"><ele>2286.15</ele><time>2013-07-23T07:08:33Z</time></trkpt><trkpt lat="46.6231551301" lon="12.2861547768"><ele>2285.19</ele><time>2013-07-23T07:08:36Z</time></trkpt><trkpt lat="46.6232686210" lon="12.2862748057"><ele>2281.83</ele><time>2013-07-23T07:08:49Z</time></trkpt><trkpt lat="46.6233056691" lon="12.2862830199"><ele>2280.38</ele><time>2013-07-23T07:08:53Z</time></trkpt><trkpt lat="46.6233836208" lon="12.2863655817"><ele>2278.46</ele><time>2013-07-23T07:09:01Z</time></trkpt><trkpt lat="46.6234305594" lon="12.2864088323"><ele>2277.50</ele><time>2013-07-23T07:09:06Z</time></trkpt><trkpt lat="46.6234690323" lon="12.2864323016"><ele>2276.54</ele><time>2013-07-23T07:09:10Z</time></trkpt><trkpt lat="46.6234883945" lon="12.2864561900"><ele>2275.58</ele><time>2013-07-23T07:09:12Z</time></trkpt><trkpt lat="46.6235860437" lon="12.2866239119"><ele>2272.69</ele><time>2013-07-23T07:09:23Z</time></trkpt><trkpt lat="46.6236333176" lon="12.2866794001"><ele>2272.21</ele><time>2013-07-23T07:09:27Z</time></trkpt><trkpt lat="46.6237231717" lon="12.2868259996"><ele>2273.17</ele><time>2013-07-23T07:09:37Z</time></trkpt><trkpt lat="46.6238021292" lon="12.2868868522"><ele>2273.17</ele><time>2013-07-23T07:09:44Z</time></trkpt><trkpt lat="46.6238379199" lon="12.2868948150"><ele>2274.14</ele><time>2013-07-23T07:09:48Z</time></trkpt><trkpt lat="46.6238934081" lon="12.2869733535"><ele>2273.66</ele><time>2013-07-23T07:09:54Z</time></trkpt><trkpt lat="46.6239191405" lon="12.2870332841"><ele>2273.66</ele><time>2013-07-23T07:09:58Z</time></trkpt><trkpt lat="46.6239556856" lon="12.2870735172"><ele>2272.69</ele><time>2013-07-23T07:10:02Z</time></trkpt><trkpt lat="46.6240643151" lon="12.2873055283"><ele>2272.69</ele><time>2013-07-23T07:10:15Z</time></trkpt><trkpt lat="46.6241119243" lon="12.2873467673"><ele>2272.69</ele><time>2013-07-23T07:10:20Z</time></trkpt><trkpt lat="46.6241286043" lon="12.2874772735"><ele>2273.66</ele><time>2013-07-23T07:10:27Z</time></trkpt><trkpt lat="46.6240416840" lon="12.2875765152"><ele>2273.66</ele><time>2013-07-23T07:10:36Z</time></trkpt><trkpt lat="46.6239503212" lon="12.2877128050"><ele>2272.69</ele><time>2013-07-23T07:10:47Z</time></trkpt><trkpt lat="46.6239161231" lon="12.2879231907"><ele>2273.17</ele><time>2013-07-23T07:10:58Z</time></trkpt><trkpt lat="46.6238714475" lon="12.2880222648"><ele>2273.17</ele><time>2013-07-23T07:11:04Z</time></trkpt><trkpt lat="46.6238596290" lon="12.2882571258"><ele>2275.10</ele><time>2013-07-23T07:11:17Z</time></trkpt><trkpt lat="46.6239047237" lon="12.2884056531"><ele>2275.10</ele><time>2013-07-23T07:11:26Z</time></trkpt><trkpt lat="46.6239225771" lon="12.2885935754"><ele>2275.58</ele><time>2013-07-23T07:11:37Z</time></trkpt><trkpt lat="46.6239410173" lon="12.2886453755"><ele>2275.10</ele><time>2013-07-23T07:11:41Z</time></trkpt><trkpt lat="46.6239467170" lon="12.2887449525"><ele>2273.66</ele><time>2013-07-23T07:11:47Z</time></trkpt><trkpt lat="46.6239561047" lon="12.2888392489"><ele>2272.69</ele><time>2013-07-23T07:11:52Z</time></trkpt><trkpt lat="46.6239139438" lon="12.2889616247"><ele>2271.73</ele><time>2013-07-23T07:11:59Z</time></trkpt><trkpt lat="46.6238957550" lon="12.2891520616"><ele>2271.25</ele><time>2013-07-23T07:12:08Z</time></trkpt><trkpt lat="46.6238964256" lon="12.2891746089"><ele>2271.25</ele><time>2013-07-23T07:12:09Z</time></trkpt><trkpt lat="46.6239175480" lon="12.2892411612"><ele>2271.73</ele><time>2013-07-23T07:12:13Z</time></trkpt><trkpt lat="46.6239444539" lon="12.2892994992"><ele>2269.81</ele><time>2013-07-23T07:12:17Z</time></trkpt><trkpt lat="46.6239601281" lon="12.2894690651"><ele>2268.85</ele><time>2013-07-23T07:12:26Z</time></trkpt><trkpt lat="46.6240388341" lon="12.2895832267"><ele>2267.41</ele><time>2013-07-23T07:12:34Z</time></trkpt><trkpt lat="46.6241737828" lon="12.2896815464"><ele>2265.96</ele><time>2013-07-23T07:12:46Z</time></trkpt><trkpt lat="46.6242234875" lon="12.2897426505"><ele>2263.56</ele><time>2013-07-23T07:12:52Z</time></trkpt><trkpt lat="46.6242428496" lon="12.2897829674"><ele>2263.08</ele><time>2013-07-23T07:12:55Z</time></trkpt><trkpt lat="46.6243817378" lon="12.2898224462"><ele>2259.72</ele><time>2013-07-23T07:13:08Z</time></trkpt><trkpt lat="46.6245104000" lon="12.2898417246"><ele>2257.79</ele><time>2013-07-23T07:13:17Z</time></trkpt><trkpt lat="46.6245702468" lon="12.2898722347"><ele>2255.87</ele><time>2013-07-23T07:13:23Z</time></trkpt><trkpt lat="46.6246756911" lon="12.2900403757"><ele>2255.39</ele><time>2013-07-23T07:13:33Z</time></trkpt><trkpt lat="46.6247123200" lon="12.2901557945"><ele>2254.91</ele><time>2013-07-23T07:13:40Z</time></trkpt><trkpt lat="46.6247302573" lon="12.2901813593"><ele>2254.43</ele><time>2013-07-23T07:13:42Z</time></trkpt><trkpt lat="46.6247883439" lon="12.2901956923"><ele>2252.99</ele><time>2013-07-23T07:13:47Z</time></trkpt><trkpt lat="46.6248941235" lon="12.2901838738"><ele>2251.06</ele><time>2013-07-23T07:13:57Z</time></trkpt><trkpt lat="46.6248970572" lon="12.2901775874"><ele>2250.10</ele><time>2013-07-23T07:13:58Z</time></trkpt><trkpt lat="46.6250045970" lon="12.2901593987"><ele>2249.14</ele><time>2013-07-23T07:14:05Z</time></trkpt><trkpt lat="46.6251420602" lon="12.2901881486"><ele>2246.74</ele><time>2013-07-23T07:14:15Z</time></trkpt><trkpt lat="46.6251804493" lon="12.2902240232"><ele>2245.78</ele><time>2013-07-23T07:14:19Z</time></trkpt><trkpt lat="46.6252121329" lon="12.2902576346"><ele>2244.82</ele><time>2013-07-23T07:14:22Z</time></trkpt><trkpt lat="46.6253324132" lon="12.2903103568"><ele>2243.37</ele><time>2013-07-23T07:14:32Z</time></trkpt><trkpt lat="46.6254201718" lon="12.2903698683"><ele>2242.89</ele><time>2013-07-23T07:14:40Z</time></trkpt><trkpt lat="46.6255502589" lon="12.2904305533"><ele>2241.45</ele><time>2013-07-23T07:14:49Z</time></trkpt><trkpt lat="46.6256036516" lon="12.2904949263"><ele>2241.45</ele><time>2013-07-23T07:14:55Z</time></trkpt><trkpt lat="46.6256720480" lon="12.2905144561"><ele>2241.45</ele><time>2013-07-23T07:15:02Z</time></trkpt><trkpt lat="46.6257055756" lon="12.2905115224"><ele>2240.01</ele><time>2013-07-23T07:15:05Z</time></trkpt><trkpt lat="46.6257486586" lon="12.2905251011"><ele>2240.01</ele><time>2013-07-23T07:15:11Z</time></trkpt><trkpt lat="46.6257793363" lon="12.2905156296"><ele>2240.49</ele><time>2013-07-23T07:15:14Z</time></trkpt><trkpt lat="46.6258697771" lon="12.2906278633"><ele>2240.97</ele><time>2013-07-23T07:15:23Z</time></trkpt><trkpt lat="46.6258836910" lon="12.2906411067"><ele>2240.97</ele><time>2013-07-23T07:15:25Z</time></trkpt><trkpt lat="46.6259109322" lon="12.2906568646"><ele>2241.45</ele><time>2013-07-23T07:15:28Z</time></trkpt><trkpt lat="46.6259447113" lon="12.2907511611"><ele>2241.93</ele><time>2013-07-23T07:15:34Z</time></trkpt><trkpt lat="46.6259996966" lon="12.2907780670"><ele>2241.45</ele><time>2013-07-23T07:15:39Z</time></trkpt><trkpt lat="46.6260796599" lon="12.2908610478"><ele>2242.41</ele><time>2013-07-23T07:15:48Z</time></trkpt><trkpt lat="46.6261429433" lon="12.2909825016"><ele>2241.93</ele><time>2013-07-23T07:15:57Z</time></trkpt><trkpt lat="46.6262110043" lon="12.2910752892"><ele>2242.89</ele><time>2013-07-23T07:16:06Z</time></trkpt><trkpt lat="46.6262299474" lon="12.2910987586"><ele>2242.89</ele><time>2013-07-23T07:16:08Z</time></trkpt><trkpt lat="46.6262482200" lon="12.2911354713"><ele>2243.37</ele><time>2013-07-23T07:16:11Z</time></trkpt><trkpt lat="46.6262732819" lon="12.2911453620"><ele>2243.85</ele><time>2013-07-23T07:16:14Z</time></trkpt><trkpt lat="46.6263153590" lon="12.2911695018"><ele>2243.37</ele><time>2013-07-23T07:16:18Z</time></trkpt><trkpt lat="46.6263337154" lon="12.2911924683"><ele>2242.89</ele><time>2013-07-23T07:16:20Z</time></trkpt><trkpt lat="46.6264559235" lon="12.2913396545"><ele>2242.41</ele><time>2013-07-23T07:16:32Z</time></trkpt><trkpt lat="46.6265024431" lon="12.2913959809"><ele>2243.37</ele><time>2013-07-23T07:16:38Z</time></trkpt><trkpt lat="46.6265643854" lon="12.2914934624"><ele>2243.85</ele><time>2013-07-23T07:16:47Z</time></trkpt><trkpt lat="46.6265732702" lon="12.2915073764"><ele>2244.82</ele><time>2013-07-23T07:16:48Z</time></trkpt><trkpt lat="46.6266458575" lon="12.2916052770"><ele>2246.74</ele><time>2013-07-23T07:17:00Z</time></trkpt><trkpt lat="46.6266580112" lon="12.2916175146"><ele>2247.22</ele><time>2013-07-23T07:17:02Z</time></trkpt><trkpt lat="46.6267088056" lon="12.2916922811"><ele>2248.18</ele><time>2013-07-23T07:17:10Z</time></trkpt><trkpt lat="46.6267641261" lon="12.2918108013"><ele>2248.66</ele><time>2013-07-23T07:17:20Z</time></trkpt><trkpt lat="46.6267740168" lon="12.2918375395"><ele>2247.70</ele><time>2013-07-23T07:17:23Z</time></trkpt><trkpt lat="46.6268116515" lon="12.2918406408"><ele>2247.70</ele><time>2013-07-23T07:17:27Z</time></trkpt><trkpt lat="46.6268546507" lon="12.2918769345"><ele>2247.22</ele><time>2013-07-23T07:17:31Z</time></trkpt><trkpt lat="46.6269015055" lon="12.2920292336"><ele>2248.66</ele><time>2013-07-23T07:17:43Z</time></trkpt><trkpt lat="46.6269248072" lon="12.2921622545"><ele>2249.14</ele><time>2013-07-23T07:17:52Z</time></trkpt><trkpt lat="46.6269449238" lon="12.2922004759"><ele>2250.10</ele><time>2013-07-23T07:17:56Z</time></trkpt><trkpt lat="46.6269812174" lon="12.2922775056"><ele>2250.58</ele><time>2013-07-23T07:18:02Z</time></trkpt><trkpt lat="46.6270399746" lon="12.2923920024"><ele>2252.51</ele><time>2013-07-23T07:18:13Z</time></trkpt><trkpt lat="46.6270963009" lon="12.2924200818"><ele>2253.47</ele><time>2013-07-23T07:18:20Z</time></trkpt><trkpt lat="46.6271564830" lon="12.2924598958"><ele>2253.95</ele><time>2013-07-23T07:18:27Z</time></trkpt><trkpt lat="46.6272503603" lon="12.2924788389"><ele>2254.91</ele><time>2013-07-23T07:18:38Z</time></trkpt><trkpt lat="46.6272854805" lon="12.2924858797"><ele>2254.91</ele><time>2013-07-23T07:18:42Z</time></trkpt><trkpt lat="46.6273659468" lon="12.2925521806"><ele>2256.83</ele><time>2013-07-23T07:18:52Z</time></trkpt><trkpt lat="46.6274239495" lon="12.2926211637"><ele>2256.83</ele><time>2013-07-23T07:19:00Z</time></trkpt><trkpt lat="46.6274290625" lon="12.2926642466"><ele>2256.35</ele><time>2013-07-23T07:19:03Z</time></trkpt><trkpt lat="46.6274681222" lon="12.2927545197"><ele>2251.06</ele><time>2013-07-23T07:19:11Z</time></trkpt><trkpt lat="46.6274745762" lon="12.2927701939"><ele>2256.83</ele><time>2013-07-23T07:19:12Z</time></trkpt><trkpt lat="46.6274755821" lon="12.2927819286"><ele>2255.39</ele><time>2013-07-23T07:19:26Z</time></trkpt><trkpt lat="46.6274755821" lon="12.2927819286"><ele>2255.87</ele><time>2013-07-23T07:19:27Z</time></trkpt><trkpt lat="46.6274737380" lon="12.2927798331"><ele>2255.87</ele><time>2013-07-23T07:19:38Z</time></trkpt><trkpt lat="46.6274766717" lon="12.2927984409"><ele>2256.35</ele><time>2013-07-23T07:19:42Z</time></trkpt><trkpt lat="46.6274860594" lon="12.2928181384"><ele>2256.83</ele><time>2013-07-23T07:19:44Z</time></trkpt><trkpt lat="46.6275410447" lon="12.2929205652"><ele>2257.31</ele><time>2013-07-23T07:19:54Z</time></trkpt><trkpt lat="46.6275788471" lon="12.2929965891"><ele>2258.75</ele><time>2013-07-23T07:20:01Z</time></trkpt><trkpt lat="46.6275912523" lon="12.2930218186"><ele>2258.75</ele><time>2013-07-23T07:20:03Z</time></trkpt><trkpt lat="46.6276783403" lon="12.2931297775"><ele>2260.20</ele><time>2013-07-23T07:20:14Z</time></trkpt><trkpt lat="46.6276801005" lon="12.2931545042"><ele>2261.16</ele><time>2013-07-23T07:20:16Z</time></trkpt><trkpt lat="46.6277314816" lon="12.2932678275"><ele>2262.12</ele><time>2013-07-23T07:20:27Z</time></trkpt><trkpt lat="46.6277381033" lon="12.2933144309"><ele>2263.08</ele><time>2013-07-23T07:20:31Z</time></trkpt><trkpt lat="46.6277494188" lon="12.2933394089"><ele>2263.56</ele><time>2013-07-23T07:20:33Z</time></trkpt><trkpt lat="46.6277543642" lon="12.2933831625"><ele>2263.56</ele><time>2013-07-23T07:20:36Z</time></trkpt><trkpt lat="46.6277508438" lon="12.2934125829"><ele>2264.04</ele><time>2013-07-23T07:20:38Z</time></trkpt><trkpt lat="46.6277805157" lon="12.2934945580"><ele>2264.04</ele><time>2013-07-23T07:20:44Z</time></trkpt><trkpt lat="46.6278484091" lon="12.2936013434"><ele>2265.96</ele><time>2013-07-23T07:20:56Z</time></trkpt><trkpt lat="46.6278867144" lon="12.2936370503"><ele>2267.41</ele><time>2013-07-23T07:21:03Z</time></trkpt><trkpt lat="46.6279014666" lon="12.2937347833"><ele>2268.37</ele><time>2013-07-23T07:21:12Z</time></trkpt><trkpt lat="46.6279148776" lon="12.2937765252"><ele>2268.85</ele><time>2013-07-23T07:21:15Z</time></trkpt><trkpt lat="46.6279352456" lon="12.2938368749"><ele>2269.33</ele><time>2013-07-23T07:21:19Z</time></trkpt><trkpt lat="46.6279481538" lon="12.2939171735"><ele>2269.33</ele><time>2013-07-23T07:21:23Z</time></trkpt><trkpt lat="46.6280193161" lon="12.2940532118"><ele>2269.33</ele><time>2013-07-23T07:21:33Z</time></trkpt><trkpt lat="46.6281036381" lon="12.2941885795"><ele>2267.41</ele><time>2013-07-23T07:21:44Z</time></trkpt><trkpt lat="46.6281570308" lon="12.2942606639"><ele>2267.89</ele><time>2013-07-23T07:21:50Z</time></trkpt><trkpt lat="46.6282754671" lon="12.2942967899"><ele>2268.37</ele><time>2013-07-23T07:22:01Z</time></trkpt><trkpt lat="46.6283984296" lon="12.2943364363"><ele>2270.29</ele><time>2013-07-23T07:22:13Z</time></trkpt><trkpt lat="46.6285006050" lon="12.2943582293"><ele>2271.73</ele><time>2013-07-23T07:22:24Z</time></trkpt><trkpt lat="46.6285730246" lon="12.2944008932"><ele>2273.17</ele><time>2013-07-23T07:22:34Z</time></trkpt><trkpt lat="46.6286008526" lon="12.2944383603"><ele>2274.62</ele><time>2013-07-23T07:22:43Z</time></trkpt><trkpt lat="46.6286166105" lon="12.2944635060"><ele>2276.06</ele><time>2013-07-23T07:22:49Z</time></trkpt><trkpt lat="46.6286407504" lon="12.2944757435"><ele>2277.02</ele><time>2013-07-23T07:22:52Z</time></trkpt><trkpt lat="46.6286936402" lon="12.2945338301"><ele>2277.02</ele><time>2013-07-23T07:22:58Z</time></trkpt><trkpt lat="46.6287803929" lon="12.2946308926"><ele>2278.46</ele><time>2013-07-23T07:23:08Z</time></trkpt><trkpt lat="46.6288379766" lon="12.2947188187"><ele>2276.54</ele><time>2013-07-23T07:23:17Z</time></trkpt><trkpt lat="46.6288730130" lon="12.2947830241"><ele>2275.10</ele><time>2013-07-23T07:23:25Z</time></trkpt><trkpt lat="46.6289207898" lon="12.2948497441"><ele>2272.21</ele><time>2013-07-23T07:23:34Z</time></trkpt><trkpt lat="46.6289254837" lon="12.2948550247"><ele>2271.73</ele><time>2013-07-23T07:23:35Z</time></trkpt><trkpt lat="46.6289602686" lon="12.2949029692"><ele>2270.77</ele><time>2013-07-23T07:23:43Z</time></trkpt><trkpt lat="46.6290011723" lon="12.2949727066"><ele>2269.33</ele><time>2013-07-23T07:23:48Z</time></trkpt><trkpt lat="46.6290213726" lon="12.2949969303"><ele>2269.33</ele><time>2013-07-23T07:23:50Z</time></trkpt><trkpt lat="46.6290374659" lon="12.2950650752"><ele>2269.33</ele><time>2013-07-23T07:23:53Z</time></trkpt><trkpt lat="46.6290070396" lon="12.2952893749"><ele>2272.69</ele><time>2013-07-23T07:24:08Z</time></trkpt><trkpt lat="46.6290304251" lon="12.2953335475"><ele>2273.17</ele><time>2013-07-23T07:24:14Z</time></trkpt><trkpt lat="46.6290307604" lon="12.2953737807"><ele>2274.14</ele><time>2013-07-23T07:24:19Z</time></trkpt><trkpt lat="46.6290376335" lon="12.2954153549"><ele>2274.14</ele><time>2013-07-23T07:24:22Z</time></trkpt><trkpt lat="46.6290170979" lon="12.2954560909"><ele>2275.58</ele><time>2013-07-23T07:24:31Z</time></trkpt><trkpt lat="46.6290311795" lon="12.2955061309"><ele>2275.58</ele><time>2013-07-23T07:24:41Z</time></trkpt><trkpt lat="46.6290545650" lon="12.2955865134"><ele>2275.58</ele><time>2013-07-23T07:24:49Z</time></trkpt><trkpt lat="46.6290967260" lon="12.2956487071"><ele>2275.10</ele><time>2013-07-23T07:24:58Z</time></trkpt><trkpt lat="46.6291207820" lon="12.2956725117"><ele>2274.62</ele><time>2013-07-23T07:25:02Z</time></trkpt><trkpt lat="46.6291424073" lon="12.2956859227"><ele>2274.62</ele><time>2013-07-23T07:25:04Z</time></trkpt><trkpt lat="46.6292203590" lon="12.2958250623"><ele>2274.14</ele><time>2013-07-23T07:25:14Z</time></trkpt><trkpt lat="46.6292569041" lon="12.2959263157"><ele>2274.62</ele><time>2013-07-23T07:25:21Z</time></trkpt><trkpt lat="46.6293444950" lon="12.2960564867"><ele>2274.62</ele><time>2013-07-23T07:25:31Z</time></trkpt><trkpt lat="46.6293607559" lon="12.2960693110"><ele>2275.10</ele><time>2013-07-23T07:25:34Z</time></trkpt><trkpt lat="46.6293849796" lon="12.2961910162"><ele>2272.69</ele><time>2013-07-23T07:25:44Z</time></trkpt><trkpt lat="46.6294316668" lon="12.2963210195"><ele>2271.25</ele><time>2013-07-23T07:25:53Z</time></trkpt><trkpt lat="46.6294408031" lon="12.2965494264"><ele>2269.81</ele><time>2013-07-23T07:26:04Z</time></trkpt><trkpt lat="46.6294418089" lon="12.2965941019"><ele>2270.77</ele><time>2013-07-23T07:26:08Z</time></trkpt><trkpt lat="46.6294520348" lon="12.2966122907"><ele>2269.81</ele><time>2013-07-23T07:26:10Z</time></trkpt><trkpt lat="46.6294893343" lon="12.2966503445"><ele>2269.33</ele><time>2013-07-23T07:26:14Z</time></trkpt><trkpt lat="46.6295483429" lon="12.2967676912"><ele>2267.41</ele><time>2013-07-23T07:26:22Z</time></trkpt><trkpt lat="46.6295776796" lon="12.2969157156"><ele>2267.89</ele><time>2013-07-23T07:26:30Z</time></trkpt><trkpt lat="46.6296178289" lon="12.2970322240"><ele>2267.89</ele><time>2013-07-23T07:26:38Z</time></trkpt><trkpt lat="46.6296656895" lon="12.2971820086"><ele>2269.33</ele><time>2013-07-23T07:26:48Z</time></trkpt><trkpt lat="46.6296894941" lon="12.2972139437"><ele>2267.89</ele><time>2013-07-23T07:26:51Z</time></trkpt><trkpt lat="46.6297379415" lon="12.2972877882"><ele>2265.96</ele><time>2013-07-23T07:27:00Z</time></trkpt><trkpt lat="46.6297881491" lon="12.2973752953"><ele>2264.52</ele><time>2013-07-23T07:27:06Z</time></trkpt><trkpt lat="46.6298095230" lon="12.2973992676"><ele>2264.52</ele><time>2013-07-23T07:27:08Z</time></trkpt><trkpt lat="46.6298218444" lon="12.2974291909"><ele>2264.52</ele><time>2013-07-23T07:27:10Z</time></trkpt><trkpt lat="46.6298250295" lon="12.2975587752"><ele>2265.00</ele><time>2013-07-23T07:27:17Z</time></trkpt><trkpt lat="46.6298740637" lon="12.2976202983"><ele>2265.00</ele><time>2013-07-23T07:27:22Z</time></trkpt><trkpt lat="46.6298977844" lon="12.2976925503"><ele>2265.00</ele><time>2013-07-23T07:27:26Z</time></trkpt><trkpt lat="46.6299094353" lon="12.2977636289"><ele>2264.52</ele><time>2013-07-23T07:27:30Z</time></trkpt><trkpt lat="46.6299139615" lon="12.2978031076"><ele>2265.48</ele><time>2013-07-23T07:27:32Z</time></trkpt><trkpt lat="46.6299081780" lon="12.2979222983"><ele>2265.96</ele><time>2013-07-23T07:27:39Z</time></trkpt><trkpt lat="46.6299057472" lon="12.2979736794"><ele>2265.96</ele><time>2013-07-23T07:27:42Z</time></trkpt><trkpt lat="46.6298925038" lon="12.2981096338"><ele>2266.93</ele><time>2013-07-23T07:27:51Z</time></trkpt><trkpt lat="46.6299027298" lon="12.2981456760"><ele>2267.41</ele><time>2013-07-23T07:27:54Z</time></trkpt><trkpt lat="46.6299641691" lon="12.2983197682"><ele>2267.89</ele><time>2013-07-23T07:28:05Z</time></trkpt><trkpt lat="46.6300151311" lon="12.2984736599"><ele>2266.93</ele><time>2013-07-23T07:28:14Z</time></trkpt><trkpt lat="46.6300236806" lon="12.2985089477"><ele>2266.45</ele><time>2013-07-23T07:28:16Z</time></trkpt><trkpt lat="46.6300536040" lon="12.2985737398"><ele>2265.96</ele><time>2013-07-23T07:28:21Z</time></trkpt><trkpt lat="46.6300842818" lon="12.2986359335"><ele>2265.00</ele><time>2013-07-23T07:28:26Z</time></trkpt><trkpt lat="46.6300621536" lon="12.2987274639"><ele>2263.56</ele><time>2013-07-23T07:28:36Z</time></trkpt><trkpt lat="46.6300350800" lon="12.2987825330"><ele>2262.60</ele><time>2013-07-23T07:28:43Z</time></trkpt><trkpt lat="46.6299981158" lon="12.2989268694"><ele>2261.64</ele><time>2013-07-23T07:28:54Z</time></trkpt><trkpt lat="46.6299949307" lon="12.2989351675"><ele>2262.12</ele><time>2013-07-23T07:28:57Z</time></trkpt><trkpt lat="46.6299568769" lon="12.2990044020"><ele>2261.64</ele><time>2013-07-23T07:29:01Z</time></trkpt><trkpt lat="46.6299287137" lon="12.2991147079"><ele>2260.68</ele><time>2013-07-23T07:29:08Z</time></trkpt><trkpt lat="46.6299499199" lon="12.2992316354"><ele>2258.75</ele><time>2013-07-23T07:29:17Z</time></trkpt><trkpt lat="46.6299708746" lon="12.2993339784"><ele>2256.83</ele><time>2013-07-23T07:29:25Z</time></trkpt><trkpt lat="46.6299972776" lon="12.2993947472"><ele>2255.39</ele><time>2013-07-23T07:29:31Z</time></trkpt><trkpt lat="46.6300034802" lon="12.2994238324"><ele>2254.43</ele><time>2013-07-23T07:29:33Z</time></trkpt><trkpt lat="46.6300226748" lon="12.2994731180"><ele>2253.47</ele><time>2013-07-23T07:29:37Z</time></trkpt><trkpt lat="46.6300717928" lon="12.2996076476"><ele>2250.58</ele><time>2013-07-23T07:29:46Z</time></trkpt><trkpt lat="46.6300776601" lon="12.2996860184"><ele>2250.10</ele><time>2013-07-23T07:29:51Z</time></trkpt><trkpt lat="46.6301151272" lon="12.2998065501"><ele>2248.18</ele><time>2013-07-23T07:30:00Z</time></trkpt><trkpt lat="46.6301547736" lon="12.2999710031"><ele>2244.82</ele><time>2013-07-23T07:30:11Z</time></trkpt><trkpt lat="46.6301675979" lon="12.3000595998"><ele>2243.37</ele><time>2013-07-23T07:30:16Z</time></trkpt><trkpt lat="46.6301632393" lon="12.3000870924"><ele>2243.37</ele><time>2013-07-23T07:30:18Z</time></trkpt><trkpt lat="46.6301704478" lon="12.3002533894"><ele>2241.45</ele><time>2013-07-23T07:30:28Z</time></trkpt><trkpt lat="46.6301453859" lon="12.3003599234"><ele>2240.01</ele><time>2013-07-23T07:30:35Z</time></trkpt><trkpt lat="46.6301729623" lon="12.3005444091"><ele>2237.13</ele><time>2013-07-23T07:30:46Z</time></trkpt><trkpt lat="46.6301709507" lon="12.3005778529"><ele>2236.64</ele><time>2013-07-23T07:30:48Z</time></trkpt><trkpt lat="46.6301462241" lon="12.3006775975"><ele>2236.16</ele><time>2013-07-23T07:30:54Z</time></trkpt><trkpt lat="46.6301614791" lon="12.3008344229"><ele>2233.76</ele><time>2013-07-23T07:31:04Z</time></trkpt><trkpt lat="46.6301416140" lon="12.3009035736"><ele>2232.32</ele><time>2013-07-23T07:31:09Z</time></trkpt><trkpt lat="46.6301230062" lon="12.3009479977"><ele>2230.88</ele><time>2013-07-23T07:31:16Z</time></trkpt><trkpt lat="46.6301214136" lon="12.3009889852"><ele>2230.40</ele><time>2013-07-23T07:31:19Z</time></trkpt><trkpt lat="46.6301254369" lon="12.3010551184"><ele>2228.95</ele><time>2013-07-23T07:31:24Z</time></trkpt><trkpt lat="46.6301323101" lon="12.3011807632"><ele>2227.03</ele><time>2013-07-23T07:31:31Z</time></trkpt><trkpt lat="46.6301473137" lon="12.3012829386"><ele>2225.11</ele><time>2013-07-23T07:31:38Z</time></trkpt><trkpt lat="46.6301526781" lon="12.3013250157"><ele>2224.63</ele><time>2013-07-23T07:31:41Z</time></trkpt><trkpt lat="46.6301380936" lon="12.3013836052"><ele>2223.67</ele><time>2013-07-23T07:31:45Z</time></trkpt><trkpt lat="46.6301412787" lon="12.3015027121"><ele>2222.22</ele><time>2013-07-23T07:31:52Z</time></trkpt><trkpt lat="46.6301457211" lon="12.3016155325"><ele>2219.82</ele><time>2013-07-23T07:31:58Z</time></trkpt><trkpt lat="46.6301878821" lon="12.3017260060"><ele>2218.38</ele><time>2013-07-23T07:32:06Z</time></trkpt><trkpt lat="46.6302147880" lon="12.3018110823"><ele>2216.46</ele><time>2013-07-23T07:32:15Z</time></trkpt><trkpt lat="46.6302167159" lon="12.3018659838"><ele>2215.01</ele><time>2013-07-23T07:32:19Z</time></trkpt><trkpt lat="46.6302530095" lon="12.3019506410"><ele>2212.13</ele><time>2013-07-23T07:32:29Z</time></trkpt><trkpt lat="46.6302634031" lon="12.3020182829"><ele>2210.21</ele><time>2013-07-23T07:32:37Z</time></trkpt><trkpt lat="46.6302675102" lon="12.3021104001"><ele>2207.32</ele><time>2013-07-23T07:32:47Z</time></trkpt><trkpt lat="46.6302872915" lon="12.3021882679"><ele>2205.88</ele><time>2013-07-23T07:32:56Z</time></trkpt><trkpt lat="46.6302958410" lon="12.3022214603"><ele>2203.48</ele><time>2013-07-23T07:33:05Z</time></trkpt><trkpt lat="46.6303192265" lon="12.3023382202"><ele>2199.63</ele><time>2013-07-23T07:33:17Z</time></trkpt><trkpt lat="46.6303240042" lon="12.3023802973"><ele>2199.63</ele><time>2013-07-23T07:33:21Z</time></trkpt><trkpt lat="46.6303488147" lon="12.3024473526"><ele>2197.23</ele><time>2013-07-23T07:33:27Z</time></trkpt><trkpt lat="46.6303644050" lon="12.3024980631"><ele>2196.27</ele><time>2013-07-23T07:33:31Z</time></trkpt><trkpt lat="46.6303827614" lon="12.3025999870"><ele>2195.31</ele><time>2013-07-23T07:33:37Z</time></trkpt><trkpt lat="46.6303966753" lon="12.3026408907"><ele>2193.87</ele><time>2013-07-23T07:33:40Z</time></trkpt><trkpt lat="46.6303592082" lon="12.3028014880"><ele>2192.42</ele><time>2013-07-23T07:33:50Z</time></trkpt><trkpt lat="46.6303440370" lon="12.3029237799"><ele>2189.54</ele><time>2013-07-23T07:33:58Z</time></trkpt><trkpt lat="46.6303498205" lon="12.3031031527"><ele>2187.14</ele><time>2013-07-23T07:34:09Z</time></trkpt><trkpt lat="46.6303504910" lon="12.3031863850"><ele>2185.21</ele><time>2013-07-23T07:34:15Z</time></trkpt><trkpt lat="46.6303643212" lon="12.3032282945"><ele>2184.73</ele><time>2013-07-23T07:34:18Z</time></trkpt><trkpt lat="46.6304342262" lon="12.3033971060"><ele>2182.81</ele><time>2013-07-23T07:34:28Z</time></trkpt><trkpt lat="46.6305262595" lon="12.3035035562"><ele>2183.29</ele><time>2013-07-23T07:34:36Z</time></trkpt><trkpt lat="46.6305564344" lon="12.3035680130"><ele>2183.29</ele><time>2013-07-23T07:34:41Z</time></trkpt><trkpt lat="46.6305769701" lon="12.3035899736"><ele>2183.29</ele><time>2013-07-23T07:34:44Z</time></trkpt><trkpt lat="46.6306165326" lon="12.3036429472"><ele>2183.29</ele><time>2013-07-23T07:34:48Z</time></trkpt><trkpt lat="46.6306564305" lon="12.3037090804"><ele>2183.77</ele><time>2013-07-23T07:34:53Z</time></trkpt><trkpt lat="46.6306849290" lon="12.3037494812"><ele>2183.77</ele><time>2013-07-23T07:34:56Z</time></trkpt><trkpt lat="46.6307236534" lon="12.3038118426"><ele>2183.77</ele><time>2013-07-23T07:35:00Z</time></trkpt><trkpt lat="46.6307582706" lon="12.3038850166"><ele>2183.77</ele><time>2013-07-23T07:35:05Z</time></trkpt><trkpt lat="46.6307944804" lon="12.3039150238"><ele>2183.77</ele><time>2013-07-23T07:35:08Z</time></trkpt><trkpt lat="46.6308176145" lon="12.3039721046"><ele>2184.25</ele><time>2013-07-23T07:35:11Z</time></trkpt><trkpt lat="46.6308728512" lon="12.3040183727"><ele>2184.25</ele><time>2013-07-23T07:35:16Z</time></trkpt><trkpt lat="46.6309048701" lon="12.3040521517"><ele>2184.25</ele><time>2013-07-23T07:35:19Z</time></trkpt><trkpt lat="46.6309598554" lon="12.3040914629"><ele>2184.25</ele><time>2013-07-23T07:35:24Z</time></trkpt><trkpt lat="46.6309797205" lon="12.3041155189"><ele>2184.25</ele><time>2013-07-23T07:35:32Z</time></trkpt><trkpt lat="46.6309797205" lon="12.3041155189"><ele>2183.29</ele><time>2013-07-23T07:35:48Z</time></trkpt><trkpt lat="46.6309784632" lon="12.3041183688"><ele>2183.77</ele><time>2013-07-23T07:36:00Z</time></trkpt><trkpt lat="46.6309784632" lon="12.3041183688"><ele>2184.25</ele><time>2013-07-23T07:36:24Z</time></trkpt><trkpt lat="46.6309741046" lon="12.3041309416"><ele>2183.77</ele><time>2013-07-23T07:36:29Z</time></trkpt><trkpt lat="46.6309980769" lon="12.3041088972"><ele>2183.77</ele><time>2013-07-23T07:36:31Z</time></trkpt><trkpt lat="46.6310837399" lon="12.3042016849"><ele>2183.29</ele><time>2013-07-23T07:36:41Z</time></trkpt><trkpt lat="46.6311673075" lon="12.3042212985"><ele>2184.25</ele><time>2013-07-23T07:36:48Z</time></trkpt><trkpt lat="46.6311876755" lon="12.3042398226"><ele>2184.73</ele><time>2013-07-23T07:36:53Z</time></trkpt><trkpt lat="46.6311968956" lon="12.3042303510"><ele>2185.21</ele><time>2013-07-23T07:36:55Z</time></trkpt><trkpt lat="46.6312590893" lon="12.3041745275"><ele>2187.62</ele><time>2013-07-23T07:37:06Z</time></trkpt><trkpt lat="46.6313467640" lon="12.3042140901"><ele>2189.06</ele><time>2013-07-23T07:37:16Z</time></trkpt><trkpt lat="46.6313696466" lon="12.3042233102"><ele>2189.06</ele><time>2013-07-23T07:37:18Z</time></trkpt><trkpt lat="46.6313851532" lon="12.3042169400"><ele>2190.50</ele><time>2013-07-23T07:37:20Z</time></trkpt><trkpt lat="46.6315101273" lon="12.3042123299"><ele>2190.50</ele><time>2013-07-23T07:37:31Z</time></trkpt><trkpt lat="46.6315876599" lon="12.3042324465"><ele>2191.46</ele><time>2013-07-23T07:37:39Z</time></trkpt><trkpt lat="46.6316752508" lon="12.3042316921"><ele>2191.94</ele><time>2013-07-23T07:37:46Z</time></trkpt><trkpt lat="46.6317335051" lon="12.3042427562"><ele>2192.90</ele><time>2013-07-23T07:37:51Z</time></trkpt><trkpt lat="46.6317818686" lon="12.3042061273"><ele>2193.39</ele><time>2013-07-23T07:37:58Z</time></trkpt><trkpt lat="46.6318813618" lon="12.3041166924"><ele>2193.87</ele><time>2013-07-23T07:38:08Z</time></trkpt><trkpt lat="46.6319386940" lon="12.3040528223"><ele>2194.35</ele><time>2013-07-23T07:38:14Z</time></trkpt><trkpt lat="46.6319758259" lon="12.3040956538"><ele>2195.79</ele><time>2013-07-23T07:38:23Z</time></trkpt><trkpt lat="46.6319615766" lon="12.3041191231"><ele>2196.27</ele><time>2013-07-23T07:38:25Z</time></trkpt><trkpt lat="46.6318995506" lon="12.3042069655"><ele>2196.75</ele><time>2013-07-23T07:38:32Z</time></trkpt><trkpt lat="46.6318479180" lon="12.3043192830"><ele>2198.19</ele><time>2013-07-23T07:38:43Z</time></trkpt><trkpt lat="46.6318335012" lon="12.3043367174"><ele>2198.19</ele><time>2013-07-23T07:38:45Z</time></trkpt><trkpt lat="46.6318101995" lon="12.3043965641"><ele>2198.67</ele><time>2013-07-23T07:38:50Z</time></trkpt><trkpt lat="46.6318067629" lon="12.3044210393"><ele>2198.67</ele><time>2013-07-23T07:38:52Z</time></trkpt><trkpt lat="46.6317668650" lon="12.3045201972"><ele>2200.59</ele><time>2013-07-23T07:39:04Z</time></trkpt><trkpt lat="46.6317289788" lon="12.3046100512"><ele>2203.00</ele><time>2013-07-23T07:39:16Z</time></trkpt><trkpt lat="46.6316946968" lon="12.3046894278"><ele>2204.92</ele><time>2013-07-23T07:39:26Z</time></trkpt><trkpt lat="46.6316391248" lon="12.3047602549"><ele>2205.88</ele><time>2013-07-23T07:39:37Z</time></trkpt><trkpt lat="46.6315885819" lon="12.3048504442"><ele>2207.81</ele><time>2013-07-23T07:39:48Z</time></trkpt><trkpt lat="46.6315439064" lon="12.3049072735"><ele>2209.25</ele><time>2013-07-23T07:39:58Z</time></trkpt><trkpt lat="46.6314729955" lon="12.3049809504"><ele>2211.17</ele><time>2013-07-23T07:40:10Z</time></trkpt><trkpt lat="46.6314293258" lon="12.3050501011"><ele>2212.61</ele><time>2013-07-23T07:40:21Z</time></trkpt><trkpt lat="46.6313740890" lon="12.3051215149"><ele>2214.53</ele><time>2013-07-23T07:40:32Z</time></trkpt><trkpt lat="46.6313357837" lon="12.3051834572"><ele>2215.98</ele><time>2013-07-23T07:40:44Z</time></trkpt><trkpt lat="46.6312976461" lon="12.3052417953"><ele>2217.90</ele><time>2013-07-23T07:40:55Z</time></trkpt><trkpt lat="46.6312800441" lon="12.3052829504"><ele>2219.34</ele><time>2013-07-23T07:41:08Z</time></trkpt><trkpt lat="46.6312467679" lon="12.3053615727"><ele>2221.26</ele><time>2013-07-23T07:41:20Z</time></trkpt><trkpt lat="46.6312467679" lon="12.3053615727"><ele>2221.26</ele><time>2013-07-23T07:41:33Z</time></trkpt><trkpt lat="46.6312123183" lon="12.3054228444"><ele>2222.22</ele><time>2013-07-23T07:41:44Z</time></trkpt><trkpt lat="46.6311620269" lon="12.3054894805"><ele>2224.15</ele><time>2013-07-23T07:41:54Z</time></trkpt><trkpt lat="46.6311077960" lon="12.3055520095"><ele>2225.59</ele><time>2013-07-23T07:42:05Z</time></trkpt><trkpt lat="46.6310598515" lon="12.3056350742"><ele>2227.51</ele><time>2013-07-23T07:42:14Z</time></trkpt><trkpt lat="46.6310306825" lon="12.3056766484"><ele>2228.95</ele><time>2013-07-23T07:42:25Z</time></trkpt><trkpt lat="46.6310162656" lon="12.3057366628"><ele>2230.88</ele><time>2013-07-23T07:42:35Z</time></trkpt><trkpt lat="46.6309960652" lon="12.3057723697"><ele>2232.32</ele><time>2013-07-23T07:42:44Z</time></trkpt><trkpt lat="46.6309834924" lon="12.3058059812"><ele>2233.28</ele><time>2013-07-23T07:42:53Z</time></trkpt><trkpt lat="46.6309223883" lon="12.3059110064"><ele>2235.68</ele><time>2013-07-23T07:43:02Z</time></trkpt><trkpt lat="46.6309443489" lon="12.3059308715"><ele>2236.64</ele><time>2013-07-23T07:43:11Z</time></trkpt><trkpt lat="46.6309616994" lon="12.3059601244"><ele>2238.57</ele><time>2013-07-23T07:43:21Z</time></trkpt><trkpt lat="46.6309645493" lon="12.3059880361"><ele>2239.53</ele><time>2013-07-23T07:43:30Z</time></trkpt><trkpt lat="46.6309558321" lon="12.3060467932"><ele>2240.97</ele><time>2013-07-23T07:43:39Z</time></trkpt><trkpt lat="46.6309445165" lon="12.3061027005"><ele>2241.93</ele><time>2013-07-23T07:43:48Z</time></trkpt><trkpt lat="46.6309088934" lon="12.3061820772"><ele>2242.89</ele><time>2013-07-23T07:43:57Z</time></trkpt><trkpt lat="46.6308796406" lon="12.3062366433"><ele>2244.82</ele><time>2013-07-23T07:44:06Z</time></trkpt><trkpt lat="46.6308469512" lon="12.3063254077"><ele>2245.30</ele><time>2013-07-23T07:44:15Z</time></trkpt><trkpt lat="46.6308486275" lon="12.3064218834"><ele>2246.26</ele><time>2013-07-23T07:44:24Z</time></trkpt><trkpt lat="46.6308596078" lon="12.3064859211"><ele>2247.22</ele><time>2013-07-23T07:44:33Z</time></trkpt><trkpt lat="46.6308797244" lon="12.3064869270"><ele>2248.66</ele><time>2013-07-23T07:44:43Z</time></trkpt><trkpt lat="46.6309119947" lon="12.3065124918"><ele>2250.10</ele><time>2013-07-23T07:44:51Z</time></trkpt><trkpt lat="46.6309192032" lon="12.3065709136"><ele>2251.54</ele><time>2013-07-23T07:45:00Z</time></trkpt><trkpt lat="46.6309277527" lon="12.3066293355"><ele>2252.99</ele><time>2013-07-23T07:45:09Z</time></trkpt><trkpt lat="46.6309789661" lon="12.3066284973"><ele>2254.43</ele><time>2013-07-23T07:45:19Z</time></trkpt><trkpt lat="46.6310007591" lon="12.3066077102"><ele>2254.91</ele><time>2013-07-23T07:45:23Z</time></trkpt><trkpt lat="46.6310331970" lon="12.3065947182"><ele>2254.91</ele><time>2013-07-23T07:45:26Z</time></trkpt><trkpt lat="46.6310560796" lon="12.3065967299"><ele>2254.91</ele><time>2013-07-23T07:45:28Z</time></trkpt><trkpt lat="46.6311448440" lon="12.3065643758"><ele>2254.43</ele><time>2013-07-23T07:45:38Z</time></trkpt><trkpt lat="46.6311580036" lon="12.3065710813"><ele>2254.43</ele><time>2013-07-23T07:45:39Z</time></trkpt><trkpt lat="46.6312708240" lon="12.3065034393"><ele>2254.91</ele><time>2013-07-23T07:45:51Z</time></trkpt><trkpt lat="46.6313446686" lon="12.3064943869"><ele>2253.95</ele><time>2013-07-23T07:46:00Z</time></trkpt><trkpt lat="46.6314268112" lon="12.3065288365"><ele>2252.51</ele><time>2013-07-23T07:46:08Z</time></trkpt><trkpt lat="46.6314979736" lon="12.3065810557"><ele>2252.03</ele><time>2013-07-23T07:46:15Z</time></trkpt><trkpt lat="46.6315818764" lon="12.3066552356"><ele>2250.58</ele><time>2013-07-23T07:46:23Z</time></trkpt><trkpt lat="46.6316128895" lon="12.3066625278"><ele>2250.10</ele><time>2013-07-23T07:46:27Z</time></trkpt><trkpt lat="46.6316399630" lon="12.3066728376"><ele>2249.62</ele><time>2013-07-23T07:46:30Z</time></trkpt><trkpt lat="46.6316638514" lon="12.3066839017"><ele>2249.62</ele><time>2013-07-23T07:46:32Z</time></trkpt><trkpt lat="46.6317852214" lon="12.3066637851"><ele>2249.62</ele><time>2013-07-23T07:46:42Z</time></trkpt><trkpt lat="46.6318232752" lon="12.3066774476"><ele>2250.10</ele><time>2013-07-23T07:46:46Z</time></trkpt><trkpt lat="46.6318842955" lon="12.3067590874"><ele>2251.06</ele><time>2013-07-23T07:46:54Z</time></trkpt><trkpt lat="46.6319321562" lon="12.3068325128"><ele>2250.58</ele><time>2013-07-23T07:46:59Z</time></trkpt><trkpt lat="46.6320433002" lon="12.3068750929"><ele>2250.58</ele><time>2013-07-23T07:47:09Z</time></trkpt><trkpt lat="46.6321049910" lon="12.3070209380"><ele>2252.03</ele><time>2013-07-23T07:47:19Z</time></trkpt><trkpt lat="46.6321142949" lon="12.3070752528"><ele>2252.99</ele><time>2013-07-23T07:47:26Z</time></trkpt><trkpt lat="46.6321591381" lon="12.3071616702"><ele>2254.91</ele><time>2013-07-23T07:47:38Z</time></trkpt><trkpt lat="46.6321961861" lon="12.3071915936"><ele>2256.83</ele><time>2013-07-23T07:47:46Z</time></trkpt><trkpt lat="46.6322141234" lon="12.3072102014"><ele>2258.27</ele><time>2013-07-23T07:47:56Z</time></trkpt><trkpt lat="46.6322588827" lon="12.3072143923"><ele>2259.24</ele><time>2013-07-23T07:48:07Z</time></trkpt><trkpt lat="46.6322927456" lon="12.3072356824"><ele>2261.16</ele><time>2013-07-23T07:48:15Z</time></trkpt><trkpt lat="46.6323483177" lon="12.3072006460"><ele>2262.60</ele><time>2013-07-23T07:48:27Z</time></trkpt><trkpt lat="46.6323875450" lon="12.3071983829"><ele>2264.04</ele><time>2013-07-23T07:48:38Z</time></trkpt><trkpt lat="46.6324091703" lon="12.3071875703"><ele>2265.48</ele><time>2013-07-23T07:48:53Z</time></trkpt><trkpt lat="46.6324352380" lon="12.3071300704"><ele>2266.45</ele><time>2013-07-23T07:49:01Z</time></trkpt><trkpt lat="46.6324502416" lon="12.3071586527"><ele>2267.89</ele><time>2013-07-23T07:49:09Z</time></trkpt><trkpt lat="46.6324264370" lon="12.3072896618"><ele>2268.85</ele><time>2013-07-23T07:49:21Z</time></trkpt><trkpt lat="46.6324025486" lon="12.3073800188"><ele>2270.77</ele><time>2013-07-23T07:49:33Z</time></trkpt><trkpt lat="46.6323668417" lon="12.3074578866"><ele>2273.17</ele><time>2013-07-23T07:49:45Z</time></trkpt><trkpt lat="46.6323132813" lon="12.3075242713"><ele>2274.14</ele><time>2013-07-23T07:49:57Z</time></trkpt><trkpt lat="46.6322758142" lon="12.3075814359"><ele>2276.06</ele><time>2013-07-23T07:50:08Z</time></trkpt><trkpt lat="46.6322404426" lon="12.3076443002"><ele>2277.50</ele><time>2013-07-23T07:50:18Z</time></trkpt><trkpt lat="46.6322429571" lon="12.3076849524"><ele>2278.94</ele><time>2013-07-23T07:50:28Z</time></trkpt><trkpt lat="46.6322440468" lon="12.3076818511"><ele>2279.90</ele><time>2013-07-23T07:50:36Z</time></trkpt><trkpt lat="46.6322917398" lon="12.3076961003"><ele>2281.35</ele><time>2013-07-23T07:50:45Z</time></trkpt><trkpt lat="46.6323367506" lon="12.3076951783"><ele>2282.79</ele><time>2013-07-23T07:50:54Z</time></trkpt><trkpt lat="46.6323690210" lon="12.3077118583"><ele>2283.75</ele><time>2013-07-23T07:51:02Z</time></trkpt><trkpt lat="46.6323690210" lon="12.3077118583"><ele>2284.23</ele><time>2013-07-23T07:51:17Z</time></trkpt><trkpt lat="46.6323857009" lon="12.3077158816"><ele>2285.67</ele><time>2013-07-23T07:51:27Z</time></trkpt><trkpt lat="46.6323938314" lon="12.3077082541"><ele>2286.15</ele><time>2013-07-23T07:51:30Z</time></trkpt><trkpt lat="46.6324616410" lon="12.3076856229"><ele>2288.08</ele><time>2013-07-23T07:51:39Z</time></trkpt><trkpt lat="46.6324722022" lon="12.3077212460"><ele>2289.04</ele><time>2013-07-23T07:51:49Z</time></trkpt><trkpt lat="46.6324545164" lon="12.3077780753"><ele>2290.96</ele><time>2013-07-23T07:52:01Z</time></trkpt><trkpt lat="46.6324178036" lon="12.3078347370"><ele>2292.88</ele><time>2013-07-23T07:52:13Z</time></trkpt><trkpt lat="46.6324279457" lon="12.3078297917"><ele>2294.32</ele><time>2013-07-23T07:52:23Z</time></trkpt><trkpt lat="46.6324856970" lon="12.3078516684"><ele>2295.77</ele><time>2013-07-23T07:52:35Z</time></trkpt><trkpt lat="46.6325222421" lon="12.3078295402"><ele>2297.69</ele><time>2013-07-23T07:52:45Z</time></trkpt><trkpt lat="46.6325422749" lon="12.3078247625"><ele>2298.17</ele><time>2013-07-23T07:52:58Z</time></trkpt><trkpt lat="46.6325962543" lon="12.3078364134"><ele>2299.13</ele><time>2013-07-23T07:53:07Z</time></trkpt><trkpt lat="46.6326246690" lon="12.3077941686"><ele>2300.57</ele><time>2013-07-23T07:53:15Z</time></trkpt><trkpt lat="46.6326810792" lon="12.3077661730"><ele>2302.01</ele><time>2013-07-23T07:53:25Z</time></trkpt><trkpt lat="46.6327296942" lon="12.3077813443"><ele>2303.46</ele><time>2013-07-23T07:53:34Z</time></trkpt><trkpt lat="46.6327656526" lon="12.3077119421"><ele>2304.90</ele><time>2013-07-23T07:53:45Z</time></trkpt><trkpt lat="46.6328317020" lon="12.3076433782"><ele>2305.86</ele><time>2013-07-23T07:53:57Z</time></trkpt><trkpt lat="46.6329054628" lon="12.3076150473"><ele>2306.82</ele><time>2013-07-23T07:54:07Z</time></trkpt><trkpt lat="46.6329782177" lon="12.3076414503"><ele>2308.74</ele><time>2013-07-23T07:54:18Z</time></trkpt><trkpt lat="46.6330034472" lon="12.3076617345"><ele>2309.22</ele><time>2013-07-23T07:54:29Z</time></trkpt><trkpt lat="46.6330431774" lon="12.3076860420"><ele>2309.70</ele><time>2013-07-23T07:54:45Z</time></trkpt><trkpt lat="46.6330510564" lon="12.3076909035"><ele>2309.70</ele><time>2013-07-23T07:54:46Z</time></trkpt><trkpt lat="46.6331471968" lon="12.3077104334"><ele>2310.19</ele><time>2013-07-23T07:54:54Z</time></trkpt><trkpt lat="46.6331959795" lon="12.3077798355"><ele>2310.19</ele><time>2013-07-23T07:54:59Z</time></trkpt><trkpt lat="46.6332904436" lon="12.3077832721"><ele>2310.67</ele><time>2013-07-23T07:55:08Z</time></trkpt><trkpt lat="46.6333219595" lon="12.3078003712"><ele>2311.15</ele><time>2013-07-23T07:55:11Z</time></trkpt><trkpt lat="46.6333454289" lon="12.3078548536"><ele>2311.15</ele><time>2013-07-23T07:55:15Z</time></trkpt><trkpt lat="46.6333989054" lon="12.3079854436"><ele>2311.63</ele><time>2013-07-23T07:55:26Z</time></trkpt><trkpt lat="46.6334890109" lon="12.3080343101"><ele>2312.11</ele><time>2013-07-23T07:55:35Z</time></trkpt><trkpt lat="46.6335450020" lon="12.3080689274"><ele>2313.07</ele><time>2013-07-23T07:55:42Z</time></trkpt><trkpt lat="46.6336637735" lon="12.3080416862"><ele>2313.07</ele><time>2013-07-23T07:55:54Z</time></trkpt><trkpt lat="46.6337554716" lon="12.3080220725"><ele>2311.15</ele><time>2013-07-23T07:56:03Z</time></trkpt><trkpt lat="46.6337740794" lon="12.3080292810"><ele>2311.63</ele><time>2013-07-23T07:56:05Z</time></trkpt><trkpt lat="46.6338580661" lon="12.3080693465"><ele>2311.63</ele><time>2013-07-23T07:56:14Z</time></trkpt><trkpt lat="46.6339046694" lon="12.3081733659"><ele>2313.55</ele><time>2013-07-23T07:56:25Z</time></trkpt><trkpt lat="46.6339266300" lon="12.3082219809"><ele>2314.51</ele><time>2013-07-23T07:56:31Z</time></trkpt><trkpt lat="46.6339453217" lon="12.3082602862"><ele>2314.03</ele><time>2013-07-23T07:56:34Z</time></trkpt><trkpt lat="46.6340070125" lon="12.3083543312"><ele>2314.03</ele><time>2013-07-23T07:56:42Z</time></trkpt><trkpt lat="46.6340968665" lon="12.3084827419"><ele>2314.51</ele><time>2013-07-23T07:56:52Z</time></trkpt><trkpt lat="46.6341474932" lon="12.3085585143"><ele>2315.95</ele><time>2013-07-23T07:57:01Z</time></trkpt><trkpt lat="46.6341595631" lon="12.3085776251"><ele>2315.47</ele><time>2013-07-23T07:57:03Z</time></trkpt><trkpt lat="46.6342756525" lon="12.3086661380"><ele>2315.95</ele><time>2013-07-23T07:57:16Z</time></trkpt><trkpt lat="46.6343606450" lon="12.3087178543"><ele>2317.88</ele><time>2013-07-23T07:57:28Z</time></trkpt><trkpt lat="46.6344207432" lon="12.3087310977"><ele>2319.80</ele><time>2013-07-23T07:57:38Z</time></trkpt><trkpt lat="46.6344820149" lon="12.3087259848"><ele>2320.76</ele><time>2013-07-23T07:57:47Z</time></trkpt><trkpt lat="46.6344992816" lon="12.3087853286"><ele>2322.68</ele><time>2013-07-23T07:57:56Z</time></trkpt><trkpt lat="46.6345313843" lon="12.3088568263"><ele>2324.61</ele><time>2013-07-23T07:58:07Z</time></trkpt><trkpt lat="46.6345799156" lon="12.3088745959"><ele>2325.57</ele><time>2013-07-23T07:58:16Z</time></trkpt><trkpt lat="46.6345833521" lon="12.3088763561"><ele>2325.57</ele><time>2013-07-23T07:58:17Z</time></trkpt><trkpt lat="46.6346252616" lon="12.3088920303"><ele>2326.05</ele><time>2013-07-23T07:58:27Z</time></trkpt><trkpt lat="46.6346435342" lon="12.3089707363"><ele>2326.53</ele><time>2013-07-23T07:58:38Z</time></trkpt><trkpt lat="46.6346463002" lon="12.3089959659"><ele>2326.05</ele><time>2013-07-23T07:58:40Z</time></trkpt><trkpt lat="46.6346422769" lon="12.3090469278"><ele>2327.01</ele><time>2013-07-23T07:58:43Z</time></trkpt><trkpt lat="46.6346652433" lon="12.3091837205"><ele>2327.01</ele><time>2013-07-23T07:58:52Z</time></trkpt><trkpt lat="46.6347035486" lon="12.3093469162"><ele>2327.01</ele><time>2013-07-23T07:59:03Z</time></trkpt><trkpt lat="46.6347111762" lon="12.3093767557"><ele>2326.53</ele><time>2013-07-23T07:59:05Z</time></trkpt><trkpt lat="46.6346579511" lon="12.3095370177"><ele>2327.01</ele><time>2013-07-23T07:59:15Z</time></trkpt><trkpt lat="46.6346515808" lon="12.3096810188"><ele>2327.49</ele><time>2013-07-23T07:59:23Z</time></trkpt><trkpt lat="46.6346262675" lon="12.3098659236"><ele>2328.93</ele><time>2013-07-23T07:59:35Z</time></trkpt><trkpt lat="46.6345973499" lon="12.3100082483"><ele>2330.85</ele><time>2013-07-23T07:59:47Z</time></trkpt><trkpt lat="46.6345878784" lon="12.3101317976"><ele>2331.81</ele><time>2013-07-23T07:59:58Z</time></trkpt><trkpt lat="46.6345877107" lon="12.3102086596"><ele>2333.26</ele><time>2013-07-23T08:00:06Z</time></trkpt><trkpt lat="46.6345933266" lon="12.3102723621"><ele>2335.18</ele><time>2013-07-23T08:00:17Z</time></trkpt><trkpt lat="46.6345895547" lon="12.3103529122"><ele>2336.14</ele><time>2013-07-23T08:00:27Z</time></trkpt><trkpt lat="46.6345922370" lon="12.3104254995"><ele>2337.58</ele><time>2013-07-23T08:00:37Z</time></trkpt><trkpt lat="46.6345965117" lon="12.3104883637"><ele>2339.02</ele><time>2013-07-23T08:00:49Z</time></trkpt><trkpt lat="46.6346026305" lon="12.3105340451"><ele>2340.47</ele><time>2013-07-23T08:00:58Z</time></trkpt><trkpt lat="46.6346149519" lon="12.3106492963"><ele>2341.91</ele><time>2013-07-23T08:01:08Z</time></trkpt><trkpt lat="46.6346387565" lon="12.3107376415"><ele>2342.87</ele><time>2013-07-23T08:01:15Z</time></trkpt><trkpt lat="46.6346595436" lon="12.3107909504"><ele>2343.35</ele><time>2013-07-23T08:01:20Z</time></trkpt><trkpt lat="46.6346696857" lon="12.3108394817"><ele>2344.31</ele><time>2013-07-23T08:01:24Z</time></trkpt><trkpt lat="46.6346860304" lon="12.3108891863"><ele>2344.79</ele><time>2013-07-23T08:01:31Z</time></trkpt><trkpt lat="46.6346897185" lon="12.3109150026"><ele>2345.27</ele><time>2013-07-23T08:01:33Z</time></trkpt><trkpt lat="46.6346965078" lon="12.3109826446"><ele>2346.23</ele><time>2013-07-23T08:01:44Z</time></trkpt><trkpt lat="46.6347020399" lon="12.3110307567"><ele>2347.20</ele><time>2013-07-23T08:01:54Z</time></trkpt><trkpt lat="46.6347032133" lon="12.3110903520"><ele>2348.16</ele><time>2013-07-23T08:02:06Z</time></trkpt><trkpt lat="46.6347410157" lon="12.3111052718"><ele>2350.56</ele><time>2013-07-23T08:02:17Z</time></trkpt><trkpt lat="46.6347424407" lon="12.3110994883"><ele>2350.08</ele><time>2013-07-23T08:02:18Z</time></trkpt><trkpt lat="46.6347569413" lon="12.3110615183"><ele>2351.52</ele><time>2013-07-23T08:02:28Z</time></trkpt><trkpt lat="46.6347631440" lon="12.3110560700"><ele>2351.52</ele><time>2013-07-23T08:02:30Z</time></trkpt><trkpt lat="46.6348273493" lon="12.3110101372"><ele>2352.96</ele><time>2013-07-23T08:02:40Z</time></trkpt><trkpt lat="46.6348566860" lon="12.3109782860"><ele>2353.93</ele><time>2013-07-23T08:02:49Z</time></trkpt><trkpt lat="46.6348607931" lon="12.3109875899"><ele>2353.44</ele><time>2013-07-23T08:03:02Z</time></trkpt><trkpt lat="46.6348607931" lon="12.3109875899"><ele>2353.44</ele><time>2013-07-23T08:03:17Z</time></trkpt><trkpt lat="46.6348607931" lon="12.3109875899"><ele>2353.93</ele><time>2013-07-23T08:03:27Z</time></trkpt><trkpt lat="46.6349460371" lon="12.3109601811"><ele>2355.37</ele><time>2013-07-23T08:03:37Z</time></trkpt><trkpt lat="46.6350190435" lon="12.3109438363"><ele>2357.29</ele><time>2013-07-23T08:03:49Z</time></trkpt><trkpt lat="46.6350406688" lon="12.3109792918"><ele>2358.25</ele><time>2013-07-23T08:03:58Z</time></trkpt><trkpt lat="46.6350307781" lon="12.3110384680"><ele>2359.21</ele><time>2013-07-23T08:04:08Z</time></trkpt><trkpt lat="46.6350291017" lon="12.3110932857"><ele>2360.65</ele><time>2013-07-23T08:04:18Z</time></trkpt><trkpt lat="46.6350264195" lon="12.3111688904"><ele>2362.10</ele><time>2013-07-23T08:04:31Z</time></trkpt><trkpt lat="46.6349961609" lon="12.3112035077"><ele>2363.54</ele><time>2013-07-23T08:04:41Z</time></trkpt><trkpt lat="46.6350399982" lon="12.3112379573"><ele>2365.46</ele><time>2013-07-23T08:04:50Z</time></trkpt><trkpt lat="46.6350610368" lon="12.3112314194"><ele>2366.42</ele><time>2013-07-23T08:04:59Z</time></trkpt><trkpt lat="46.6351017728" lon="12.3112036753"><ele>2367.86</ele><time>2013-07-23T08:05:09Z</time></trkpt><trkpt lat="46.6351377312" lon="12.3111711536"><ele>2369.31</ele><time>2013-07-23T08:05:19Z</time></trkpt><trkpt lat="46.6351416707" lon="12.3112129793"><ele>2370.75</ele><time>2013-07-23T08:05:29Z</time></trkpt><trkpt lat="46.6351637151" lon="12.3112643603"><ele>2372.19</ele><time>2013-07-23T08:05:39Z</time></trkpt><trkpt lat="46.6351793893" lon="12.3112507816"><ele>2372.67</ele><time>2013-07-23T08:05:46Z</time></trkpt><trkpt lat="46.6351856757" lon="12.3112167511"><ele>2374.11</ele><time>2013-07-23T08:05:55Z</time></trkpt><trkpt lat="46.6352058761" lon="12.3111616820"><ele>2376.04</ele><time>2013-07-23T08:06:07Z</time></trkpt><trkpt lat="46.6352425050" lon="12.3110881727"><ele>2376.52</ele><time>2013-07-23T08:06:18Z</time></trkpt><trkpt lat="46.6352410801" lon="12.3110530525"><ele>2377.48</ele><time>2013-07-23T08:06:28Z</time></trkpt><trkpt lat="46.6352845822" lon="12.3110364564"><ele>2377.96</ele><time>2013-07-23T08:06:41Z</time></trkpt><trkpt lat="46.6352948919" lon="12.3110832274"><ele>2379.40</ele><time>2013-07-23T08:06:50Z</time></trkpt><trkpt lat="46.6353148408" lon="12.3111362010"><ele>2380.84</ele><time>2013-07-23T08:06:58Z</time></trkpt><trkpt lat="46.6353098955" lon="12.3112076987"><ele>2381.80</ele><time>2013-07-23T08:07:07Z</time></trkpt><trkpt lat="46.6353412438" lon="12.3111866601"><ele>2383.25</ele><time>2013-07-23T08:07:15Z</time></trkpt><trkpt lat="46.6353865061" lon="12.3111057747"><ele>2384.21</ele><time>2013-07-23T08:07:27Z</time></trkpt><trkpt lat="46.6354429163" lon="12.3110513762"><ele>2385.65</ele><time>2013-07-23T08:07:38Z</time></trkpt><trkpt lat="46.6355060320" lon="12.3109743465"><ele>2387.09</ele><time>2013-07-23T08:07:49Z</time></trkpt><trkpt lat="46.6355559044" lon="12.3109334428"><ele>2390.46</ele><time>2013-07-23T08:08:01Z</time></trkpt><trkpt lat="46.6355590895" lon="12.3109381367"><ele>2390.46</ele><time>2013-07-23T08:08:04Z</time></trkpt><trkpt lat="46.6356049385" lon="12.3110420723"><ele>2391.42</ele><time>2013-07-23T08:08:15Z</time></trkpt><trkpt lat="46.6356660426" lon="12.3110433295"><ele>2392.38</ele><time>2013-07-23T08:08:25Z</time></trkpt><trkpt lat="46.6357047670" lon="12.3110353667"><ele>2392.86</ele><time>2013-07-23T08:08:36Z</time></trkpt><trkpt lat="46.6357703134" lon="12.3110160884"><ele>2393.82</ele><time>2013-07-23T08:08:45Z</time></trkpt><trkpt lat="46.6358329263" lon="12.3110131547"><ele>2395.26</ele><time>2013-07-23T08:08:55Z</time></trkpt><trkpt lat="46.6358465888" lon="12.3110119812"><ele>2395.74</ele><time>2013-07-23T08:08:57Z</time></trkpt><trkpt lat="46.6359366104" lon="12.3110533040"><ele>2395.26</ele><time>2013-07-23T08:09:07Z</time></trkpt><trkpt lat="46.6360309068" lon="12.3110631946"><ele>2394.30</ele><time>2013-07-23T08:09:16Z</time></trkpt><trkpt lat="46.6361181624" lon="12.3110771086"><ele>2393.82</ele><time>2013-07-23T08:09:23Z</time></trkpt><trkpt lat="46.6361494269" lon="12.3110767733"><ele>2394.30</ele><time>2013-07-23T08:09:26Z</time></trkpt><trkpt lat="46.6361735668" lon="12.3110890947"><ele>2393.82</ele><time>2013-07-23T08:09:28Z</time></trkpt><trkpt lat="46.6362439748" lon="12.3110978957"><ele>2393.82</ele><time>2013-07-23T08:09:34Z</time></trkpt><trkpt lat="46.6363443062" lon="12.3110623565"><ele>2395.26</ele><time>2013-07-23T08:09:44Z</time></trkpt><trkpt lat="46.6364202462" lon="12.3109821416"><ele>2397.18</ele><time>2013-07-23T08:09:55Z</time></trkpt><trkpt lat="46.6364737228" lon="12.3109517153"><ele>2396.70</ele><time>2013-07-23T08:10:01Z</time></trkpt><trkpt lat="46.6365409456" lon="12.3109119013"><ele>2399.11</ele><time>2013-07-23T08:10:11Z</time></trkpt><trkpt lat="46.6365654208" lon="12.3109637853"><ele>2400.07</ele><time>2013-07-23T08:10:18Z</time></trkpt><trkpt lat="46.6365582123" lon="12.3110429104"><ele>2401.51</ele><time>2013-07-23T08:10:26Z</time></trkpt><trkpt lat="46.6365633253" lon="12.3110754322"><ele>2401.99</ele><time>2013-07-23T08:10:30Z</time></trkpt><trkpt lat="46.6365758143" lon="12.3110895138"><ele>2402.47</ele><time>2013-07-23T08:10:33Z</time></trkpt><trkpt lat="46.6366363317" lon="12.3110372107"><ele>2403.43</ele><time>2013-07-23T08:10:44Z</time></trkpt><trkpt lat="46.6366899759" lon="12.3109717481"><ele>2403.91</ele><time>2013-07-23T08:10:55Z</time></trkpt><trkpt lat="46.6367328074" lon="12.3109148350"><ele>2405.84</ele><time>2013-07-23T08:11:04Z</time></trkpt><trkpt lat="46.6367756389" lon="12.3108153418"><ele>2407.28</ele><time>2013-07-23T08:11:16Z</time></trkpt><trkpt lat="46.6368165426" lon="12.3107803054"><ele>2408.72</ele><time>2013-07-23T08:11:27Z</time></trkpt><trkpt lat="46.6368165426" lon="12.3107321095"><ele>2409.68</ele><time>2013-07-23T08:11:33Z</time></trkpt><trkpt lat="46.6367557738" lon="12.3106837459"><ele>2408.72</ele><time>2013-07-23T08:11:43Z</time></trkpt><trkpt lat="46.6367479786" lon="12.3106827401"><ele>2408.72</ele><time>2013-07-23T08:11:58Z</time></trkpt><trkpt lat="46.6367479786" lon="12.3106827401"><ele>2408.24</ele><time>2013-07-23T08:12:15Z</time></trkpt><trkpt lat="46.6367483977" lon="12.3106819857"><ele>2408.72</ele><time>2013-07-23T08:12:29Z</time></trkpt><trkpt lat="46.6367562767" lon="12.3106798064"><ele>2408.72</ele><time>2013-07-23T08:12:43Z</time></trkpt><trkpt lat="46.6367562767" lon="12.3106798064"><ele>2408.24</ele><time>2013-07-23T08:13:01Z</time></trkpt><trkpt lat="46.6367500741" lon="12.3106658924"><ele>2409.20</ele><time>2013-07-23T08:13:17Z</time></trkpt><trkpt lat="46.6367500741" lon="12.3106658924"><ele>2407.76</ele><time>2013-07-23T08:13:35Z</time></trkpt><trkpt lat="46.6367504932" lon="12.3106641322"><ele>2407.76</ele><time>2013-07-23T08:13:58Z</time></trkpt><trkpt lat="46.6367504932" lon="12.3106641322"><ele>2407.76</ele><time>2013-07-23T08:14:24Z</time></trkpt><trkpt lat="46.6367441230" lon="12.3106583487"><ele>2407.76</ele><time>2013-07-23T08:14:47Z</time></trkpt><trkpt lat="46.6367441230" lon="12.3106583487"><ele>2408.24</ele><time>2013-07-23T08:15:10Z</time></trkpt><trkpt lat="46.6367457155" lon="12.3106517270"><ele>2407.76</ele><time>2013-07-23T08:15:35Z</time></trkpt><trkpt lat="46.6367431171" lon="12.3106458597"><ele>2407.76</ele><time>2013-07-23T08:16:00Z</time></trkpt><trkpt lat="46.6367431171" lon="12.3106458597"><ele>2408.24</ele><time>2013-07-23T08:16:26Z</time></trkpt><trkpt lat="46.6367390938" lon="12.3106420878"><ele>2407.76</ele><time>2013-07-23T08:16:51Z</time></trkpt><trkpt lat="46.6367405187" lon="12.3106434289"><ele>2408.24</ele><time>2013-07-23T08:17:17Z</time></trkpt><trkpt lat="46.6367405187" lon="12.3106434289"><ele>2408.24</ele><time>2013-07-23T08:17:37Z</time></trkpt><trkpt lat="46.6367396805" lon="12.3106371425"><ele>2408.24</ele><time>2013-07-23T08:18:03Z</time></trkpt><trkpt lat="46.6367396805" lon="12.3106371425"><ele>2407.76</ele><time>2013-07-23T08:18:25Z</time></trkpt><trkpt lat="46.6367376689" lon="12.3106359690"><ele>2407.76</ele><time>2013-07-23T08:18:51Z</time></trkpt><trkpt lat="46.6367376689" lon="12.3106359690"><ele>2407.28</ele><time>2013-07-23T08:19:13Z</time></trkpt><trkpt lat="46.6367354058" lon="12.3106329516"><ele>2408.24</ele><time>2013-07-23T08:19:36Z</time></trkpt><trkpt lat="46.6367344838" lon="12.3106312752"><ele>2408.24</ele><time>2013-07-23T08:19:57Z</time></trkpt><trkpt lat="46.6367344838" lon="12.3106312752"><ele>2408.24</ele><time>2013-07-23T08:20:25Z</time></trkpt><trkpt lat="46.6367360763" lon="12.3106320295"><ele>2407.76</ele><time>2013-07-23T08:20:47Z</time></trkpt><trkpt lat="46.6367360763" lon="12.3106320295"><ele>2407.76</ele><time>2013-07-23T08:21:15Z</time></trkpt><trkpt lat="46.6367333103" lon="12.3106281739"><ele>2407.76</ele><time>2013-07-23T08:21:41Z</time></trkpt><trkpt lat="46.6367323883" lon="12.3106263299"><ele>2408.24</ele><time>2013-07-23T08:22:11Z</time></trkpt><trkpt lat="46.6367327236" lon="12.3106257431"><ele>2407.76</ele><time>2013-07-23T08:22:37Z</time></trkpt><trkpt lat="46.6367327236" lon="12.3106257431"><ele>2408.24</ele><time>2013-07-23T08:23:05Z</time></trkpt><trkpt lat="46.6367363278" lon="12.3106285930"><ele>2407.28</ele><time>2013-07-23T08:23:30Z</time></trkpt><trkpt lat="46.6367363278" lon="12.3106285930"><ele>2407.76</ele><time>2013-07-23T08:23:54Z</time></trkpt><trkpt lat="46.6367340647" lon="12.3106285091"><ele>2407.76</ele><time>2013-07-23T08:24:16Z</time></trkpt><trkpt lat="46.6367340647" lon="12.3106285091"><ele>2408.24</ele><time>2013-07-23T08:24:34Z</time></trkpt><trkpt lat="46.6367344838" lon="12.3106305208"><ele>2408.24</ele><time>2013-07-23T08:24:54Z</time></trkpt><trkpt lat="46.6367315501" lon="12.3106378969"><ele>2408.24</ele><time>2013-07-23T08:25:20Z</time></trkpt><trkpt lat="46.6367315501" lon="12.3106378969"><ele>2408.72</ele><time>2013-07-23T08:25:47Z</time></trkpt><trkpt lat="46.6367307957" lon="12.3106394056"><ele>2408.24</ele><time>2013-07-23T08:26:09Z</time></trkpt><trkpt lat="46.6367307957" lon="12.3106394056"><ele>2408.24</ele><time>2013-07-23T08:26:32Z</time></trkpt><trkpt lat="46.6367333941" lon="12.3106389865"><ele>2408.24</ele><time>2013-07-23T08:26:59Z</time></trkpt><trkpt lat="46.6367370822" lon="12.3106394056"><ele>2407.76</ele><time>2013-07-23T08:27:22Z</time></trkpt><trkpt lat="46.6367370822" lon="12.3106394056"><ele>2408.24</ele><time>2013-07-23T08:27:49Z</time></trkpt><trkpt lat="46.6367360763" lon="12.3106399924"><ele>2408.24</ele><time>2013-07-23T08:28:09Z</time></trkpt><trkpt lat="46.6367360763" lon="12.3106399924"><ele>2408.24</ele><time>2013-07-23T08:28:32Z</time></trkpt><trkpt lat="46.6367380042" lon="12.3106408305"><ele>2407.76</ele><time>2013-07-23T08:28:56Z</time></trkpt><trkpt lat="46.6367372498" lon="12.3106410820"><ele>2408.24</ele><time>2013-07-23T08:29:19Z</time></trkpt><trkpt lat="46.6367372498" lon="12.3106410820"><ele>2407.28</ele><time>2013-07-23T08:29:37Z</time></trkpt><trkpt lat="46.6367385909" lon="12.3106368911"><ele>2407.76</ele><time>2013-07-23T08:29:57Z</time></trkpt><trkpt lat="46.6367385909" lon="12.3106368911"><ele>2407.76</ele><time>2013-07-23T08:30:19Z</time></trkpt><trkpt lat="46.6367380880" lon="12.3106353823"><ele>2408.24</ele><time>2013-07-23T08:30:41Z</time></trkpt><trkpt lat="46.6367380880" lon="12.3106353823"><ele>2407.76</ele><time>2013-07-23T08:31:02Z</time></trkpt><trkpt lat="46.6367387585" lon="12.3106327001"><ele>2407.76</ele><time>2013-07-23T08:31:19Z</time></trkpt><trkpt lat="46.6367425304" lon="12.3106454406"><ele>2408.24</ele><time>2013-07-23T08:31:27Z</time></trkpt><trkpt lat="46.6367652453" lon="12.3106506374"><ele>2408.24</ele><time>2013-07-23T08:31:38Z</time></trkpt><trkpt lat="46.6367660835" lon="12.3106508888"><ele>2409.20</ele><time>2013-07-23T08:31:52Z</time></trkpt><trkpt lat="46.6367660835" lon="12.3106508888"><ele>2408.72</ele><time>2013-07-23T08:32:15Z</time></trkpt><trkpt lat="46.6367658321" lon="12.3106518947"><ele>2409.68</ele><time>2013-07-23T08:32:38Z</time></trkpt><trkpt lat="46.6367813386" lon="12.3106732685"><ele>2409.68</ele><time>2013-07-23T08:32:53Z</time></trkpt><trkpt lat="46.6368037183" lon="12.3106868472"><ele>2409.20</ele><time>2013-07-23T08:32:59Z</time></trkpt><trkpt lat="46.6368278582" lon="12.3107088916"><ele>2410.16</ele><time>2013-07-23T08:33:02Z</time></trkpt><trkpt lat="46.6369046364" lon="12.3107066285"><ele>2410.64</ele><time>2013-07-23T08:33:12Z</time></trkpt><trkpt lat="46.6369425226" lon="12.3107026890"><ele>2411.12</ele><time>2013-07-23T08:33:18Z</time></trkpt><trkpt lat="46.6369626392" lon="12.3106933013"><ele>2412.09</ele><time>2013-07-23T08:33:22Z</time></trkpt><trkpt lat="46.6370123439" lon="12.3106300179"><ele>2412.57</ele><time>2013-07-23T08:33:30Z</time></trkpt><trkpt lat="46.6370678321" lon="12.3105722666"><ele>2412.09</ele><time>2013-07-23T08:33:37Z</time></trkpt><trkpt lat="46.6371135972" lon="12.3105425946"><ele>2412.09</ele><time>2013-07-23T08:33:48Z</time></trkpt><trkpt lat="46.6371368989" lon="12.3104878608"><ele>2412.57</ele><time>2013-07-23T08:33:55Z</time></trkpt><trkpt lat="46.6371488851" lon="12.3104738630"><ele>2413.05</ele><time>2013-07-23T08:33:57Z</time></trkpt><trkpt lat="46.6372242384" lon="12.3104203865"><ele>2413.05</ele><time>2013-07-23T08:34:06Z</time></trkpt><trkpt lat="46.6372802295" lon="12.3103669100"><ele>2413.53</ele><time>2013-07-23T08:34:14Z</time></trkpt><trkpt lat="46.6372962389" lon="12.3103364836"><ele>2414.49</ele><time>2013-07-23T08:34:18Z</time></trkpt><trkpt lat="46.6373332031" lon="12.3102804087"><ele>2414.97</ele><time>2013-07-23T08:34:24Z</time></trkpt><trkpt lat="46.6374049522" lon="12.3101757187"><ele>2416.41</ele><time>2013-07-23T08:34:36Z</time></trkpt><trkpt lat="46.6374785453" lon="12.3101273552"><ele>2417.37</ele><time>2013-07-23T08:34:47Z</time></trkpt><trkpt lat="46.6374860890" lon="12.3101202305"><ele>2417.37</ele><time>2013-07-23T08:34:48Z</time></trkpt><trkpt lat="46.6375533957" lon="12.3100727051"><ele>2418.33</ele><time>2013-07-23T08:34:58Z</time></trkpt><trkpt lat="46.6376140807" lon="12.3100210726"><ele>2419.78</ele><time>2013-07-23T08:35:09Z</time></trkpt><trkpt lat="46.6376522183" lon="12.3099294584"><ele>2421.22</ele><time>2013-07-23T08:35:21Z</time></trkpt><trkpt lat="46.6376885958" lon="12.3099235911"><ele>2421.70</ele><time>2013-07-23T08:35:30Z</time></trkpt><trkpt lat="46.6377122328" lon="12.3099389300"><ele>2421.70</ele><time>2013-07-23T08:35:39Z</time></trkpt><trkpt lat="46.6377696488" lon="12.3099583760"><ele>2423.14</ele><time>2013-07-23T08:35:46Z</time></trkpt><trkpt lat="46.6378424875" lon="12.3099749722"><ele>2424.58</ele><time>2013-07-23T08:35:57Z</time></trkpt><trkpt lat="46.6378996521" lon="12.3100048117"><ele>2426.50</ele><time>2013-07-23T08:36:09Z</time></trkpt><trkpt lat="46.6379448306" lon="12.3100403510"><ele>2427.95</ele><time>2013-07-23T08:36:20Z</time></trkpt><trkpt lat="46.6379694734" lon="12.3100884631"><ele>2428.43</ele><time>2013-07-23T08:36:27Z</time></trkpt><trkpt lat="46.6380243748" lon="12.3101295345"><ele>2429.87</ele><time>2013-07-23T08:36:38Z</time></trkpt><trkpt lat="46.6380998120" lon="12.3101341445"><ele>2431.79</ele><time>2013-07-23T08:36:52Z</time></trkpt><trkpt lat="46.6381504387" lon="12.3101344798"><ele>2433.23</ele><time>2013-07-23T08:37:03Z</time></trkpt><trkpt lat="46.6381801106" lon="12.3101348151"><ele>2434.68</ele><time>2013-07-23T08:37:11Z</time></trkpt><trkpt lat="46.6382111236" lon="12.3101280257"><ele>2435.64</ele><time>2013-07-23T08:37:21Z</time></trkpt><trkpt lat="46.6382661089" lon="12.3101237509"><ele>2437.56</ele><time>2013-07-23T08:37:32Z</time></trkpt><trkpt lat="46.6383385286" lon="12.3101189733"><ele>2439.48</ele><time>2013-07-23T08:37:44Z</time></trkpt><trkpt lat="46.6383998003" lon="12.3101079930"><ele>2441.41</ele><time>2013-07-23T08:37:54Z</time></trkpt><trkpt lat="46.6384710465" lon="12.3100893851"><ele>2442.85</ele><time>2013-07-23T08:38:06Z</time></trkpt><trkpt lat="46.6385336593" lon="12.3100437876"><ele>2444.29</ele><time>2013-07-23T08:38:17Z</time></trkpt><trkpt lat="46.6386032291" lon="12.3100247607"><ele>2445.25</ele><time>2013-07-23T08:38:27Z</time></trkpt><trkpt lat="46.6386769060" lon="12.3099976033"><ele>2446.69</ele><time>2013-07-23T08:38:38Z</time></trkpt><trkpt lat="46.6386862937" lon="12.3099973518"><ele>2446.69</ele><time>2013-07-23T08:38:39Z</time></trkpt><trkpt lat="46.6387654189" lon="12.3099345714"><ele>2448.13</ele><time>2013-07-23T08:38:51Z</time></trkpt><trkpt lat="46.6388417780" lon="12.3098845314"><ele>2450.06</ele><time>2013-07-23T08:39:03Z</time></trkpt><trkpt lat="46.6388806701" lon="12.3098372575"><ele>2451.02</ele><time>2013-07-23T08:39:14Z</time></trkpt><trkpt lat="46.6389188077" lon="12.3097902350"><ele>2452.46</ele><time>2013-07-23T08:39:25Z</time></trkpt><trkpt lat="46.6389491502" lon="12.3098181468"><ele>2453.42</ele><time>2013-07-23T08:39:32Z</time></trkpt><trkpt lat="46.6389673389" lon="12.3098047357"><ele>2453.90</ele><time>2013-07-23T08:39:48Z</time></trkpt><trkpt lat="46.6389825940" lon="12.3098017182"><ele>2454.86</ele><time>2013-07-23T08:39:52Z</time></trkpt><trkpt lat="46.6390742082" lon="12.3097643349"><ele>2455.34</ele><time>2013-07-23T08:40:03Z</time></trkpt><trkpt lat="46.6391589493" lon="12.3097258620"><ele>2457.75</ele><time>2013-07-23T08:40:16Z</time></trkpt><trkpt lat="46.6392330453" lon="12.3097153008"><ele>2458.71</ele><time>2013-07-23T08:40:26Z</time></trkpt><trkpt lat="46.6392875277" lon="12.3096961062"><ele>2459.19</ele><time>2013-07-23T08:40:32Z</time></trkpt><trkpt lat="46.6393419262" lon="12.3096176516"><ele>2459.67</ele><time>2013-07-23T08:40:42Z</time></trkpt><trkpt lat="46.6393824946" lon="12.3095713835"><ele>2461.11</ele><time>2013-07-23T08:40:51Z</time></trkpt><trkpt lat="46.6394412518" lon="12.3095431365"><ele>2462.07</ele><time>2013-07-23T08:40:59Z</time></trkpt><trkpt lat="46.6394896992" lon="12.3095215950"><ele>2463.04</ele><time>2013-07-23T08:41:04Z</time></trkpt><trkpt lat="46.6395425890" lon="12.3094709683"><ele>2462.55</ele><time>2013-07-23T08:41:12Z</time></trkpt><trkpt lat="46.6395864263" lon="12.3094273824"><ele>2464.00</ele><time>2013-07-23T08:41:20Z</time></trkpt><trkpt lat="46.6396564152" lon="12.3093533702"><ele>2464.48</ele><time>2013-07-23T08:41:32Z</time></trkpt><trkpt lat="46.6396721732" lon="12.3093513586"><ele>2465.44</ele><time>2013-07-23T08:41:41Z</time></trkpt><trkpt lat="46.6397134960" lon="12.3093366902"><ele>2467.84</ele><time>2013-07-23T08:41:52Z</time></trkpt><trkpt lat="46.6397591773" lon="12.3093225248"><ele>2468.80</ele><time>2013-07-23T08:42:02Z</time></trkpt><trkpt lat="46.6397711635" lon="12.3093205970"><ele>2469.76</ele><time>2013-07-23T08:42:15Z</time></trkpt><trkpt lat="46.6398118995" lon="12.3093330022"><ele>2471.21</ele><time>2013-07-23T08:42:24Z</time></trkpt><trkpt lat="46.6398227960" lon="12.3093511909"><ele>2471.69</ele><time>2013-07-23T08:42:26Z</time></trkpt><trkpt lat="46.6399053577" lon="12.3094283044"><ele>2472.17</ele><time>2013-07-23T08:42:36Z</time></trkpt><trkpt lat="46.6399638634" lon="12.3094450682"><ele>2473.13</ele><time>2013-07-23T08:42:45Z</time></trkpt><trkpt lat="46.6399804596" lon="12.3094392847"><ele>2473.61</ele><time>2013-07-23T08:42:48Z</time></trkpt><trkpt lat="46.6400658712" lon="12.3094307352"><ele>2475.05</ele><time>2013-07-23T08:42:59Z</time></trkpt><trkpt lat="46.6401072778" lon="12.3093976267"><ele>2476.49</ele><time>2013-07-23T08:43:09Z</time></trkpt><trkpt lat="46.6401401348" lon="12.3093692958"><ele>2476.97</ele><time>2013-07-23T08:43:18Z</time></trkpt><trkpt lat="46.6401769314" lon="12.3093332537"><ele>2479.38</ele><time>2013-07-23T08:43:28Z</time></trkpt><trkpt lat="46.6402171645" lon="12.3093060125"><ele>2480.34</ele><time>2013-07-23T08:43:37Z</time></trkpt><trkpt lat="46.6402957868" lon="12.3092580680"><ele>2480.82</ele><time>2013-07-23T08:43:48Z</time></trkpt><trkpt lat="46.6403437313" lon="12.3091980536"><ele>2482.26</ele><time>2013-07-23T08:44:00Z</time></trkpt><trkpt lat="46.6403916758" lon="12.3091489356"><ele>2483.70</ele><time>2013-07-23T08:44:11Z</time></trkpt><trkpt lat="46.6403971240" lon="12.3091125581"><ele>2484.66</ele><time>2013-07-23T08:44:21Z</time></trkpt><trkpt lat="46.6404174920" lon="12.3090487719"><ele>2487.07</ele><time>2013-07-23T08:44:30Z</time></trkpt><trkpt lat="46.6404625867" lon="12.3090167530"><ele>2488.51</ele><time>2013-07-23T08:44:42Z</time></trkpt><trkpt lat="46.6404843796" lon="12.3089803755"><ele>2489.47</ele><time>2013-07-23T08:44:53Z</time></trkpt><trkpt lat="46.6404882353" lon="12.3089578282"><ele>2490.91</ele><time>2013-07-23T08:45:00Z</time></trkpt><trkpt lat="46.6405269597" lon="12.3089214507"><ele>2492.84</ele><time>2013-07-23T08:45:13Z</time></trkpt><trkpt lat="46.6405534465" lon="12.3088968918"><ele>2493.32</ele><time>2013-07-23T08:45:23Z</time></trkpt><trkpt lat="46.6405534465" lon="12.3088968918"><ele>2492.84</ele><time>2013-07-23T08:45:45Z</time></trkpt><trkpt lat="46.6405912489" lon="12.3088656273"><ele>2494.76</ele><time>2013-07-23T08:45:55Z</time></trkpt><trkpt lat="46.6406240221" lon="12.3088053614"><ele>2496.68</ele><time>2013-07-23T08:46:07Z</time></trkpt><trkpt lat="46.6406479105" lon="12.3087739293"><ele>2497.64</ele><time>2013-07-23T08:46:17Z</time></trkpt><trkpt lat="46.6406699549" lon="12.3087461852"><ele>2499.57</ele><time>2013-07-23T08:46:27Z</time></trkpt><trkpt lat="46.6406878922" lon="12.3086996656"><ele>2500.05</ele><time>2013-07-23T08:46:37Z</time></trkpt><trkpt lat="46.6406877246" lon="12.3086927086"><ele>2500.53</ele><time>2013-07-23T08:46:46Z</time></trkpt><trkpt lat="46.6406782530" lon="12.3086773697"><ele>2501.49</ele><time>2013-07-23T08:46:54Z</time></trkpt><trkpt lat="46.6406598967" lon="12.3086493742"><ele>2503.41</ele><time>2013-07-23T08:47:04Z</time></trkpt><trkpt lat="46.6406826954" lon="12.3085907008"><ele>2504.85</ele><time>2013-07-23T08:47:17Z</time></trkpt><trkpt lat="46.6406733915" lon="12.3085689079"><ele>2506.29</ele><time>2013-07-23T08:47:28Z</time></trkpt><trkpt lat="46.6406633332" lon="12.3085104860"><ele>2507.74</ele><time>2013-07-23T08:47:39Z</time></trkpt><trkpt lat="46.6406633332" lon="12.3085104860"><ele>2508.22</ele><time>2013-07-23T08:48:00Z</time></trkpt><trkpt lat="46.6406762414" lon="12.3084975779"><ele>2508.22</ele><time>2013-07-23T08:48:03Z</time></trkpt><trkpt lat="46.6407473199" lon="12.3084824905"><ele>2509.18</ele><time>2013-07-23T08:48:13Z</time></trkpt><trkpt lat="46.6407659277" lon="12.3084829096"><ele>2509.66</ele><time>2013-07-23T08:48:22Z</time></trkpt><trkpt lat="46.6407892294" lon="12.3084362224"><ele>2509.66</ele><time>2013-07-23T08:48:32Z</time></trkpt><trkpt lat="46.6408204101" lon="12.3083917145"><ele>2510.14</ele><time>2013-07-23T08:48:43Z</time></trkpt><trkpt lat="46.6408403590" lon="12.3083549179"><ele>2510.62</ele><time>2013-07-23T08:48:46Z</time></trkpt><trkpt lat="46.6409314703" lon="12.3082902934"><ele>2512.06</ele><time>2013-07-23T08:48:58Z</time></trkpt><trkpt lat="46.6410093382" lon="12.3082545865"><ele>2512.54</ele><time>2013-07-23T08:49:06Z</time></trkpt><trkpt lat="46.6410665028" lon="12.3082249146"><ele>2513.50</ele><time>2013-07-23T08:49:16Z</time></trkpt><trkpt lat="46.6411599610" lon="12.3081526626"><ele>2513.98</ele><time>2013-07-23T08:49:27Z</time></trkpt><trkpt lat="46.6411758028" lon="12.3081270978"><ele>2514.47</ele><time>2013-07-23T08:49:30Z</time></trkpt><trkpt lat="46.6412468813" lon="12.3080720287"><ele>2515.91</ele><time>2013-07-23T08:49:41Z</time></trkpt><trkpt lat="46.6412927303" lon="12.3080297839"><ele>2514.47</ele><time>2013-07-23T08:49:48Z</time></trkpt><trkpt lat="46.6413588636" lon="12.3080308735"><ele>2514.95</ele><time>2013-07-23T08:49:53Z</time></trkpt><trkpt lat="46.6413970850" lon="12.3080233298"><ele>2514.95</ele><time>2013-07-23T08:49:56Z</time></trkpt><trkpt lat="46.6414647270" lon="12.3079474736"><ele>2515.43</ele><time>2013-07-23T08:50:06Z</time></trkpt><trkpt lat="46.6415421758" lon="12.3078631517"><ele>2516.39</ele><time>2013-07-23T08:50:15Z</time></trkpt><trkpt lat="46.6416181996" lon="12.3077236768"><ele>2517.35</ele><time>2013-07-23T08:50:27Z</time></trkpt><trkpt lat="46.6416899487" lon="12.3076449707"><ele>2517.83</ele><time>2013-07-23T08:50:38Z</time></trkpt><trkpt lat="46.6417412460" lon="12.3075601459"><ele>2516.39</ele><time>2013-07-23T08:50:48Z</time></trkpt><trkpt lat="46.6417795513" lon="12.3075080104"><ele>2516.87</ele><time>2013-07-23T08:50:54Z</time></trkpt><trkpt lat="46.6418657172" lon="12.3074166477"><ele>2514.47</ele><time>2013-07-23T08:51:05Z</time></trkpt><trkpt lat="46.6418976523" lon="12.3073836230"><ele>2513.50</ele><time>2013-07-23T08:51:15Z</time></trkpt><trkpt lat="46.6419000831" lon="12.3073733132"><ele>2513.50</ele><time>2013-07-23T08:51:22Z</time></trkpt><trkpt lat="46.6419082973" lon="12.3073427193"><ele>2513.02</ele><time>2013-07-23T08:51:24Z</time></trkpt><trkpt lat="46.6419601813" lon="12.3072204273"><ele>2513.02</ele><time>2013-07-23T08:51:34Z</time></trkpt><trkpt lat="46.6419814713" lon="12.3072076868"><ele>2513.98</ele><time>2013-07-23T08:51:37Z</time></trkpt><trkpt lat="46.6420418210" lon="12.3071617540"><ele>2514.47</ele><time>2013-07-23T08:51:47Z</time></trkpt><trkpt lat="46.6420408152" lon="12.3071516119"><ele>2514.47</ele><time>2013-07-23T08:51:48Z</time></trkpt><trkpt lat="46.6420259792" lon="12.3070836347"><ele>2514.47</ele><time>2013-07-23T08:51:52Z</time></trkpt><trkpt lat="46.6420368757" lon="12.3070389591"><ele>2515.43</ele><time>2013-07-23T08:51:56Z</time></trkpt><trkpt lat="46.6420824733" lon="12.3069683835"><ele>2516.87</ele><time>2013-07-23T08:52:05Z</time></trkpt><trkpt lat="46.6420958005" lon="12.3069444951"><ele>2517.35</ele><time>2013-07-23T08:52:13Z</time></trkpt><trkpt lat="46.6421740036" lon="12.3069000710"><ele>2518.31</ele><time>2013-07-23T08:52:24Z</time></trkpt><trkpt lat="46.6422211099" lon="12.3068427388"><ele>2519.75</ele><time>2013-07-23T08:52:33Z</time></trkpt><trkpt lat="46.6422657855" lon="12.3067663796"><ele>2521.68</ele><time>2013-07-23T08:52:44Z</time></trkpt><trkpt lat="46.6422881652" lon="12.3067505378"><ele>2521.19</ele><time>2013-07-23T08:52:53Z</time></trkpt><trkpt lat="46.6422881652" lon="12.3067505378"><ele>2522.16</ele><time>2013-07-23T08:53:05Z</time></trkpt><trkpt lat="46.6422881652" lon="12.3067505378"><ele>2521.68</ele><time>2013-07-23T08:53:07Z</time></trkpt><trkpt lat="46.6422967985" lon="12.3066848237"><ele>2521.68</ele><time>2013-07-23T08:53:17Z</time></trkpt><trkpt lat="46.6422906797" lon="12.3066761903"><ele>2519.75</ele><time>2013-07-23T08:53:20Z</time></trkpt><trkpt lat="46.6422906797" lon="12.3066761903"><ele>2520.23</ele><time>2013-07-23T08:53:31Z</time></trkpt><trkpt lat="46.6422906797" lon="12.3066761903"><ele>2520.71</ele><time>2013-07-23T08:53:50Z</time></trkpt><trkpt lat="46.6423032526" lon="12.3066821415"><ele>2520.71</ele><time>2013-07-23T08:54:12Z</time></trkpt><trkpt lat="46.6423056833" lon="12.3066864163"><ele>2520.71</ele><time>2013-07-23T08:54:42Z</time></trkpt><trkpt lat="46.6423056833" lon="12.3066864163"><ele>2520.71</ele><time>2013-07-23T08:55:13Z</time></trkpt><trkpt lat="46.6423066892" lon="12.3066862486"><ele>2520.23</ele><time>2013-07-23T08:55:37Z</time></trkpt><trkpt lat="46.6423076950" lon="12.3066860810"><ele>2520.71</ele><time>2013-07-23T08:56:04Z</time></trkpt><trkpt lat="46.6423076950" lon="12.3066860810"><ele>2520.71</ele><time>2013-07-23T08:56:34Z</time></trkpt><trkpt lat="46.6423056833" lon="12.3066856619"><ele>2520.71</ele><time>2013-07-23T08:57:01Z</time></trkpt><trkpt lat="46.6423098743" lon="12.3066833988"><ele>2520.71</ele><time>2013-07-23T08:57:27Z</time></trkpt><trkpt lat="46.6423098743" lon="12.3066833988"><ele>2521.19</ele><time>2013-07-23T08:57:55Z</time></trkpt><trkpt lat="46.6423093714" lon="12.3066805489"><ele>2521.19</ele><time>2013-07-23T08:58:30Z</time></trkpt><trkpt lat="46.6423086170" lon="12.3066799622"><ele>2521.19</ele><time>2013-07-23T08:59:04Z</time></trkpt><trkpt lat="46.6423079465" lon="12.3066714965"><ele>2521.68</ele><time>2013-07-23T08:59:35Z</time></trkpt><trkpt lat="46.6423092037" lon="12.3066657130"><ele>2521.68</ele><time>2013-07-23T09:00:04Z</time></trkpt><trkpt lat="46.6423273087" lon="12.3066590074"><ele>2522.16</ele><time>2013-07-23T09:00:15Z</time></trkpt><trkpt lat="46.6423291527" lon="12.3066471051"><ele>2522.64</ele><time>2013-07-23T09:00:27Z</time></trkpt><trkpt lat="46.6423344333" lon="12.3066463508"><ele>2523.12</ele><time>2013-07-23T09:00:36Z</time></trkpt><trkpt lat="46.6423428152" lon="12.3066498712"><ele>2523.12</ele><time>2013-07-23T09:00:46Z</time></trkpt><trkpt lat="46.6423400491" lon="12.3066440877"><ele>2522.16</ele><time>2013-07-23T09:01:04Z</time></trkpt><trkpt lat="46.6423366126" lon="12.3066491168"><ele>2524.08</ele><time>2013-07-23T09:01:15Z</time></trkpt><trkpt lat="46.6423389595" lon="12.3066430818"><ele>2523.60</ele><time>2013-07-23T09:01:25Z</time></trkpt><trkpt lat="46.6423389595" lon="12.3066430818"><ele>2523.12</ele><time>2013-07-23T09:01:54Z</time></trkpt><trkpt lat="46.6423398815" lon="12.3066443391"><ele>2523.12</ele><time>2013-07-23T09:02:06Z</time></trkpt><trkpt lat="46.6423344333" lon="12.3066880088"><ele>2524.08</ele><time>2013-07-23T09:02:21Z</time></trkpt><trkpt lat="46.6423201840" lon="12.3067326844"><ele>2524.08</ele><time>2013-07-23T09:02:35Z</time></trkpt><trkpt lat="46.6423201840" lon="12.3067326844"><ele>2523.60</ele><time>2013-07-23T09:02:45Z</time></trkpt><trkpt lat="46.6423205193" lon="12.3067404795"><ele>2525.04</ele><time>2013-07-23T09:02:47Z</time></trkpt><trkpt lat="46.6423593275" lon="12.3068165872"><ele>2524.08</ele><time>2013-07-23T09:02:54Z</time></trkpt><trkpt lat="46.6423927713" lon="12.3068336863"><ele>2523.12</ele><time>2013-07-23T09:02:58Z</time></trkpt><trkpt lat="46.6424340103" lon="12.3069499433"><ele>2521.19</ele><time>2013-07-23T09:03:08Z</time></trkpt><trkpt lat="46.6424418055" lon="12.3069949541"><ele>2520.71</ele><time>2013-07-23T09:03:17Z</time></trkpt><trkpt lat="46.6424418055" lon="12.3069949541"><ele>2520.71</ele><time>2013-07-23T09:03:34Z</time></trkpt><trkpt lat="46.6424415540" lon="12.3069999833"><ele>2520.23</ele><time>2013-07-23T09:03:47Z</time></trkpt><trkpt lat="46.6424415540" lon="12.3069999833"><ele>2518.79</ele><time>2013-07-23T09:03:58Z</time></trkpt><trkpt lat="46.6424240358" lon="12.3070218600"><ele>2518.79</ele><time>2013-07-23T09:04:06Z</time></trkpt><trkpt lat="46.6424236167" lon="12.3070351034"><ele>2519.27</ele><time>2013-07-23T09:04:18Z</time></trkpt><trkpt lat="46.6424350161" lon="12.3070557229"><ele>2518.79</ele><time>2013-07-23T09:04:28Z</time></trkpt><trkpt lat="46.6424107924" lon="12.3071097862"><ele>2518.79</ele><time>2013-07-23T09:04:37Z</time></trkpt><trkpt lat="46.6423966270" lon="12.3071313277"><ele>2518.31</ele><time>2013-07-23T09:04:51Z</time></trkpt><trkpt lat="46.6423944477" lon="12.3071318306"><ele>2518.79</ele><time>2013-07-23T09:05:03Z</time></trkpt><trkpt lat="46.6423966270" lon="12.3071313277"><ele>2517.83</ele><time>2013-07-23T09:05:09Z</time></trkpt><trkpt lat="46.6424617544" lon="12.3071735725"><ele>2518.79</ele><time>2013-07-23T09:05:24Z</time></trkpt><trkpt lat="46.6424613353" lon="12.3071738239"><ele>2518.79</ele><time>2013-07-23T09:05:47Z</time></trkpt><trkpt lat="46.6424641851" lon="12.3071826249"><ele>2518.79</ele><time>2013-07-23T09:06:08Z</time></trkpt><trkpt lat="46.6424641851" lon="12.3071826249"><ele>2517.83</ele><time>2013-07-23T09:06:19Z</time></trkpt><trkpt lat="46.6424641851" lon="12.3071826249"><ele>2520.71</ele><time>2013-07-23T09:06:35Z</time></trkpt><trkpt lat="46.6424642690" lon="12.3071850557"><ele>2517.35</ele><time>2013-07-23T09:06:41Z</time></trkpt><trkpt lat="46.6424642690" lon="12.3071850557"><ele>2520.71</ele><time>2013-07-23T09:06:42Z</time></trkpt><trkpt lat="46.6424642690" lon="12.3071850557"><ele>2517.35</ele><time>2013-07-23T09:06:44Z</time></trkpt><trkpt lat="46.6424642690" lon="12.3071850557"><ele>2517.83</ele><time>2013-07-23T09:07:00Z</time></trkpt><trkpt lat="46.6424642690" lon="12.3071850557"><ele>2518.79</ele><time>2013-07-23T09:07:08Z</time></trkpt><trkpt lat="46.6424248740" lon="12.3072184995"><ele>2518.31</ele><time>2013-07-23T09:07:20Z</time></trkpt><trkpt lat="46.6424248740" lon="12.3072184995"><ele>2518.79</ele><time>2013-07-23T09:07:33Z</time></trkpt><trkpt lat="46.6424266342" lon="12.3072247021"><ele>2519.27</ele><time>2013-07-23T09:07:56Z</time></trkpt><trkpt lat="46.6424264666" lon="12.3072461598"><ele>2519.75</ele><time>2013-07-23T09:08:09Z</time></trkpt><trkpt lat="46.6424264666" lon="12.3072461598"><ele>2520.71</ele><time>2013-07-23T09:08:20Z</time></trkpt><trkpt lat="46.6424264666" lon="12.3072461598"><ele>2521.19</ele><time>2013-07-23T09:08:29Z</time></trkpt><trkpt lat="46.6424264666" lon="12.3072461598"><ele>2521.19</ele><time>2013-07-23T09:08:40Z</time></trkpt><trkpt lat="46.6424314957" lon="12.3072574753"><ele>2521.68</ele><time>2013-07-23T09:08:53Z</time></trkpt><trkpt lat="46.6424314957" lon="12.3072574753"><ele>2521.68</ele><time>2013-07-23T09:09:14Z</time></trkpt><trkpt lat="46.6424311604" lon="12.3072581459"><ele>2521.19</ele><time>2013-07-23T09:09:41Z</time></trkpt><trkpt lat="46.6424300708" lon="12.3072578944"><ele>2521.19</ele><time>2013-07-23T09:10:05Z</time></trkpt><trkpt lat="46.6424292326" lon="12.3072610795"><ele>2521.19</ele><time>2013-07-23T09:10:24Z</time></trkpt><trkpt lat="46.6424292326" lon="12.3072610795"><ele>2521.68</ele><time>2013-07-23T09:10:40Z</time></trkpt><trkpt lat="46.6424392909" lon="12.3072795197"><ele>2521.68</ele><time>2013-07-23T09:11:04Z</time></trkpt><trkpt lat="46.6424392909" lon="12.3072795197"><ele>2521.68</ele><time>2013-07-23T09:11:24Z</time></trkpt><trkpt lat="46.6424417216" lon="12.3072845489"><ele>2521.68</ele><time>2013-07-23T09:11:44Z</time></trkpt><trkpt lat="46.6424417216" lon="12.3072845489"><ele>2522.16</ele><time>2013-07-23T09:11:58Z</time></trkpt><trkpt lat="46.6424445715" lon="12.3072899133"><ele>2522.16</ele><time>2013-07-23T09:12:14Z</time></trkpt><trkpt lat="46.6424445715" lon="12.3072899133"><ele>2521.68</ele><time>2013-07-23T09:12:31Z</time></trkpt><trkpt lat="46.6424463317" lon="12.3072942719"><ele>2522.16</ele><time>2013-07-23T09:12:53Z</time></trkpt><trkpt lat="46.6424463317" lon="12.3072942719"><ele>2521.68</ele><time>2013-07-23T09:13:14Z</time></trkpt><trkpt lat="46.6424462479" lon="12.3072977923"><ele>2522.16</ele><time>2013-07-23T09:13:28Z</time></trkpt><trkpt lat="46.6424462479" lon="12.3072977923"><ele>2523.12</ele><time>2013-07-23T09:13:39Z</time></trkpt><trkpt lat="46.6424462479" lon="12.3072977923"><ele>2523.60</ele><time>2013-07-23T09:13:50Z</time></trkpt><trkpt lat="46.6424462479" lon="12.3072977923"><ele>2524.56</ele><time>2013-07-23T09:14:04Z</time></trkpt><trkpt lat="46.6424470861" lon="12.3073000554"><ele>2524.56</ele><time>2013-07-23T09:14:24Z</time></trkpt><trkpt lat="46.6424470861" lon="12.3073000554"><ele>2524.56</ele><time>2013-07-23T09:14:41Z</time></trkpt><trkpt lat="46.6424450744" lon="12.3072997201"><ele>2526.00</ele><time>2013-07-23T09:14:55Z</time></trkpt><trkpt lat="46.6424450744" lon="12.3072997201"><ele>2525.04</ele><time>2013-07-23T09:15:09Z</time></trkpt><trkpt lat="46.6424409673" lon="12.3072982114"><ele>2525.04</ele><time>2013-07-23T09:15:27Z</time></trkpt><trkpt lat="46.6424409673" lon="12.3072982114"><ele>2526.00</ele><time>2013-07-23T09:15:46Z</time></trkpt><trkpt lat="46.6424409673" lon="12.3072982114"><ele>2527.44</ele><time>2013-07-23T09:16:02Z</time></trkpt><trkpt lat="46.6424336750" lon="12.3072964512"><ele>2528.40</ele><time>2013-07-23T09:16:17Z</time></trkpt><trkpt lat="46.6424336750" lon="12.3072964512"><ele>2528.40</ele><time>2013-07-23T09:16:27Z</time></trkpt><trkpt lat="46.6424140614" lon="12.3072991334"><ele>2528.40</ele><time>2013-07-23T09:16:37Z</time></trkpt><trkpt lat="46.6424059309" lon="12.3073006421"><ele>2529.85</ele><time>2013-07-23T09:16:48Z</time></trkpt><trkpt lat="46.6424059309" lon="12.3073006421"><ele>2530.33</ele><time>2013-07-23T09:16:57Z</time></trkpt><trkpt lat="46.6424059309" lon="12.3073006421"><ele>2532.25</ele><time>2013-07-23T09:17:12Z</time></trkpt><trkpt lat="46.6423808690" lon="12.3073124606"><ele>2531.77</ele><time>2013-07-23T09:17:21Z</time></trkpt><trkpt lat="46.6423808690" lon="12.3073124606"><ele>2532.73</ele><time>2013-07-23T09:17:31Z</time></trkpt><trkpt lat="46.6423558071" lon="12.3073205072"><ele>2533.69</ele><time>2013-07-23T09:17:46Z</time></trkpt><trkpt lat="46.6423507780" lon="12.3073198367"><ele>2534.65</ele><time>2013-07-23T09:17:57Z</time></trkpt><trkpt lat="46.6423507780" lon="12.3073198367"><ele>2534.65</ele><time>2013-07-23T09:18:15Z</time></trkpt><trkpt lat="46.6423507780" lon="12.3073198367"><ele>2534.65</ele><time>2013-07-23T09:18:16Z</time></trkpt><trkpt lat="46.6423335113" lon="12.3073484190"><ele>2535.61</ele><time>2013-07-23T09:18:24Z</time></trkpt><trkpt lat="46.6423492692" lon="12.3073829524"><ele>2535.61</ele><time>2013-07-23T09:18:39Z</time></trkpt><trkpt lat="46.6423492692" lon="12.3073829524"><ele>2535.61</ele><time>2013-07-23T09:18:50Z</time></trkpt><trkpt lat="46.6423519515" lon="12.3073784262"><ele>2537.06</ele><time>2013-07-23T09:19:02Z</time></trkpt><trkpt lat="46.6423331760" lon="12.3073835392"><ele>2538.02</ele><time>2013-07-23T09:19:16Z</time></trkpt><trkpt lat="46.6423185077" lon="12.3073820304"><ele>2538.98</ele><time>2013-07-23T09:19:36Z</time></trkpt><trkpt lat="46.6423077788" lon="12.3073846288"><ele>2538.98</ele><time>2013-07-23T09:19:49Z</time></trkpt><trkpt lat="46.6423077788" lon="12.3073846288"><ele>2538.98</ele><time>2013-07-23T09:19:53Z</time></trkpt><trkpt lat="46.6423055995" lon="12.3073909990"><ele>2540.42</ele><time>2013-07-23T09:20:00Z</time></trkpt><trkpt lat="46.6422672942" lon="12.3073850479"><ele>2540.90</ele><time>2013-07-23T09:20:10Z</time></trkpt><trkpt lat="46.6422491893" lon="12.3073920049"><ele>2541.38</ele><time>2013-07-23T09:20:20Z</time></trkpt><trkpt lat="46.6422423162" lon="12.3074009735"><ele>2542.34</ele><time>2013-07-23T09:20:31Z</time></trkpt><trkpt lat="46.6422528774" lon="12.3074129596"><ele>2542.82</ele><time>2013-07-23T09:20:43Z</time></trkpt><trkpt lat="46.6422506981" lon="12.3074120376"><ele>2543.31</ele><time>2013-07-23T09:20:59Z</time></trkpt><trkpt lat="46.6422480997" lon="12.3074110318"><ele>2543.31</ele><time>2013-07-23T09:21:15Z</time></trkpt><trkpt lat="46.6422386281" lon="12.3074049130"><ele>2543.31</ele><time>2013-07-23T09:21:30Z</time></trkpt><trkpt lat="46.6422393825" lon="12.3074055836"><ele>2544.75</ele><time>2013-07-23T09:21:40Z</time></trkpt><trkpt lat="46.6422362812" lon="12.3074042425"><ele>2546.19</ele><time>2013-07-23T09:21:53Z</time></trkpt><trkpt lat="46.6421853192" lon="12.3074189946"><ele>2547.15</ele><time>2013-07-23T09:22:05Z</time></trkpt><trkpt lat="46.6422014963" lon="12.3074124567"><ele>2547.15</ele><time>2013-07-23T09:22:13Z</time></trkpt><trkpt lat="46.6422149912" lon="12.3073884845"><ele>2548.11</ele><time>2013-07-23T09:22:26Z</time></trkpt><trkpt lat="46.6422148235" lon="12.3073886521"><ele>2548.11</ele><time>2013-07-23T09:22:41Z</time></trkpt><trkpt lat="46.6421207786" lon="12.3074386921"><ele>2548.59</ele><time>2013-07-23T09:23:05Z</time></trkpt><trkpt lat="46.6421207786" lon="12.3074386921"><ele>2548.59</ele><time>2013-07-23T09:23:19Z</time></trkpt><trkpt lat="46.6421207786" lon="12.3074386921"><ele>2548.59</ele><time>2013-07-23T09:23:33Z</time></trkpt><trkpt lat="46.6421270650" lon="12.3074422125"><ele>2550.03</ele><time>2013-07-23T09:23:43Z</time></trkpt><trkpt lat="46.6421262268" lon="12.3074416257"><ele>2550.51</ele><time>2013-07-23T09:23:57Z</time></trkpt><trkpt lat="46.6421270650" lon="12.3074422125"><ele>2550.51</ele><time>2013-07-23T09:24:11Z</time></trkpt><trkpt lat="46.6421357822" lon="12.3074381892"><ele>2551.00</ele><time>2013-07-23T09:24:28Z</time></trkpt><trkpt lat="46.6421170905" lon="12.3074461520"><ele>2551.48</ele><time>2013-07-23T09:24:41Z</time></trkpt><trkpt lat="46.6421174258" lon="12.3074433021"><ele>2551.96</ele><time>2013-07-23T09:24:52Z</time></trkpt><trkpt lat="46.6421174258" lon="12.3074433021"><ele>2552.44</ele><time>2013-07-23T09:25:11Z</time></trkpt><trkpt lat="46.6421164200" lon="12.3074525222"><ele>2553.88</ele><time>2013-07-23T09:25:22Z</time></trkpt><trkpt lat="46.6420694813" lon="12.3074627481"><ele>2553.88</ele><time>2013-07-23T09:25:34Z</time></trkpt><trkpt lat="46.6420686431" lon="12.3074614070"><ele>2553.40</ele><time>2013-07-23T09:25:58Z</time></trkpt><trkpt lat="46.6420678049" lon="12.3074629996"><ele>2554.84</ele><time>2013-07-23T09:26:11Z</time></trkpt><trkpt lat="46.6420633625" lon="12.3074603174"><ele>2554.84</ele><time>2013-07-23T09:26:25Z</time></trkpt><trkpt lat="46.6420638654" lon="12.3074607365"><ele>2555.80</ele><time>2013-07-23T09:26:41Z</time></trkpt><trkpt lat="46.6420504544" lon="12.3074694537"><ele>2555.80</ele><time>2013-07-23T09:26:56Z</time></trkpt><trkpt lat="46.6420504544" lon="12.3074694537"><ele>2556.76</ele><time>2013-07-23T09:27:09Z</time></trkpt><trkpt lat="46.6420504544" lon="12.3074694537"><ele>2557.73</ele><time>2013-07-23T09:27:21Z</time></trkpt><trkpt lat="46.6420504544" lon="12.3074694537"><ele>2557.73</ele><time>2013-07-23T09:27:26Z</time></trkpt><trkpt lat="46.6420142446" lon="12.3075179849"><ele>2558.21</ele><time>2013-07-23T09:27:33Z</time></trkpt><trkpt lat="46.6420142446" lon="12.3075179849"><ele>2557.73</ele><time>2013-07-23T09:27:45Z</time></trkpt><trkpt lat="46.6420142446" lon="12.3075179849"><ele>2557.73</ele><time>2013-07-23T09:28:05Z</time></trkpt><trkpt lat="46.6420210339" lon="12.3075259477"><ele>2557.24</ele><time>2013-07-23T09:28:28Z</time></trkpt><trkpt lat="46.6420208663" lon="12.3075251095"><ele>2557.24</ele><time>2013-07-23T09:28:51Z</time></trkpt><trkpt lat="46.6420206148" lon="12.3075280432"><ele>2557.73</ele><time>2013-07-23T09:29:14Z</time></trkpt><trkpt lat="46.6420243867" lon="12.3075301386"><ele>2557.24</ele><time>2013-07-23T09:29:33Z</time></trkpt><trkpt lat="46.6420241352" lon="12.3075308930"><ele>2556.76</ele><time>2013-07-23T09:29:59Z</time></trkpt><trkpt lat="46.6420264821" lon="12.3075350001"><ele>2557.24</ele><time>2013-07-23T09:30:18Z</time></trkpt><trkpt lat="46.6420267336" lon="12.3075334914"><ele>2556.76</ele><time>2013-07-23T09:30:35Z</time></trkpt><trkpt lat="46.6420281585" lon="12.3075296357"><ele>2556.76</ele><time>2013-07-23T09:30:52Z</time></trkpt><trkpt lat="46.6420977283" lon="12.3075676057"><ele>2557.24</ele><time>2013-07-23T09:31:16Z</time></trkpt><trkpt lat="46.6422249656" lon="12.3075140454"><ele>2562.05</ele><time>2013-07-23T09:33:58Z</time></trkpt><trkpt lat="46.6422741674" lon="12.3075598106"><ele>2582.24</ele><time>2013-07-23T09:49:51Z</time></trkpt><trkpt lat="46.6422739998" lon="12.3075836990"><ele>2582.72</ele><time>2013-07-23T09:50:03Z</time></trkpt><trkpt lat="46.6422771849" lon="12.3076124489"><ele>2581.28</ele><time>2013-07-23T09:50:13Z</time></trkpt><trkpt lat="46.6422593314" lon="12.3076430429"><ele>2579.84</ele><time>2013-07-23T09:50:23Z</time></trkpt><trkpt lat="46.6422550566" lon="12.3076730501"><ele>2580.80</ele><time>2013-07-23T09:50:34Z</time></trkpt><trkpt lat="46.6422455013" lon="12.3076909035"><ele>2580.32</ele><time>2013-07-23T09:50:45Z</time></trkpt><trkpt lat="46.6422425676" lon="12.3077009618"><ele>2579.84</ele><time>2013-07-23T09:50:54Z</time></trkpt><trkpt lat="46.6422547214" lon="12.3076992016"><ele>2578.87</ele><time>2013-07-23T09:51:06Z</time></trkpt><trkpt lat="46.6422248818" lon="12.3077289574"><ele>2579.84</ele><time>2013-07-23T09:51:17Z</time></trkpt><trkpt lat="46.6422248818" lon="12.3077289574"><ele>2580.80</ele><time>2013-07-23T09:51:26Z</time></trkpt><trkpt lat="46.6422242112" lon="12.3077287059"><ele>2579.35</ele><time>2013-07-23T09:51:27Z</time></trkpt><trkpt lat="46.6422190145" lon="12.3077292088"><ele>2579.84</ele><time>2013-07-23T09:51:42Z</time></trkpt><trkpt lat="46.6422189306" lon="12.3077297956"><ele>2580.80</ele><time>2013-07-23T09:51:58Z</time></trkpt><trkpt lat="46.6421755962" lon="12.3077183962"><ele>2581.76</ele><time>2013-07-23T09:52:14Z</time></trkpt><trkpt lat="46.6421728302" lon="12.3076766543"><ele>2583.20</ele><time>2013-07-23T09:52:28Z</time></trkpt><trkpt lat="46.6421545576" lon="12.3076521792"><ele>2583.20</ele><time>2013-07-23T09:52:45Z</time></trkpt><trkpt lat="46.6421628557" lon="12.3076629080"><ele>2585.60</ele><time>2013-07-23T09:52:48Z</time></trkpt><trkpt lat="46.6421624366" lon="12.3076638300"><ele>2583.68</ele><time>2013-07-23T09:52:50Z</time></trkpt><trkpt lat="46.6421273164" lon="12.3077003751"><ele>2584.64</ele><time>2013-07-23T09:53:03Z</time></trkpt><trkpt lat="46.6421199404" lon="12.3076986149"><ele>2586.08</ele><time>2013-07-23T09:53:21Z</time></trkpt><trkpt lat="46.6421766020" lon="12.3077738844"><ele>2585.60</ele><time>2013-07-23T09:53:37Z</time></trkpt><trkpt lat="46.6421749257" lon="12.3077442963"><ele>2586.08</ele><time>2013-07-23T09:53:50Z</time></trkpt><trkpt lat="46.6421675496" lon="12.3077375907"><ele>2586.56</ele><time>2013-07-23T09:53:51Z</time></trkpt><trkpt lat="46.6421103850" lon="12.3077399377"><ele>2588.01</ele><time>2013-07-23T09:54:03Z</time></trkpt><trkpt lat="46.6421110556" lon="12.3077377584"><ele>2588.49</ele><time>2013-07-23T09:54:16Z</time></trkpt><trkpt lat="46.6421110556" lon="12.3077377584"><ele>2589.45</ele><time>2013-07-23T09:54:33Z</time></trkpt><trkpt lat="46.6421696451" lon="12.3077658378"><ele>2589.45</ele><time>2013-07-23T09:54:48Z</time></trkpt><trkpt lat="46.6421696451" lon="12.3077658378"><ele>2590.41</ele><time>2013-07-23T09:55:07Z</time></trkpt><trkpt lat="46.6421546414" lon="12.3077889718"><ele>2590.89</ele><time>2013-07-23T09:55:18Z</time></trkpt><trkpt lat="46.6421546414" lon="12.3077889718"><ele>2591.85</ele><time>2013-07-23T09:55:32Z</time></trkpt><trkpt lat="46.6421821341" lon="12.3078287020"><ele>2592.33</ele><time>2013-07-23T09:55:47Z</time></trkpt><trkpt lat="46.6421750933" lon="12.3078249302"><ele>2593.29</ele><time>2013-07-23T09:55:56Z</time></trkpt><trkpt lat="46.6421691421" lon="12.3078323901"><ele>2593.29</ele><time>2013-07-23T09:56:10Z</time></trkpt><trkpt lat="46.6421649512" lon="12.3078317195"><ele>2594.25</ele><time>2013-07-23T09:56:20Z</time></trkpt><trkpt lat="46.6421649512" lon="12.3078317195"><ele>2595.70</ele><time>2013-07-23T09:56:32Z</time></trkpt><trkpt lat="46.6421678010" lon="12.3078374192"><ele>2595.22</ele><time>2013-07-23T09:56:50Z</time></trkpt><trkpt lat="46.6421631072" lon="12.3078338150"><ele>2596.66</ele><time>2013-07-23T09:57:06Z</time></trkpt><trkpt lat="46.6421625204" lon="12.3078354076"><ele>2597.14</ele><time>2013-07-23T09:57:17Z</time></trkpt><trkpt lat="46.6421625204" lon="12.3078354076"><ele>2598.58</ele><time>2013-07-23T09:57:32Z</time></trkpt><trkpt lat="46.6421646159" lon="12.3078407720"><ele>2598.58</ele><time>2013-07-23T09:57:50Z</time></trkpt><trkpt lat="46.6421646159" lon="12.3078407720"><ele>2599.54</ele><time>2013-07-23T09:58:04Z</time></trkpt><trkpt lat="46.6421676334" lon="12.3078478966"><ele>2600.02</ele><time>2013-07-23T09:58:14Z</time></trkpt><trkpt lat="46.6421632748" lon="12.3078504112"><ele>2600.50</ele><time>2013-07-23T09:58:22Z</time></trkpt><trkpt lat="46.6421481036" lon="12.3078467231"><ele>2600.98</ele><time>2013-07-23T09:58:34Z</time></trkpt><trkpt lat="46.6421377938" lon="12.3078482319"><ele>2600.98</ele><time>2013-07-23T09:58:45Z</time></trkpt><trkpt lat="46.6421293281" lon="12.3078508303"><ele>2601.95</ele><time>2013-07-23T09:59:02Z</time></trkpt><trkpt lat="46.6421246342" lon="12.3078587931"><ele>2603.39</ele><time>2013-07-23T09:59:15Z</time></trkpt><trkpt lat="46.6421223711" lon="12.3078631517"><ele>2604.35</ele><time>2013-07-23T09:59:25Z</time></trkpt><trkpt lat="46.6421165038" lon="12.3078494053"><ele>2605.31</ele><time>2013-07-23T09:59:33Z</time></trkpt><trkpt lat="46.6421197727" lon="12.3078482319"><ele>2606.27</ele><time>2013-07-23T09:59:46Z</time></trkpt><trkpt lat="46.6421157494" lon="12.3078437056"><ele>2606.27</ele><time>2013-07-23T09:59:56Z</time></trkpt><trkpt lat="46.6421164200" lon="12.3078435380"><ele>2606.75</ele><time>2013-07-23T10:00:06Z</time></trkpt><trkpt lat="46.6421126481" lon="12.3078375868"><ele>2606.27</ele><time>2013-07-23T10:00:20Z</time></trkpt><trkpt lat="46.6421126481" lon="12.3078375868"><ele>2606.27</ele><time>2013-07-23T10:00:41Z</time></trkpt><trkpt lat="46.6421129834" lon="12.3078377545"><ele>2606.75</ele><time>2013-07-23T10:01:00Z</time></trkpt><trkpt lat="46.6421129834" lon="12.3078377545"><ele>2606.75</ele><time>2013-07-23T10:01:16Z</time></trkpt><trkpt lat="46.6421129834" lon="12.3078374192"><ele>2606.75</ele><time>2013-07-23T10:01:40Z</time></trkpt><trkpt lat="46.6421129834" lon="12.3078374192"><ele>2606.75</ele><time>2013-07-23T10:02:05Z</time></trkpt><trkpt lat="46.6421128996" lon="12.3078370001"><ele>2606.75</ele><time>2013-07-23T10:02:32Z</time></trkpt><trkpt lat="46.6421127319" lon="12.3078367487"><ele>2607.23</ele><time>2013-07-23T10:03:00Z</time></trkpt><trkpt lat="46.6421127319" lon="12.3078367487"><ele>2607.71</ele><time>2013-07-23T10:03:25Z</time></trkpt><trkpt lat="46.6421129834" lon="12.3078370839"><ele>2608.19</ele><time>2013-07-23T10:03:46Z</time></trkpt><trkpt lat="46.6421152465" lon="12.3078383412"><ele>2607.23</ele><time>2013-07-23T10:04:05Z</time></trkpt><trkpt lat="46.6421189345" lon="12.3078532610"><ele>2608.19</ele><time>2013-07-23T10:04:25Z</time></trkpt><trkpt lat="46.6421173420" lon="12.3078803346"><ele>2607.71</ele><time>2013-07-23T10:04:35Z</time></trkpt><trkpt lat="46.6420913581" lon="12.3079189751"><ele>2608.67</ele><time>2013-07-23T10:04:45Z</time></trkpt><trkpt lat="46.6420892626" lon="12.3079127725"><ele>2608.67</ele><time>2013-07-23T10:04:56Z</time></trkpt><trkpt lat="46.6420628596" lon="12.3079390917"><ele>2608.67</ele><time>2013-07-23T10:05:06Z</time></trkpt><trkpt lat="46.6420502868" lon="12.3079444561"><ele>2607.71</ele><time>2013-07-23T10:05:14Z</time></trkpt><trkpt lat="46.6420502868" lon="12.3079444561"><ele>2608.19</ele><time>2013-07-23T10:05:45Z</time></trkpt><trkpt lat="46.6420500353" lon="12.3079427797"><ele>2607.71</ele><time>2013-07-23T10:06:18Z</time></trkpt><trkpt lat="46.6420488618" lon="12.3079411034"><ele>2608.67</ele><time>2013-07-23T10:06:46Z</time></trkpt><trkpt lat="46.6420520470" lon="12.3079377506"><ele>2608.19</ele><time>2013-07-23T10:07:09Z</time></trkpt><trkpt lat="46.6420520470" lon="12.3079377506"><ele>2608.19</ele><time>2013-07-23T10:07:36Z</time></trkpt><trkpt lat="46.6420506220" lon="12.3079444561"><ele>2608.19</ele><time>2013-07-23T10:08:03Z</time></trkpt><trkpt lat="46.6420470178" lon="12.3079426959"><ele>2608.67</ele><time>2013-07-23T10:08:25Z</time></trkpt><trkpt lat="46.6420470178" lon="12.3079426959"><ele>2608.67</ele><time>2013-07-23T10:08:51Z</time></trkpt><trkpt lat="46.6420474369" lon="12.3079423606"><ele>2609.16</ele><time>2013-07-23T10:09:19Z</time></trkpt><trkpt lat="46.6420471016" lon="12.3079410195"><ele>2609.16</ele><time>2013-07-23T10:09:45Z</time></trkpt><trkpt lat="46.6420484427" lon="12.3079380859"><ele>2610.12</ele><time>2013-07-23T10:09:57Z</time></trkpt><trkpt lat="46.6420441680" lon="12.3079461325"><ele>2610.12</ele><time>2013-07-23T10:10:07Z</time></trkpt><trkpt lat="46.6420441680" lon="12.3079461325"><ele>2610.12</ele><time>2013-07-23T10:10:25Z</time></trkpt><trkpt lat="46.6420315951" lon="12.3079690151"><ele>2609.16</ele><time>2013-07-23T10:10:37Z</time></trkpt><trkpt lat="46.6420350317" lon="12.3079721164"><ele>2608.67</ele><time>2013-07-23T10:10:45Z</time></trkpt><trkpt lat="46.6420232132" lon="12.3079709429"><ele>2608.19</ele><time>2013-07-23T10:10:54Z</time></trkpt><trkpt lat="46.6420114785" lon="12.3079702724"><ele>2607.71</ele><time>2013-07-23T10:11:03Z</time></trkpt><trkpt lat="46.6419997439" lon="12.3079765588"><ele>2607.23</ele><time>2013-07-23T10:11:15Z</time></trkpt><trkpt lat="46.6419971455" lon="12.3079760559"><ele>2606.27</ele><time>2013-07-23T10:11:24Z</time></trkpt><trkpt lat="46.6419997439" lon="12.3079934064"><ele>2605.79</ele><time>2013-07-23T10:11:41Z</time></trkpt><trkpt lat="46.6420010850" lon="12.3079790734"><ele>2605.79</ele><time>2013-07-23T10:11:51Z</time></trkpt><trkpt lat="46.6419878416" lon="12.3080037162"><ele>2604.83</ele><time>2013-07-23T10:12:03Z</time></trkpt><trkpt lat="46.6419878416" lon="12.3080037162"><ele>2604.35</ele><time>2013-07-23T10:12:27Z</time></trkpt><trkpt lat="46.6419937089" lon="12.3079901375"><ele>2603.39</ele><time>2013-07-23T10:12:39Z</time></trkpt><trkpt lat="46.6419984866" lon="12.3080008663"><ele>2602.91</ele><time>2013-07-23T10:12:49Z</time></trkpt><trkpt lat="46.6419989057" lon="12.3079997767"><ele>2603.39</ele><time>2013-07-23T10:13:04Z</time></trkpt><trkpt lat="46.6420020908" lon="12.3080057278"><ele>2602.91</ele><time>2013-07-23T10:13:15Z</time></trkpt><trkpt lat="46.6420020908" lon="12.3080057278"><ele>2602.43</ele><time>2013-07-23T10:13:41Z</time></trkpt><trkpt lat="46.6420027614" lon="12.3080069013"><ele>2603.39</ele><time>2013-07-23T10:14:01Z</time></trkpt><trkpt lat="46.6420170106" lon="12.3080061469"><ele>2602.43</ele><time>2013-07-23T10:14:08Z</time></trkpt><trkpt lat="46.6420258954" lon="12.3080128524"><ele>2601.95</ele><time>2013-07-23T10:14:18Z</time></trkpt><trkpt lat="46.6420323495" lon="12.3080253415"><ele>2600.98</ele><time>2013-07-23T10:14:26Z</time></trkpt><trkpt lat="46.6420323495" lon="12.3080253415"><ele>2600.50</ele><time>2013-07-23T10:14:38Z</time></trkpt><trkpt lat="46.6420356184" lon="12.3080256768"><ele>2600.02</ele><time>2013-07-23T10:14:49Z</time></trkpt><trkpt lat="46.6420486942" lon="12.3080288619"><ele>2599.06</ele><time>2013-07-23T10:14:59Z</time></trkpt><trkpt lat="46.6420559864" lon="12.3080337234"><ele>2599.06</ele><time>2013-07-23T10:15:09Z</time></trkpt><trkpt lat="46.6420559864" lon="12.3080337234"><ele>2597.62</ele><time>2013-07-23T10:15:23Z</time></trkpt><trkpt lat="46.6420587525" lon="12.3080359865"><ele>2597.14</ele><time>2013-07-23T10:15:38Z</time></trkpt><trkpt lat="46.6420619376" lon="12.3080387525"><ele>2595.22</ele><time>2013-07-23T10:15:50Z</time></trkpt><trkpt lat="46.6420607641" lon="12.3080471344"><ele>2594.74</ele><time>2013-07-23T10:15:57Z</time></trkpt><trkpt lat="46.6420587525" lon="12.3080549296"><ele>2595.70</ele><time>2013-07-23T10:16:10Z</time></trkpt><trkpt lat="46.6420587525" lon="12.3080549296"><ele>2595.22</ele><time>2013-07-23T10:16:23Z</time></trkpt><trkpt lat="46.6420476884" lon="12.3080665804"><ele>2593.77</ele><time>2013-07-23T10:16:34Z</time></trkpt><trkpt lat="46.6420384683" lon="12.3080839310"><ele>2593.29</ele><time>2013-07-23T10:16:45Z</time></trkpt><trkpt lat="46.6420384683" lon="12.3080839310"><ele>2592.81</ele><time>2013-07-23T10:17:04Z</time></trkpt><trkpt lat="46.6420384683" lon="12.3080839310"><ele>2592.81</ele><time>2013-07-23T10:17:17Z</time></trkpt><trkpt lat="46.6420409828" lon="12.3080881219"><ele>2592.33</ele><time>2013-07-23T10:17:28Z</time></trkpt><trkpt lat="46.6420486942" lon="12.3080972582"><ele>2590.89</ele><time>2013-07-23T10:17:39Z</time></trkpt><trkpt lat="46.6420461796" lon="12.3081059754"><ele>2590.41</ele><time>2013-07-23T10:17:54Z</time></trkpt><trkpt lat="46.6420383845" lon="12.3081252538"><ele>2589.93</ele><time>2013-07-23T10:18:02Z</time></trkpt><trkpt lat="46.6420574952" lon="12.3081326298"><ele>2588.49</ele><time>2013-07-23T10:18:14Z</time></trkpt><trkpt lat="46.6420638654" lon="12.3081364017"><ele>2588.49</ele><time>2013-07-23T10:18:25Z</time></trkpt><trkpt lat="46.6420657095" lon="12.3081338871"><ele>2587.53</ele><time>2013-07-23T10:18:36Z</time></trkpt><trkpt lat="46.6420657095" lon="12.3081338871"><ele>2588.49</ele><time>2013-07-23T10:18:58Z</time></trkpt><trkpt lat="46.6420679726" lon="12.3081320431"><ele>2588.49</ele><time>2013-07-23T10:19:22Z</time></trkpt><trkpt lat="46.6420926992" lon="12.3081493098"><ele>2587.53</ele><time>2013-07-23T10:19:41Z</time></trkpt><trkpt lat="46.6420926992" lon="12.3081493098"><ele>2587.04</ele><time>2013-07-23T10:19:51Z</time></trkpt><trkpt lat="46.6421041824" lon="12.3081588652"><ele>2587.04</ele><time>2013-07-23T10:20:04Z</time></trkpt><trkpt lat="46.6421144083" lon="12.3081424367"><ele>2586.08</ele><time>2013-07-23T10:20:15Z</time></trkpt><trkpt lat="46.6421258077" lon="12.3081438616"><ele>2585.60</ele><time>2013-07-23T10:20:22Z</time></trkpt><trkpt lat="46.6421265621" lon="12.3081553448"><ele>2584.64</ele><time>2013-07-23T10:20:32Z</time></trkpt><trkpt lat="46.6421549767" lon="12.3081752099"><ele>2584.16</ele><time>2013-07-23T10:20:41Z</time></trkpt><trkpt lat="46.6421626043" lon="12.3081680015"><ele>2582.72</ele><time>2013-07-23T10:20:50Z</time></trkpt><trkpt lat="46.6422045138" lon="12.3081514891"><ele>2582.24</ele><time>2013-07-23T10:20:59Z</time></trkpt><trkpt lat="46.6422038432" lon="12.3081545904"><ele>2581.76</ele><time>2013-07-23T10:21:09Z</time></trkpt><trkpt lat="46.6422359459" lon="12.3081517406"><ele>2580.80</ele><time>2013-07-23T10:21:21Z</time></trkpt><trkpt lat="46.6422545537" lon="12.3081721924"><ele>2580.32</ele><time>2013-07-23T10:21:30Z</time></trkpt><trkpt lat="46.6422570683" lon="12.3081757128"><ele>2579.35</ele><time>2013-07-23T10:21:43Z</time></trkpt><trkpt lat="46.6422584094" lon="12.3081861902"><ele>2579.35</ele><time>2013-07-23T10:21:53Z</time></trkpt><trkpt lat="46.6422719043" lon="12.3082235735"><ele>2578.39</ele><time>2013-07-23T10:22:00Z</time></trkpt><trkpt lat="46.6422817949" lon="12.3082215618"><ele>2578.39</ele><time>2013-07-23T10:22:09Z</time></trkpt><trkpt lat="46.6422857344" lon="12.3082172871"><ele>2577.91</ele><time>2013-07-23T10:22:19Z</time></trkpt><trkpt lat="46.6422688030" lon="12.3082386609"><ele>2576.47</ele><time>2013-07-23T10:22:30Z</time></trkpt><trkpt lat="46.6422680486" lon="12.3082456179"><ele>2576.47</ele><time>2013-07-23T10:22:42Z</time></trkpt><trkpt lat="46.6422634386" lon="12.3082358111"><ele>2575.99</ele><time>2013-07-23T10:22:58Z</time></trkpt><trkpt lat="46.6422602534" lon="12.3082276806"><ele>2575.03</ele><time>2013-07-23T10:23:08Z</time></trkpt><trkpt lat="46.6422602534" lon="12.3082276806"><ele>2575.51</ele><time>2013-07-23T10:23:22Z</time></trkpt><trkpt lat="46.6422602534" lon="12.3082276806"><ele>2574.55</ele><time>2013-07-23T10:23:33Z</time></trkpt><trkpt lat="46.6422749218" lon="12.3082310334"><ele>2573.59</ele><time>2013-07-23T10:23:43Z</time></trkpt><trkpt lat="46.6422800347" lon="12.3082381580"><ele>2573.11</ele><time>2013-07-23T10:23:55Z</time></trkpt><trkpt lat="46.6422800347" lon="12.3082381580"><ele>2573.11</ele><time>2013-07-23T10:24:20Z</time></trkpt><trkpt lat="46.6422925238" lon="12.3082345538"><ele>2573.59</ele><time>2013-07-23T10:24:34Z</time></trkpt><trkpt lat="46.6422987264" lon="12.3082373198"><ele>2573.11</ele><time>2013-07-23T10:24:38Z</time></trkpt><trkpt lat="46.6423162445" lon="12.3082519043"><ele>2573.11</ele><time>2013-07-23T10:24:49Z</time></trkpt><trkpt lat="46.6423245426" lon="12.3082675785"><ele>2573.11</ele><time>2013-07-23T10:25:00Z</time></trkpt><trkpt lat="46.6423180047" lon="12.3082753737"><ele>2573.11</ele><time>2013-07-23T10:25:15Z</time></trkpt><trkpt lat="46.6423185915" lon="12.3082775529"><ele>2572.63</ele><time>2013-07-23T10:25:27Z</time></trkpt><trkpt lat="46.6423185915" lon="12.3082775529"><ele>2572.63</ele><time>2013-07-23T10:25:48Z</time></trkpt><trkpt lat="46.6423162445" lon="12.3082824145"><ele>2572.63</ele><time>2013-07-23T10:25:57Z</time></trkpt><trkpt lat="46.6423030011" lon="12.3082679138"><ele>2571.18</ele><time>2013-07-23T10:26:06Z</time></trkpt><trkpt lat="46.6422895901" lon="12.3082289379"><ele>2571.18</ele><time>2013-07-23T10:26:17Z</time></trkpt><trkpt lat="46.6422895901" lon="12.3082289379"><ele>2571.66</ele><time>2013-07-23T10:26:37Z</time></trkpt><trkpt lat="46.6422892548" lon="12.3082286865"><ele>2571.66</ele><time>2013-07-23T10:27:00Z</time></trkpt><trkpt lat="46.6422892548" lon="12.3082286865"><ele>2571.66</ele><time>2013-07-23T10:27:22Z</time></trkpt><trkpt lat="46.6422988102" lon="12.3082312010"><ele>2572.14</ele><time>2013-07-23T10:27:45Z</time></trkpt><trkpt lat="46.6422985587" lon="12.3082373198"><ele>2570.22</ele><time>2013-07-23T10:27:57Z</time></trkpt><trkpt lat="46.6422962956" lon="12.3082628846"><ele>2570.22</ele><time>2013-07-23T10:28:07Z</time></trkpt><trkpt lat="46.6422885004" lon="12.3082943168"><ele>2568.78</ele><time>2013-07-23T10:28:21Z</time></trkpt><trkpt lat="46.6422893386" lon="12.3083089851"><ele>2567.82</ele><time>2013-07-23T10:28:33Z</time></trkpt><trkpt lat="46.6422818787" lon="12.3083435185"><ele>2566.86</ele><time>2013-07-23T10:28:45Z</time></trkpt><trkpt lat="46.6422752570" lon="12.3083456978"><ele>2565.90</ele><time>2013-07-23T10:28:55Z</time></trkpt><trkpt lat="46.6422952060" lon="12.3083788902"><ele>2565.42</ele><time>2013-07-23T10:29:05Z</time></trkpt><trkpt lat="46.6423221957" lon="12.3083933908"><ele>2563.97</ele><time>2013-07-23T10:29:16Z</time></trkpt><trkpt lat="46.6423237883" lon="12.3083899543"><ele>2564.45</ele><time>2013-07-23T10:29:31Z</time></trkpt><trkpt lat="46.6423249617" lon="12.3083880264"><ele>2563.49</ele><time>2013-07-23T10:29:43Z</time></trkpt><trkpt lat="46.6423497722" lon="12.3084205482"><ele>2562.05</ele><time>2013-07-23T10:29:53Z</time></trkpt><trkpt lat="46.6423515324" lon="12.3084312771"><ele>2562.05</ele><time>2013-07-23T10:30:00Z</time></trkpt><trkpt lat="46.6423502751" lon="12.3084263317"><ele>2561.57</ele><time>2013-07-23T10:30:10Z</time></trkpt><trkpt lat="46.6423526220" lon="12.3084343784"><ele>2560.61</ele><time>2013-07-23T10:30:21Z</time></trkpt><trkpt lat="46.6423605848" lon="12.3084732704"><ele>2559.17</ele><time>2013-07-23T10:30:31Z</time></trkpt><trkpt lat="46.6423568968" lon="12.3084824067"><ele>2559.17</ele><time>2013-07-23T10:30:42Z</time></trkpt><trkpt lat="46.6423601657" lon="12.3084638827"><ele>2558.21</ele><time>2013-07-23T10:30:54Z</time></trkpt><trkpt lat="46.6423361097" lon="12.3085194547"><ele>2557.24</ele><time>2013-07-23T10:31:02Z</time></trkpt><trkpt lat="46.6423455812" lon="12.3085247353"><ele>2556.76</ele><time>2013-07-23T10:31:15Z</time></trkpt><trkpt lat="46.6423447430" lon="12.3085259087"><ele>2557.24</ele><time>2013-07-23T10:31:25Z</time></trkpt><trkpt lat="46.6423493531" lon="12.3085282557"><ele>2556.28</ele><time>2013-07-23T10:31:35Z</time></trkpt><trkpt lat="46.6423295718" lon="12.3085520603"><ele>2555.80</ele><time>2013-07-23T10:31:43Z</time></trkpt><trkpt lat="46.6423223633" lon="12.3085440975"><ele>2555.80</ele><time>2013-07-23T10:31:54Z</time></trkpt><trkpt lat="46.6423062701" lon="12.3085285071"><ele>2554.84</ele><time>2013-07-23T10:32:04Z</time></trkpt><trkpt lat="46.6423068568" lon="12.3085261602"><ele>2553.88</ele><time>2013-07-23T10:32:16Z</time></trkpt><trkpt lat="46.6422928590" lon="12.3085393198"><ele>2553.40</ele><time>2013-07-23T10:32:26Z</time></trkpt><trkpt lat="46.6422865726" lon="12.3085524794"><ele>2552.92</ele><time>2013-07-23T10:32:34Z</time></trkpt><trkpt lat="46.6422807053" lon="12.3085565027"><ele>2552.44</ele><time>2013-07-23T10:32:46Z</time></trkpt><trkpt lat="46.6423046775" lon="12.3085882701"><ele>2552.44</ele><time>2013-07-23T10:32:59Z</time></trkpt><trkpt lat="46.6423182562" lon="12.3086045310"><ele>2551.00</ele><time>2013-07-23T10:33:10Z</time></trkpt><trkpt lat="46.6423299070" lon="12.3086160980"><ele>2550.51</ele><time>2013-07-23T10:33:19Z</time></trkpt><trkpt lat="46.6423365287" lon="12.3086213786"><ele>2550.03</ele><time>2013-07-23T10:33:27Z</time></trkpt><trkpt lat="46.6423303261" lon="12.3086159304"><ele>2549.07</ele><time>2013-07-23T10:33:40Z</time></trkpt><trkpt lat="46.6423402168" lon="12.3086019326"><ele>2549.07</ele><time>2013-07-23T10:33:52Z</time></trkpt><trkpt lat="46.6423402168" lon="12.3086019326"><ele>2547.63</ele><time>2013-07-23T10:34:10Z</time></trkpt><trkpt lat="46.6423402168" lon="12.3086019326"><ele>2548.11</ele><time>2013-07-23T10:34:23Z</time></trkpt><trkpt lat="46.6423190106" lon="12.3086095601"><ele>2547.63</ele><time>2013-07-23T10:34:40Z</time></trkpt><trkpt lat="46.6422966309" lon="12.3085904494"><ele>2547.15</ele><time>2013-07-23T10:34:52Z</time></trkpt><trkpt lat="46.6423070244" lon="12.3085826542"><ele>2546.67</ele><time>2013-07-23T10:35:03Z</time></trkpt><trkpt lat="46.6423153225" lon="12.3085273337"><ele>2544.75</ele><time>2013-07-23T10:35:12Z</time></trkpt><trkpt lat="46.6423189268" lon="12.3085181136"><ele>2544.27</ele><time>2013-07-23T10:35:21Z</time></trkpt><trkpt lat="46.6423154064" lon="12.3085358832"><ele>2541.86</ele><time>2013-07-23T10:35:30Z</time></trkpt><trkpt lat="46.6423122212" lon="12.3085391521"><ele>2540.42</ele><time>2013-07-23T10:35:38Z</time></trkpt><trkpt lat="46.6422926076" lon="12.3085554969"><ele>2539.46</ele><time>2013-07-23T10:35:46Z</time></trkpt><trkpt lat="46.6422852315" lon="12.3085759487"><ele>2538.98</ele><time>2013-07-23T10:35:55Z</time></trkpt><trkpt lat="46.6422591638" lon="12.3085868452"><ele>2537.54</ele><time>2013-07-23T10:36:06Z</time></trkpt><trkpt lat="46.6422165837" lon="12.3085792176"><ele>2536.10</ele><time>2013-07-23T10:36:11Z</time></trkpt><trkpt lat="46.6421823855" lon="12.3085829895"><ele>2536.10</ele><time>2013-07-23T10:36:13Z</time></trkpt><trkpt lat="46.6421496961" lon="12.3085824028"><ele>2535.13</ele><time>2013-07-23T10:36:17Z</time></trkpt><trkpt lat="46.6420330200" lon="12.3085944727"><ele>2532.73</ele><time>2013-07-23T10:36:29Z</time></trkpt><trkpt lat="46.6420060303" lon="12.3086264916"><ele>2532.25</ele><time>2013-07-23T10:36:34Z</time></trkpt><trkpt lat="46.6418967303" lon="12.3086425848"><ele>2531.29</ele><time>2013-07-23T10:36:44Z</time></trkpt><trkpt lat="46.6417750251" lon="12.3086932953"><ele>2530.33</ele><time>2013-07-23T10:36:55Z</time></trkpt><trkpt lat="46.6416423395" lon="12.3086964805"><ele>2529.37</ele><time>2013-07-23T10:37:05Z</time></trkpt><trkpt lat="46.6416005138" lon="12.3087116517"><ele>2528.40</ele><time>2013-07-23T10:37:09Z</time></trkpt><trkpt lat="46.6415324528" lon="12.3087645415"><ele>2526.48</ele><time>2013-07-23T10:37:16Z</time></trkpt><trkpt lat="46.6414479632" lon="12.3087804671"><ele>2523.60</ele><time>2013-07-23T10:37:26Z</time></trkpt><trkpt lat="46.6413678322" lon="12.3088325188"><ele>2522.16</ele><time>2013-07-23T10:37:35Z</time></trkpt><trkpt lat="46.6413102485" lon="12.3088482767"><ele>2520.71</ele><time>2013-07-23T10:37:41Z</time></trkpt><trkpt lat="46.6412545927" lon="12.3088392243"><ele>2519.75</ele><time>2013-07-23T10:37:43Z</time></trkpt><trkpt lat="46.6411487292" lon="12.3088090494"><ele>2517.35</ele><time>2013-07-23T10:37:53Z</time></trkpt><trkpt lat="46.6410892177" lon="12.3087885976"><ele>2515.91</ele><time>2013-07-23T10:38:02Z</time></trkpt><trkpt lat="46.6410782374" lon="12.3088080436"><ele>2515.91</ele><time>2013-07-23T10:38:04Z</time></trkpt><trkpt lat="46.6410073265" lon="12.3087666370"><ele>2514.95</ele><time>2013-07-23T10:38:11Z</time></trkpt><trkpt lat="46.6409433726" lon="12.3087910283"><ele>2513.50</ele><time>2013-07-23T10:38:20Z</time></trkpt><trkpt lat="46.6409328114" lon="12.3087894358"><ele>2512.06</ele><time>2013-07-23T10:38:29Z</time></trkpt><trkpt lat="46.6408832744" lon="12.3088312615"><ele>2509.66</ele><time>2013-07-23T10:38:38Z</time></trkpt><trkpt lat="46.6407764889" lon="12.3088411521"><ele>2508.70</ele><time>2013-07-23T10:38:48Z</time></trkpt><trkpt lat="46.6407425422" lon="12.3088733386"><ele>2506.77</ele><time>2013-07-23T10:38:57Z</time></trkpt><trkpt lat="46.6406645067" lon="12.3089038488"><ele>2506.29</ele><time>2013-07-23T10:39:04Z</time></trkpt><trkpt lat="46.6405728087" lon="12.3089479376"><ele>2503.41</ele><time>2013-07-23T10:39:13Z</time></trkpt><trkpt lat="46.6405500099" lon="12.3089754302"><ele>2502.45</ele><time>2013-07-23T10:39:21Z</time></trkpt><trkpt lat="46.6405311506" lon="12.3090147413"><ele>2500.53</ele><time>2013-07-23T10:39:27Z</time></trkpt><trkpt lat="46.6404787637" lon="12.3090318404"><ele>2499.08</ele><time>2013-07-23T10:39:36Z</time></trkpt><trkpt lat="46.6404493432" lon="12.3090754263"><ele>2497.16</ele><time>2013-07-23T10:39:46Z</time></trkpt><trkpt lat="46.6404264607" lon="12.3091540486"><ele>2494.76</ele><time>2013-07-23T10:39:55Z</time></trkpt><trkpt lat="46.6403763369" lon="12.3092238698"><ele>2493.32</ele><time>2013-07-23T10:40:01Z</time></trkpt><trkpt lat="46.6403594892" lon="12.3092579842"><ele>2492.84</ele><time>2013-07-23T10:40:04Z</time></trkpt><trkpt lat="46.6402405500" lon="12.3093358520"><ele>2491.39</ele><time>2013-07-23T10:40:14Z</time></trkpt><trkpt lat="46.6402066033" lon="12.3093852215"><ele>2489.47</ele><time>2013-07-23T10:40:23Z</time></trkpt><trkpt lat="46.6401341837" lon="12.3094436433"><ele>2487.55</ele><time>2013-07-23T10:40:32Z</time></trkpt><trkpt lat="46.6400003247" lon="12.3094820324"><ele>2485.63</ele><time>2013-07-23T10:40:43Z</time></trkpt><trkpt lat="46.6399552301" lon="12.3094801884"><ele>2484.66</ele><time>2013-07-23T10:40:47Z</time></trkpt><trkpt lat="46.6398947127" lon="12.3094055895"><ele>2483.70</ele><time>2013-07-23T10:40:53Z</time></trkpt><trkpt lat="46.6398571618" lon="12.3093551304"><ele>2482.26</ele><time>2013-07-23T10:40:58Z</time></trkpt><trkpt lat="46.6398498695" lon="12.3093477543"><ele>2481.78</ele><time>2013-07-23T10:41:00Z</time></trkpt><trkpt lat="46.6397794615" lon="12.3093453236"><ele>2479.86</ele><time>2013-07-23T10:41:10Z</time></trkpt><trkpt lat="46.6397303436" lon="12.3093438987"><ele>2478.90</ele><time>2013-07-23T10:41:18Z</time></trkpt><trkpt lat="46.6396839917" lon="12.3093575612"><ele>2477.94</ele><time>2013-07-23T10:41:24Z</time></trkpt><trkpt lat="46.6395953111" lon="12.3094920907"><ele>2476.01</ele><time>2013-07-23T10:41:36Z</time></trkpt><trkpt lat="46.6395320278" lon="12.3095899913"><ele>2475.05</ele><time>2013-07-23T10:41:46Z</time></trkpt><trkpt lat="46.6395235620" lon="12.3095910810"><ele>2475.05</ele><time>2013-07-23T10:41:47Z</time></trkpt><trkpt lat="46.6394144297" lon="12.3097180668"><ele>2472.65</ele><time>2013-07-23T10:41:59Z</time></trkpt><trkpt lat="46.6393915471" lon="12.3097693641"><ele>2471.69</ele><time>2013-07-23T10:42:02Z</time></trkpt><trkpt lat="46.6392285191" lon="12.3097965214"><ele>2470.73</ele><time>2013-07-23T10:42:14Z</time></trkpt><trkpt lat="46.6392216459" lon="12.3097970244"><ele>2469.76</ele><time>2013-07-23T10:42:15Z</time></trkpt><trkpt lat="46.6391322110" lon="12.3098521773"><ele>2468.32</ele><time>2013-07-23T10:42:24Z</time></trkpt><trkpt lat="46.6390837636" lon="12.3098660912"><ele>2467.84</ele><time>2013-07-23T10:42:27Z</time></trkpt><trkpt lat="46.6390356515" lon="12.3098365031"><ele>2467.36</ele><time>2013-07-23T10:42:31Z</time></trkpt><trkpt lat="46.6390122660" lon="12.3098319769"><ele>2466.40</ele><time>2013-07-23T10:42:33Z</time></trkpt><trkpt lat="46.6389955021" lon="12.3098122794"><ele>2465.44</ele><time>2013-07-23T10:42:36Z</time></trkpt><trkpt lat="46.6389603820" lon="12.3098341562"><ele>2464.96</ele><time>2013-07-23T10:42:45Z</time></trkpt><trkpt lat="46.6389406845" lon="12.3098677676"><ele>2464.00</ele><time>2013-07-23T10:42:50Z</time></trkpt><trkpt lat="46.6388748027" lon="12.3099445459"><ele>2461.59</ele><time>2013-07-23T10:43:01Z</time></trkpt><trkpt lat="46.6387467273" lon="12.3100452125"><ele>2460.15</ele><time>2013-07-23T10:43:11Z</time></trkpt><trkpt lat="46.6386797559" lon="12.3100781534"><ele>2458.23</ele><time>2013-07-23T10:43:15Z</time></trkpt><trkpt lat="46.6386691108" lon="12.3100826796"><ele>2457.75</ele><time>2013-07-23T10:43:18Z</time></trkpt><trkpt lat="46.6386468988" lon="12.3101152014"><ele>2457.27</ele><time>2013-07-23T10:43:22Z</time></trkpt><trkpt lat="46.6386226751" lon="12.3101286124"><ele>2456.79</ele><time>2013-07-23T10:43:24Z</time></trkpt><trkpt lat="46.6384928394" lon="12.3101269361"><ele>2453.90</ele><time>2013-07-23T10:43:33Z</time></trkpt><trkpt lat="46.6384729743" lon="12.3101056460"><ele>2453.90</ele><time>2013-07-23T10:43:34Z</time></trkpt><trkpt lat="46.6384520195" lon="12.3100460507"><ele>2452.46</ele><time>2013-07-23T10:43:44Z</time></trkpt><trkpt lat="46.6384520195" lon="12.3100460507"><ele>2452.46</ele><time>2013-07-23T10:44:06Z</time></trkpt><trkpt lat="46.6384611558" lon="12.3100339808"><ele>2452.94</ele><time>2013-07-23T10:44:25Z</time></trkpt><trkpt lat="46.6384511814" lon="12.3100427818"><ele>2452.94</ele><time>2013-07-23T10:44:27Z</time></trkpt><trkpt lat="46.6384131275" lon="12.3100821767"><ele>2451.98</ele><time>2013-07-23T10:44:32Z</time></trkpt><trkpt lat="46.6382905841" lon="12.3100934085"><ele>2449.58</ele><time>2013-07-23T10:44:42Z</time></trkpt><trkpt lat="46.6382181644" lon="12.3101563565"><ele>2446.69</ele><time>2013-07-23T10:44:53Z</time></trkpt><trkpt lat="46.6381952818" lon="12.3101521656"><ele>2446.21</ele><time>2013-07-23T10:44:56Z</time></trkpt><trkpt lat="46.6381605808" lon="12.3101434484"><ele>2444.77</ele><time>2013-07-23T10:45:01Z</time></trkpt><trkpt lat="46.6381116305" lon="12.3101841845"><ele>2442.85</ele><time>2013-07-23T10:45:06Z</time></trkpt><trkpt lat="46.6380790249" lon="12.3101503216"><ele>2441.89</ele><time>2013-07-23T10:45:10Z</time></trkpt><trkpt lat="46.6380465869" lon="12.3101359047"><ele>2441.41</ele><time>2013-07-23T10:45:12Z</time></trkpt><trkpt lat="46.6379751731" lon="12.3100292869"><ele>2439.96</ele><time>2013-07-23T10:45:20Z</time></trkpt><trkpt lat="46.6379553080" lon="12.3099877127"><ele>2438.52</ele><time>2013-07-23T10:45:23Z</time></trkpt><trkpt lat="46.6379188467" lon="12.3099655844"><ele>2437.56</ele><time>2013-07-23T10:45:26Z</time></trkpt><trkpt lat="46.6378430743" lon="12.3099777382"><ele>2435.64</ele><time>2013-07-23T10:45:32Z</time></trkpt><trkpt lat="46.6377035994" lon="12.3099584598"><ele>2432.75</ele><time>2013-07-23T10:45:43Z</time></trkpt><trkpt lat="46.6376674734" lon="12.3099984415"><ele>2431.79</ele><time>2013-07-23T10:45:46Z</time></trkpt><trkpt lat="46.6375500429" lon="12.3101289477"><ele>2430.35</ele><time>2013-07-23T10:45:57Z</time></trkpt><trkpt lat="46.6375201195" lon="12.3101539258"><ele>2429.39</ele><time>2013-07-23T10:46:00Z</time></trkpt><trkpt lat="46.6374584287" lon="12.3101816699"><ele>2428.43</ele><time>2013-07-23T10:46:06Z</time></trkpt><trkpt lat="46.6373816505" lon="12.3103340529"><ele>2425.06</ele><time>2013-07-23T10:46:16Z</time></trkpt><trkpt lat="46.6373742744" lon="12.3103502300"><ele>2425.06</ele><time>2013-07-23T10:46:17Z</time></trkpt><trkpt lat="46.6372464504" lon="12.3105026968"><ele>2424.10</ele><time>2013-07-23T10:46:29Z</time></trkpt><trkpt lat="46.6371169500" lon="12.3106548283"><ele>2423.62</ele><time>2013-07-23T10:46:41Z</time></trkpt><trkpt lat="46.6369996872" lon="12.3107310198"><ele>2423.14</ele><time>2013-07-23T10:46:52Z</time></trkpt><trkpt lat="46.6369479708" lon="12.3106963187"><ele>2423.14</ele><time>2013-07-23T10:47:02Z</time></trkpt><trkpt lat="46.6369479708" lon="12.3106963187"><ele>2423.62</ele><time>2013-07-23T10:47:21Z</time></trkpt><trkpt lat="46.6369479708" lon="12.3106963187"><ele>2422.66</ele><time>2013-07-23T10:47:33Z</time></trkpt><trkpt lat="46.6369396728" lon="12.3106944747"><ele>2422.18</ele><time>2013-07-23T10:47:49Z</time></trkpt><trkpt lat="46.6369396728" lon="12.3106944747"><ele>2423.14</ele><time>2013-07-23T10:48:08Z</time></trkpt><trkpt lat="46.6369366553" lon="12.3106921278"><ele>2423.14</ele><time>2013-07-23T10:48:27Z</time></trkpt><trkpt lat="46.6369366553" lon="12.3106921278"><ele>2423.14</ele><time>2013-07-23T10:48:51Z</time></trkpt><trkpt lat="46.6369319614" lon="12.3106900323"><ele>2423.14</ele><time>2013-07-23T10:49:15Z</time></trkpt><trkpt lat="46.6369319614" lon="12.3106900323"><ele>2423.14</ele><time>2013-07-23T10:49:32Z</time></trkpt><trkpt lat="46.6369322129" lon="12.3106893618"><ele>2423.14</ele><time>2013-07-23T10:49:51Z</time></trkpt><trkpt lat="46.6369195562" lon="12.3106586840"><ele>2422.66</ele><time>2013-07-23T10:50:01Z</time></trkpt><trkpt lat="46.6369195562" lon="12.3106586840"><ele>2422.18</ele><time>2013-07-23T10:50:19Z</time></trkpt><trkpt lat="46.6369199753" lon="12.3106582649"><ele>2421.70</ele><time>2013-07-23T10:50:42Z</time></trkpt><trkpt lat="46.6369199753" lon="12.3106582649"><ele>2422.18</ele><time>2013-07-23T10:51:01Z</time></trkpt><trkpt lat="46.6369187180" lon="12.3106565047"><ele>2421.22</ele><time>2013-07-23T10:51:25Z</time></trkpt><trkpt lat="46.6369187180" lon="12.3106565047"><ele>2421.70</ele><time>2013-07-23T10:51:47Z</time></trkpt><trkpt lat="46.6369176283" lon="12.3106587678"><ele>2421.22</ele><time>2013-07-23T10:52:06Z</time></trkpt><trkpt lat="46.6369176283" lon="12.3106587678"><ele>2421.70</ele><time>2013-07-23T10:52:27Z</time></trkpt><trkpt lat="46.6369173769" lon="12.3106578458"><ele>2421.22</ele><time>2013-07-23T10:52:49Z</time></trkpt><trkpt lat="46.6369173769" lon="12.3106578458"><ele>2420.74</ele><time>2013-07-23T10:53:12Z</time></trkpt><trkpt lat="46.6369160358" lon="12.3106524814"><ele>2420.74</ele><time>2013-07-23T10:53:33Z</time></trkpt><trkpt lat="46.6369160358" lon="12.3106524814"><ele>2420.74</ele><time>2013-07-23T10:53:57Z</time></trkpt><trkpt lat="46.6369155329" lon="12.3106537387"><ele>2420.74</ele><time>2013-07-23T10:54:17Z</time></trkpt><trkpt lat="46.6369155329" lon="12.3106537387"><ele>2420.74</ele><time>2013-07-23T10:54:36Z</time></trkpt><trkpt lat="46.6369153652" lon="12.3106558342"><ele>2420.74</ele><time>2013-07-23T10:54:58Z</time></trkpt><trkpt lat="46.6369152814" lon="12.3106549121"><ele>2419.30</ele><time>2013-07-23T10:55:22Z</time></trkpt><trkpt lat="46.6369152814" lon="12.3106549121"><ele>2420.26</ele><time>2013-07-23T10:55:44Z</time></trkpt><trkpt lat="46.6369151976" lon="12.3106557503"><ele>2420.26</ele><time>2013-07-23T10:56:09Z</time></trkpt><trkpt lat="46.6369151976" lon="12.3106557503"><ele>2419.30</ele><time>2013-07-23T10:56:34Z</time></trkpt><trkpt lat="46.6369146109" lon="12.3106603604"><ele>2418.81</ele><time>2013-07-23T10:56:53Z</time></trkpt><trkpt lat="46.6369146109" lon="12.3106603604"><ele>2419.30</ele><time>2013-07-23T10:57:14Z</time></trkpt><trkpt lat="46.6369146109" lon="12.3106601089"><ele>2419.30</ele><time>2013-07-23T10:57:34Z</time></trkpt><trkpt lat="46.6369146109" lon="12.3106601089"><ele>2419.30</ele><time>2013-07-23T10:57:56Z</time></trkpt><trkpt lat="46.6369146947" lon="12.3106611986"><ele>2418.81</ele><time>2013-07-23T10:58:16Z</time></trkpt><trkpt lat="46.6369146947" lon="12.3106611986"><ele>2418.81</ele><time>2013-07-23T10:58:38Z</time></trkpt><trkpt lat="46.6369139403" lon="12.3106607795"><ele>2419.30</ele><time>2013-07-23T10:58:58Z</time></trkpt><trkpt lat="46.6369124316" lon="12.3106611986"><ele>2418.33</ele><time>2013-07-23T10:59:15Z</time></trkpt><trkpt lat="46.6369124316" lon="12.3106611986"><ele>2418.33</ele><time>2013-07-23T10:59:38Z</time></trkpt><trkpt lat="46.6369131859" lon="12.3106615338"><ele>2418.33</ele><time>2013-07-23T11:00:02Z</time></trkpt><trkpt lat="46.6369151138" lon="12.3106731847"><ele>2418.81</ele><time>2013-07-23T11:00:13Z</time></trkpt><trkpt lat="46.6369151138" lon="12.3106731847"><ele>2417.85</ele><time>2013-07-23T11:00:36Z</time></trkpt><trkpt lat="46.6369182989" lon="12.3106627073"><ele>2418.81</ele><time>2013-07-23T11:00:51Z</time></trkpt><trkpt lat="46.6369159520" lon="12.3106567562"><ele>2418.81</ele><time>2013-07-23T11:01:07Z</time></trkpt><trkpt lat="46.6369193047" lon="12.3106611986"><ele>2418.33</ele><time>2013-07-23T11:01:25Z</time></trkpt><trkpt lat="46.6369193047" lon="12.3106611986"><ele>2418.33</ele><time>2013-07-23T11:01:42Z</time></trkpt><trkpt lat="46.6369193047" lon="12.3106611986"><ele>2417.85</ele><time>2013-07-23T11:01:57Z</time></trkpt><trkpt lat="46.6369172931" lon="12.3106616177"><ele>2418.33</ele><time>2013-07-23T11:02:18Z</time></trkpt><trkpt lat="46.6369172931" lon="12.3106616177"><ele>2418.33</ele><time>2013-07-23T11:02:35Z</time></trkpt><trkpt lat="46.6369179636" lon="12.3106604442"><ele>2417.85</ele><time>2013-07-23T11:02:53Z</time></trkpt><trkpt lat="46.6369179636" lon="12.3106604442"><ele>2417.85</ele><time>2013-07-23T11:03:13Z</time></trkpt><trkpt lat="46.6369175445" lon="12.3106606957"><ele>2417.85</ele><time>2013-07-23T11:03:35Z</time></trkpt><trkpt lat="46.6369175445" lon="12.3106606957"><ele>2417.85</ele><time>2013-07-23T11:03:50Z</time></trkpt><trkpt lat="46.6369269323" lon="12.3106499668"><ele>2418.33</ele><time>2013-07-23T11:04:00Z</time></trkpt><trkpt lat="46.6369269323" lon="12.3106499668"><ele>2418.33</ele><time>2013-07-23T11:04:21Z</time></trkpt><trkpt lat="46.6369269323" lon="12.3106456082"><ele>2417.37</ele><time>2013-07-23T11:04:39Z</time></trkpt><trkpt lat="46.6369394213" lon="12.3106451053"><ele>2417.37</ele><time>2013-07-23T11:04:53Z</time></trkpt><trkpt lat="46.6369544249" lon="12.3106429260"><ele>2417.85</ele><time>2013-07-23T11:05:06Z</time></trkpt><trkpt lat="46.6369601246" lon="12.3106639646"><ele>2417.85</ele><time>2013-07-23T11:05:16Z</time></trkpt><trkpt lat="46.6369541734" lon="12.3107300978"><ele>2416.89</ele><time>2013-07-23T11:05:26Z</time></trkpt><trkpt lat="46.6369197238" lon="12.3108228855"><ele>2415.93</ele><time>2013-07-23T11:05:36Z</time></trkpt><trkpt lat="46.6368929017" lon="12.3108813073"><ele>2414.97</ele><time>2013-07-23T11:05:46Z</time></trkpt><trkpt lat="46.6368588712" lon="12.3109557386"><ele>2414.01</ele><time>2013-07-23T11:05:54Z</time></trkpt><trkpt lat="46.6368276067" lon="12.3110736720"><ele>2412.57</ele><time>2013-07-23T11:06:05Z</time></trkpt><trkpt lat="46.6367991082" lon="12.3111631908"><ele>2412.57</ele><time>2013-07-23T11:06:13Z</time></trkpt><trkpt lat="46.6367723700" lon="12.3112515360"><ele>2412.09</ele><time>2013-07-23T11:06:24Z</time></trkpt><trkpt lat="46.6367285326" lon="12.3113221116"><ele>2412.57</ele><time>2013-07-23T11:06:33Z</time></trkpt><trkpt lat="46.6367227491" lon="12.3113668710"><ele>2412.09</ele><time>2013-07-23T11:06:42Z</time></trkpt><trkpt lat="46.6367227491" lon="12.3113668710"><ele>2412.57</ele><time>2013-07-23T11:06:57Z</time></trkpt><trkpt lat="46.6367227491" lon="12.3113668710"><ele>2412.57</ele><time>2013-07-23T11:07:13Z</time></trkpt><trkpt lat="46.6367287841" lon="12.3113909271"><ele>2412.57</ele><time>2013-07-23T11:07:23Z</time></trkpt><trkpt lat="46.6367287841" lon="12.3113909271"><ele>2413.05</ele><time>2013-07-23T11:07:38Z</time></trkpt><trkpt lat="46.6367287841" lon="12.3113909271"><ele>2414.01</ele><time>2013-07-23T11:08:01Z</time></trkpt><trkpt lat="46.6367248446" lon="12.3114038352"><ele>2413.53</ele><time>2013-07-23T11:08:15Z</time></trkpt><trkpt lat="46.6367248446" lon="12.3114038352"><ele>2413.05</ele><time>2013-07-23T11:08:34Z</time></trkpt><trkpt lat="46.6367280297" lon="12.3114074394"><ele>2413.05</ele><time>2013-07-23T11:08:51Z</time></trkpt><trkpt lat="46.6367280297" lon="12.3114074394"><ele>2413.05</ele><time>2013-07-23T11:09:12Z</time></trkpt><trkpt lat="46.6367313825" lon="12.3114282265"><ele>2413.05</ele><time>2013-07-23T11:09:26Z</time></trkpt><trkpt lat="46.6367033869" lon="12.3114720639"><ele>2413.05</ele><time>2013-07-23T11:09:43Z</time></trkpt><trkpt lat="46.6366746370" lon="12.3115124647"><ele>2413.05</ele><time>2013-07-23T11:09:51Z</time></trkpt><trkpt lat="46.6366622318" lon="12.3115236126"><ele>2413.05</ele><time>2013-07-23T11:10:02Z</time></trkpt><trkpt lat="46.6366257705" lon="12.3115955293"><ele>2414.97</ele><time>2013-07-23T11:10:14Z</time></trkpt><trkpt lat="46.6366024688" lon="12.3116286378"><ele>2415.45</ele><time>2013-07-23T11:10:24Z</time></trkpt><trkpt lat="46.6366018821" lon="12.3116472457"><ele>2416.89</ele><time>2013-07-23T11:10:34Z</time></trkpt><trkpt lat="46.6365684383" lon="12.3117219284"><ele>2418.33</ele><time>2013-07-23T11:10:43Z</time></trkpt><trkpt lat="46.6365295462" lon="12.3117851280"><ele>2419.30</ele><time>2013-07-23T11:10:55Z</time></trkpt><trkpt lat="46.6365260258" lon="12.3117997963"><ele>2420.26</ele><time>2013-07-23T11:11:04Z</time></trkpt><trkpt lat="46.6364970244" lon="12.3118324019"><ele>2421.22</ele><time>2013-07-23T11:11:14Z</time></trkpt><trkpt lat="46.6365011316" lon="12.3118656781"><ele>2422.18</ele><time>2013-07-23T11:11:21Z</time></trkpt><trkpt lat="46.6365080047" lon="12.3118858784"><ele>2424.10</ele><time>2013-07-23T11:11:32Z</time></trkpt><trkpt lat="46.6364545282" lon="12.3119789176"><ele>2424.58</ele><time>2013-07-23T11:11:43Z</time></trkpt><trkpt lat="46.6364171449" lon="12.3120405246"><ele>2425.54</ele><time>2013-07-23T11:11:53Z</time></trkpt><trkpt lat="46.6363739781" lon="12.3120618146"><ele>2427.47</ele><time>2013-07-23T11:12:03Z</time></trkpt><trkpt lat="46.6363506764" lon="12.3120586295"><ele>2428.43</ele><time>2013-07-23T11:12:12Z</time></trkpt><trkpt lat="46.6363226809" lon="12.3120707832"><ele>2430.35</ele><time>2013-07-23T11:12:21Z</time></trkpt><trkpt lat="46.6362826992" lon="12.3120974377"><ele>2431.79</ele><time>2013-07-23T11:12:31Z</time></trkpt><trkpt lat="46.6362618282" lon="12.3121046461"><ele>2432.27</ele><time>2013-07-23T11:12:35Z</time></trkpt><trkpt lat="46.6362065915" lon="12.3121434543"><ele>2434.20</ele><time>2013-07-23T11:12:45Z</time></trkpt><trkpt lat="46.6361544561" lon="12.3121735454"><ele>2434.68</ele><time>2013-07-23T11:12:56Z</time></trkpt><trkpt lat="46.6360910889" lon="12.3121737130"><ele>2435.16</ele><time>2013-07-23T11:13:05Z</time></trkpt><trkpt lat="46.6360673681" lon="12.3122438695"><ele>2436.60</ele><time>2013-07-23T11:13:15Z</time></trkpt><trkpt lat="46.6360278055" lon="12.3122944962"><ele>2438.52</ele><time>2013-07-23T11:13:26Z</time></trkpt><trkpt lat="46.6360190883" lon="12.3123137746"><ele>2438.52</ele><time>2013-07-23T11:13:28Z</time></trkpt><trkpt lat="46.6359676234" lon="12.3123149481"><ele>2437.08</ele><time>2013-07-23T11:13:36Z</time></trkpt><trkpt lat="46.6358818766" lon="12.3123263475"><ele>2437.08</ele><time>2013-07-23T11:13:46Z</time></trkpt><trkpt lat="46.6358201019" lon="12.3123307899"><ele>2438.52</ele><time>2013-07-23T11:13:55Z</time></trkpt><trkpt lat="46.6358116362" lon="12.3123267666"><ele>2438.52</ele><time>2013-07-23T11:13:56Z</time></trkpt><trkpt lat="46.6357223690" lon="12.3123433627"><ele>2439.96</ele><time>2013-07-23T11:14:07Z</time></trkpt><trkpt lat="46.6357007436" lon="12.3123452067"><ele>2440.92</ele><time>2013-07-23T11:14:10Z</time></trkpt><trkpt lat="46.6356265638" lon="12.3123665806"><ele>2442.37</ele><time>2013-07-23T11:14:20Z</time></trkpt><trkpt lat="46.6355737578" lon="12.3123867810"><ele>2443.81</ele><time>2013-07-23T11:14:32Z</time></trkpt><trkpt lat="46.6355248913" lon="12.3124100827"><ele>2444.29</ele><time>2013-07-23T11:14:42Z</time></trkpt><trkpt lat="46.6354818922" lon="12.3124304507"><ele>2444.77</ele><time>2013-07-23T11:14:54Z</time></trkpt><trkpt lat="46.6354891006" lon="12.3124093283"><ele>2444.77</ele><time>2013-07-23T11:15:10Z</time></trkpt><trkpt lat="46.6354637034" lon="12.3124657385"><ele>2443.33</ele><time>2013-07-23T11:15:19Z</time></trkpt><trkpt lat="46.6354469396" lon="12.3124784790"><ele>2442.85</ele><time>2013-07-23T11:15:21Z</time></trkpt><trkpt lat="46.6353089735" lon="12.3124968354"><ele>2442.37</ele><time>2013-07-23T11:15:31Z</time></trkpt><trkpt lat="46.6352098156" lon="12.3124980927"><ele>2443.81</ele><time>2013-07-23T11:15:40Z</time></trkpt><trkpt lat="46.6351723485" lon="12.3125077318"><ele>2445.73</ele><time>2013-07-23T11:15:51Z</time></trkpt><trkpt lat="46.6350849252" lon="12.3125296924"><ele>2445.73</ele><time>2013-07-23T11:16:03Z</time></trkpt><trkpt lat="46.6350467876" lon="12.3126035370"><ele>2446.69</ele><time>2013-07-23T11:16:14Z</time></trkpt><trkpt lat="46.6350259166" lon="12.3126387410"><ele>2448.62</ele><time>2013-07-23T11:16:24Z</time></trkpt><trkpt lat="46.6349928919" lon="12.3126886133"><ele>2446.21</ele><time>2013-07-23T11:16:34Z</time></trkpt><trkpt lat="46.6349457856" lon="12.3128060438"><ele>2447.17</ele><time>2013-07-23T11:16:45Z</time></trkpt><trkpt lat="46.6349027026" lon="12.3128776252"><ele>2447.65</ele><time>2013-07-23T11:16:54Z</time></trkpt><trkpt lat="46.6347887926" lon="12.3129547387"><ele>2447.17</ele><time>2013-07-23T11:17:05Z</time></trkpt><trkpt lat="46.6347726993" lon="12.3129692394"><ele>2447.65</ele><time>2013-07-23T11:17:07Z</time></trkpt><trkpt lat="46.6346773971" lon="12.3129459377"><ele>2446.69</ele><time>2013-07-23T11:17:17Z</time></trkpt><trkpt lat="46.6345954221" lon="12.3130086344"><ele>2445.73</ele><time>2013-07-23T11:17:29Z</time></trkpt><trkpt lat="46.6345426999" lon="12.3130767792"><ele>2443.33</ele><time>2013-07-23T11:17:40Z</time></trkpt><trkpt lat="46.6345426999" lon="12.3130767792"><ele>2442.85</ele><time>2013-07-23T11:17:53Z</time></trkpt><trkpt lat="46.6345357429" lon="12.3130751029"><ele>2443.33</ele><time>2013-07-23T11:18:14Z</time></trkpt><trkpt lat="46.6345357429" lon="12.3130751029"><ele>2442.85</ele><time>2013-07-23T11:18:31Z</time></trkpt><trkpt lat="46.6345359944" lon="12.3130756896"><ele>2444.29</ele><time>2013-07-23T11:18:52Z</time></trkpt><trkpt lat="46.6345359944" lon="12.3130756896"><ele>2443.33</ele><time>2013-07-23T11:19:10Z</time></trkpt><trkpt lat="46.6345354076" lon="12.3130801320"><ele>2442.85</ele><time>2013-07-23T11:19:34Z</time></trkpt><trkpt lat="46.6345318034" lon="12.3130689003"><ele>2443.33</ele><time>2013-07-23T11:19:46Z</time></trkpt><trkpt lat="46.6345318034" lon="12.3130689003"><ele>2443.33</ele><time>2013-07-23T11:20:11Z</time></trkpt><trkpt lat="46.6345315520" lon="12.3130742647"><ele>2443.33</ele><time>2013-07-23T11:20:34Z</time></trkpt><trkpt lat="46.6345304623" lon="12.3130766116"><ele>2443.33</ele><time>2013-07-23T11:20:53Z</time></trkpt><trkpt lat="46.6345304623" lon="12.3130766116"><ele>2443.33</ele><time>2013-07-23T11:21:14Z</time></trkpt><trkpt lat="46.6345276125" lon="12.3130834009"><ele>2443.81</ele><time>2013-07-23T11:21:39Z</time></trkpt><trkpt lat="46.6345276125" lon="12.3130834009"><ele>2442.85</ele><time>2013-07-23T11:21:52Z</time></trkpt><trkpt lat="46.6345209908" lon="12.3130839877"><ele>2443.81</ele><time>2013-07-23T11:22:06Z</time></trkpt><trkpt lat="46.6345011257" lon="12.3130640388"><ele>2442.37</ele><time>2013-07-23T11:22:18Z</time></trkpt><trkpt lat="46.6345011257" lon="12.3130640388"><ele>2442.85</ele><time>2013-07-23T11:22:38Z</time></trkpt><trkpt lat="46.6345067415" lon="12.3130580038"><ele>2442.37</ele><time>2013-07-23T11:22:59Z</time></trkpt><trkpt lat="46.6344830208" lon="12.3130051978"><ele>2442.37</ele><time>2013-07-23T11:23:09Z</time></trkpt><trkpt lat="46.6344310530" lon="12.3130428325"><ele>2440.44</ele><time>2013-07-23T11:23:19Z</time></trkpt><trkpt lat="46.6343593039" lon="12.3130404018"><ele>2441.89</ele><time>2013-07-23T11:23:31Z</time></trkpt><trkpt lat="46.6313171759" lon="12.3150192853"><ele>2541.86</ele><time>2013-07-23T11:50:58Z</time></trkpt><trkpt lat="46.6313171759" lon="12.3150192853"><ele>2543.31</ele><time>2013-07-23T11:51:12Z</time></trkpt><trkpt lat="46.6313171759" lon="12.3150192853"><ele>2542.82</ele><time>2013-07-23T11:51:23Z</time></trkpt><trkpt lat="46.6313234624" lon="12.3150104005"><ele>2543.31</ele><time>2013-07-23T11:51:37Z</time></trkpt><trkpt lat="46.6313234624" lon="12.3150104005"><ele>2543.31</ele><time>2013-07-23T11:51:48Z</time></trkpt><trkpt lat="46.6313234624" lon="12.3150104005"><ele>2544.27</ele><time>2013-07-23T11:51:59Z</time></trkpt><trkpt lat="46.6312984005" lon="12.3150449339"><ele>2544.27</ele><time>2013-07-23T11:52:11Z</time></trkpt><trkpt lat="46.6312984005" lon="12.3150449339"><ele>2544.75</ele><time>2013-07-23T11:52:20Z</time></trkpt><trkpt lat="46.6312984005" lon="12.3150449339"><ele>2544.75</ele><time>2013-07-23T11:52:36Z</time></trkpt><trkpt lat="46.6312984005" lon="12.3150449339"><ele>2545.71</ele><time>2013-07-23T11:52:45Z</time></trkpt><trkpt lat="46.6312930360" lon="12.3150617816"><ele>2545.71</ele><time>2013-07-23T11:53:00Z</time></trkpt><trkpt lat="46.6312930360" lon="12.3150617816"><ele>2545.71</ele><time>2013-07-23T11:53:13Z</time></trkpt><trkpt lat="46.6312982328" lon="12.3150700796"><ele>2545.23</ele><time>2013-07-23T11:53:29Z</time></trkpt><trkpt lat="46.6312982328" lon="12.3150700796"><ele>2546.19</ele><time>2013-07-23T11:53:41Z</time></trkpt><trkpt lat="46.6312982328" lon="12.3150700796"><ele>2545.71</ele><time>2013-07-23T11:53:59Z</time></trkpt><trkpt lat="46.6312822234" lon="12.3150757793"><ele>2545.23</ele><time>2013-07-23T11:54:18Z</time></trkpt><trkpt lat="46.6312822234" lon="12.3150757793"><ele>2545.23</ele><time>2013-07-23T11:54:39Z</time></trkpt><trkpt lat="46.6312822234" lon="12.3150757793"><ele>2545.23</ele><time>2013-07-23T11:54:46Z</time></trkpt><trkpt lat="46.6312304232" lon="12.3150168546"><ele>2546.67</ele><time>2013-07-23T11:54:55Z</time></trkpt><trkpt lat="46.6312337760" lon="12.3150159325"><ele>2548.11</ele><time>2013-07-23T11:55:06Z</time></trkpt><trkpt lat="46.6311999131" lon="12.3150676489"><ele>2549.07</ele><time>2013-07-23T11:55:14Z</time></trkpt><trkpt lat="46.6311999131" lon="12.3150676489"><ele>2549.55</ele><time>2013-07-23T11:55:26Z</time></trkpt><trkpt lat="46.6311999131" lon="12.3150676489"><ele>2550.51</ele><time>2013-07-23T11:55:31Z</time></trkpt><trkpt lat="46.6311945487" lon="12.3150530644"><ele>2552.92</ele><time>2013-07-23T11:55:42Z</time></trkpt><trkpt lat="46.6311945487" lon="12.3150530644"><ele>2552.92</ele><time>2013-07-23T11:55:51Z</time></trkpt><trkpt lat="46.6311951354" lon="12.3150352109"><ele>2554.36</ele><time>2013-07-23T11:56:01Z</time></trkpt><trkpt lat="46.6311951354" lon="12.3150352109"><ele>2556.28</ele><time>2013-07-23T11:56:11Z</time></trkpt><trkpt lat="46.6311951354" lon="12.3150352109"><ele>2557.24</ele><time>2013-07-23T11:56:23Z</time></trkpt><trkpt lat="46.6311754379" lon="12.3150037788"><ele>2559.17</ele><time>2013-07-23T11:56:34Z</time></trkpt><trkpt lat="46.6311754379" lon="12.3150037788"><ele>2560.61</ele><time>2013-07-23T11:56:44Z</time></trkpt><trkpt lat="46.6311754379" lon="12.3150037788"><ele>2561.09</ele><time>2013-07-23T11:56:46Z</time></trkpt><trkpt lat="46.6311667208" lon="12.3150015995"><ele>2562.05</ele><time>2013-07-23T11:56:55Z</time></trkpt><trkpt lat="46.6311667208" lon="12.3150015995"><ele>2562.05</ele><time>2013-07-23T11:57:07Z</time></trkpt><trkpt lat="46.6311667208" lon="12.3150015995"><ele>2562.05</ele><time>2013-07-23T11:57:25Z</time></trkpt><trkpt lat="46.6311709955" lon="12.3150057904"><ele>2561.57</ele><time>2013-07-23T11:57:41Z</time></trkpt><trkpt lat="46.6311709955" lon="12.3150057904"><ele>2561.57</ele><time>2013-07-23T11:57:42Z</time></trkpt><trkpt lat="46.6311601829" lon="12.3149824888"><ele>2562.05</ele><time>2013-07-23T11:57:52Z</time></trkpt><trkpt lat="46.6311381385" lon="12.3149389029"><ele>2563.01</ele><time>2013-07-23T11:57:58Z</time></trkpt><trkpt lat="46.6311229672" lon="12.3149667308"><ele>2564.45</ele><time>2013-07-23T11:58:08Z</time></trkpt><trkpt lat="46.6311229672" lon="12.3149667308"><ele>2564.45</ele><time>2013-07-23T11:58:10Z</time></trkpt><trkpt lat="46.6311072931" lon="12.3149653058"><ele>2565.90</ele><time>2013-07-23T11:58:20Z</time></trkpt><trkpt lat="46.6311072931" lon="12.3149653058"><ele>2567.34</ele><time>2013-07-23T11:58:31Z</time></trkpt><trkpt lat="46.6311072931" lon="12.3149653058"><ele>2568.78</ele><time>2013-07-23T11:58:43Z</time></trkpt><trkpt lat="46.6311026830" lon="12.3149811476"><ele>2569.74</ele><time>2013-07-23T11:58:52Z</time></trkpt><trkpt lat="46.6311026830" lon="12.3149811476"><ele>2569.74</ele><time>2013-07-23T11:59:08Z</time></trkpt><trkpt lat="46.6310934629" lon="12.3149970733"><ele>2570.70</ele><time>2013-07-23T11:59:17Z</time></trkpt><trkpt lat="46.6310934629" lon="12.3149970733"><ele>2571.66</ele><time>2013-07-23T11:59:27Z</time></trkpt><trkpt lat="46.6310934629" lon="12.3149970733"><ele>2573.59</ele><time>2013-07-23T11:59:38Z</time></trkpt><trkpt lat="46.6310934629" lon="12.3149970733"><ele>2573.11</ele><time>2013-07-23T11:59:41Z</time></trkpt><trkpt lat="46.6311063711" lon="12.3151236400"><ele>2574.07</ele><time>2013-07-23T11:59:51Z</time></trkpt><trkpt lat="46.6311232187" lon="12.3151470255"><ele>2575.51</ele><time>2013-07-23T11:59:59Z</time></trkpt><trkpt lat="46.6311202850" lon="12.3151554074"><ele>2575.99</ele><time>2013-07-23T12:00:13Z</time></trkpt><trkpt lat="46.6310878471" lon="12.3151612747"><ele>2576.95</ele><time>2013-07-23T12:00:22Z</time></trkpt><trkpt lat="46.6310779564" lon="12.3151766136"><ele>2578.39</ele><time>2013-07-23T12:00:29Z</time></trkpt><trkpt lat="46.6310752742" lon="12.3151813075"><ele>2578.87</ele><time>2013-07-23T12:00:42Z</time></trkpt><trkpt lat="46.6310672276" lon="12.3151987419"><ele>2579.84</ele><time>2013-07-23T12:00:52Z</time></trkpt><trkpt lat="46.6310306825" lon="12.3152089678"><ele>2581.28</ele><time>2013-07-23T12:01:04Z</time></trkpt><trkpt lat="46.6310029384" lon="12.3152260669"><ele>2583.20</ele><time>2013-07-23T12:01:13Z</time></trkpt><trkpt lat="46.6309837438" lon="12.3152331915"><ele>2584.16</ele><time>2013-07-23T12:01:22Z</time></trkpt><trkpt lat="46.6309617832" lon="12.3152706586"><ele>2586.08</ele><time>2013-07-23T12:01:33Z</time></trkpt><trkpt lat="46.6309296805" lon="12.3153077904"><ele>2587.04</ele><time>2013-07-23T12:01:44Z</time></trkpt><trkpt lat="46.6309296805" lon="12.3153077904"><ele>2587.04</ele><time>2013-07-23T12:02:03Z</time></trkpt><trkpt lat="46.6309291776" lon="12.3153081257"><ele>2587.53</ele><time>2013-07-23T12:02:25Z</time></trkpt><trkpt lat="46.6309273336" lon="12.3153130710"><ele>2587.53</ele><time>2013-07-23T12:02:31Z</time></trkpt><trkpt lat="46.6308886092" lon="12.3153576627"><ele>2587.53</ele><time>2013-07-23T12:02:37Z</time></trkpt><trkpt lat="46.6308700014" lon="12.3154026736"><ele>2588.49</ele><time>2013-07-23T12:02:45Z</time></trkpt><trkpt lat="46.6308590211" lon="12.3154069483"><ele>2589.93</ele><time>2013-07-23T12:02:56Z</time></trkpt><trkpt lat="46.6308399942" lon="12.3154279869"><ele>2591.85</ele><time>2013-07-23T12:03:07Z</time></trkpt><trkpt lat="46.6308168601" lon="12.3154511210"><ele>2593.29</ele><time>2013-07-23T12:03:16Z</time></trkpt><trkpt lat="46.6308039520" lon="12.3154739197"><ele>2593.77</ele><time>2013-07-23T12:03:23Z</time></trkpt><trkpt lat="46.6307934746" lon="12.3154836427"><ele>2594.74</ele><time>2013-07-23T12:03:35Z</time></trkpt><trkpt lat="46.6307945643" lon="12.3155075312"><ele>2595.22</ele><time>2013-07-23T12:03:45Z</time></trkpt><trkpt lat="46.6308130883" lon="12.3155277316"><ele>2596.18</ele><time>2013-07-23T12:03:55Z</time></trkpt><trkpt lat="46.6307813209" lon="12.3155263904"><ele>2597.62</ele><time>2013-07-23T12:04:03Z</time></trkpt><trkpt lat="46.6307652276" lon="12.3155597504"><ele>2598.58</ele><time>2013-07-23T12:04:14Z</time></trkpt><trkpt lat="46.6307596955" lon="12.3155620974"><ele>2599.54</ele><time>2013-07-23T12:04:21Z</time></trkpt><trkpt lat="46.6306942329" lon="12.3155689705"><ele>2600.50</ele><time>2013-07-23T12:04:28Z</time></trkpt><trkpt lat="46.6306739487" lon="12.3155822139"><ele>2601.46</ele><time>2013-07-23T12:04:39Z</time></trkpt><trkpt lat="46.6306487191" lon="12.3155943677"><ele>2600.02</ele><time>2013-07-23T12:04:55Z</time></trkpt><trkpt lat="46.6306139342" lon="12.3156134784"><ele>2600.50</ele><time>2013-07-23T12:05:03Z</time></trkpt><trkpt lat="46.6306142695" lon="12.3156632669"><ele>2600.98</ele><time>2013-07-23T12:05:13Z</time></trkpt><trkpt lat="46.6306167841" lon="12.3157014046"><ele>2601.46</ele><time>2013-07-23T12:05:25Z</time></trkpt><trkpt lat="46.6306167841" lon="12.3157014046"><ele>2601.46</ele><time>2013-07-23T12:05:49Z</time></trkpt><trkpt lat="46.6306171194" lon="12.3157012369"><ele>2601.46</ele><time>2013-07-23T12:06:10Z</time></trkpt><trkpt lat="46.6306161974" lon="12.3157214373"><ele>2602.43</ele><time>2013-07-23T12:06:18Z</time></trkpt><trkpt lat="46.6306161974" lon="12.3157214373"><ele>2601.95</ele><time>2013-07-23T12:06:20Z</time></trkpt><trkpt lat="46.6305928957" lon="12.3157242872"><ele>2603.39</ele><time>2013-07-23T12:06:29Z</time></trkpt><trkpt lat="46.6305855196" lon="12.3157196771"><ele>2603.87</ele><time>2013-07-23T12:06:43Z</time></trkpt><trkpt lat="46.6305703484" lon="12.3157251254"><ele>2605.79</ele><time>2013-07-23T12:06:56Z</time></trkpt><trkpt lat="46.6305845138" lon="12.3157627601"><ele>2606.27</ele><time>2013-07-23T12:07:07Z</time></trkpt><trkpt lat="46.6305787303" lon="12.3157884926"><ele>2608.19</ele><time>2013-07-23T12:07:19Z</time></trkpt><trkpt lat="46.6305738688" lon="12.3158019036"><ele>2608.67</ele><time>2013-07-23T12:07:28Z</time></trkpt><trkpt lat="46.6305757128" lon="12.3158012331"><ele>2609.64</ele><time>2013-07-23T12:07:44Z</time></trkpt><trkpt lat="46.6305792332" lon="12.3158048373"><ele>2610.12</ele><time>2013-07-23T12:07:57Z</time></trkpt><trkpt lat="46.6305503156" lon="12.3158169910"><ele>2611.08</ele><time>2013-07-23T12:08:08Z</time></trkpt><trkpt lat="46.6305491421" lon="12.3158231098"><ele>2611.08</ele><time>2013-07-23T12:08:19Z</time></trkpt><trkpt lat="46.6305506509" lon="12.3158366885"><ele>2612.04</ele><time>2013-07-23T12:08:30Z</time></trkpt><trkpt lat="46.6305478849" lon="12.3158440646"><ele>2613.48</ele><time>2013-07-23T12:08:41Z</time></trkpt><trkpt lat="46.6305423528" lon="12.3158523627"><ele>2614.92</ele><time>2013-07-23T12:08:51Z</time></trkpt><trkpt lat="46.6305415984" lon="12.3158774246"><ele>2615.88</ele><time>2013-07-23T12:08:59Z</time></trkpt><trkpt lat="46.6305325460" lon="12.3158922605"><ele>2615.88</ele><time>2013-07-23T12:09:09Z</time></trkpt><trkpt lat="46.6305263434" lon="12.3158916738"><ele>2615.88</ele><time>2013-07-23T12:09:23Z</time></trkpt><trkpt lat="46.6305182129" lon="12.3159018997"><ele>2617.81</ele><time>2013-07-23T12:09:33Z</time></trkpt><trkpt lat="46.6305131000" lon="12.3159060907"><ele>2617.81</ele><time>2013-07-23T12:09:36Z</time></trkpt><trkpt lat="46.6305223200" lon="12.3159360979"><ele>2618.29</ele><time>2013-07-23T12:09:44Z</time></trkpt><trkpt lat="46.6305041313" lon="12.3159401212"><ele>2619.25</ele><time>2013-07-23T12:09:54Z</time></trkpt><trkpt lat="46.6304821707" lon="12.3159609921"><ele>2620.69</ele><time>2013-07-23T12:10:04Z</time></trkpt><trkpt lat="46.6304802429" lon="12.3159809411"><ele>2621.17</ele><time>2013-07-23T12:10:12Z</time></trkpt><trkpt lat="46.6304740403" lon="12.3159907479"><ele>2621.65</ele><time>2013-07-23T12:10:26Z</time></trkpt><trkpt lat="46.6304450389" lon="12.3160078470"><ele>2621.65</ele><time>2013-07-23T12:10:44Z</time></trkpt><trkpt lat="46.6304157022" lon="12.3160366807"><ele>2623.58</ele><time>2013-07-23T12:10:54Z</time></trkpt><trkpt lat="46.6304155346" lon="12.3160453979"><ele>2624.06</ele><time>2013-07-23T12:11:05Z</time></trkpt><trkpt lat="46.6304155346" lon="12.3160453979"><ele>2624.06</ele><time>2013-07-23T12:11:32Z</time></trkpt><trkpt lat="46.6304120980" lon="12.3160578869"><ele>2625.02</ele><time>2013-07-23T12:11:56Z</time></trkpt><trkpt lat="46.6303987708" lon="12.3160638381"><ele>2626.46</ele><time>2013-07-23T12:12:08Z</time></trkpt><trkpt lat="46.6303934064" lon="12.3160686996"><ele>2625.98</ele><time>2013-07-23T12:12:17Z</time></trkpt><trkpt lat="46.6303934064" lon="12.3160686996"><ele>2626.46</ele><time>2013-07-23T12:12:40Z</time></trkpt><trkpt lat="46.6303775646" lon="12.3160705436"><ele>2627.42</ele><time>2013-07-23T12:13:00Z</time></trkpt><trkpt lat="46.6303809173" lon="12.3160822783"><ele>2627.42</ele><time>2013-07-23T12:13:12Z</time></trkpt><trkpt lat="46.6303720325" lon="12.3160876427"><ele>2627.42</ele><time>2013-07-23T12:13:24Z</time></trkpt><trkpt lat="46.6303608846" lon="12.3160967790"><ele>2628.86</ele><time>2013-07-23T12:13:27Z</time></trkpt><trkpt lat="46.6303608846" lon="12.3160967790"><ele>2628.86</ele><time>2013-07-23T12:13:45Z</time></trkpt><trkpt lat="46.6303608846" lon="12.3160967790"><ele>2628.86</ele><time>2013-07-23T12:14:05Z</time></trkpt><trkpt lat="46.6303571966" lon="12.3160966951"><ele>2628.86</ele><time>2013-07-23T12:14:24Z</time></trkpt><trkpt lat="46.6303349007" lon="12.3161200806"><ele>2630.30</ele><time>2013-07-23T12:14:36Z</time></trkpt><trkpt lat="46.6302818432" lon="12.3161096033"><ele>2629.82</ele><time>2013-07-23T12:14:49Z</time></trkpt><trkpt lat="46.6302121058" lon="12.3160904925"><ele>2629.82</ele><time>2013-07-23T12:15:10Z</time></trkpt><trkpt lat="46.6301695257" lon="12.3161015566"><ele>2630.79</ele><time>2013-07-23T12:15:24Z</time></trkpt><trkpt lat="46.6301534325" lon="12.3160971981"><ele>2630.79</ele><time>2013-07-23T12:15:41Z</time></trkpt><trkpt lat="46.6301436257" lon="12.3160956893"><ele>2631.27</ele><time>2013-07-23T12:15:49Z</time></trkpt><trkpt lat="46.6301330645" lon="12.3160841223"><ele>2632.23</ele><time>2013-07-23T12:15:57Z</time></trkpt><trkpt lat="46.6301330645" lon="12.3160841223"><ele>2632.23</ele><time>2013-07-23T12:16:08Z</time></trkpt><trkpt lat="46.6301330645" lon="12.3160841223"><ele>2633.67</ele><time>2013-07-23T12:16:24Z</time></trkpt><trkpt lat="46.6301276162" lon="12.3160805181"><ele>2633.67</ele><time>2013-07-23T12:16:40Z</time></trkpt><trkpt lat="46.6301276162" lon="12.3160805181"><ele>2634.63</ele><time>2013-07-23T12:16:52Z</time></trkpt><trkpt lat="46.6301276162" lon="12.3160805181"><ele>2635.59</ele><time>2013-07-23T12:17:00Z</time></trkpt><trkpt lat="46.6301292088" lon="12.3160982877"><ele>2636.07</ele><time>2013-07-23T12:17:11Z</time></trkpt><trkpt lat="46.6301292088" lon="12.3160982877"><ele>2637.03</ele><time>2013-07-23T12:17:21Z</time></trkpt><trkpt lat="46.6301292088" lon="12.3160982877"><ele>2637.03</ele><time>2013-07-23T12:17:36Z</time></trkpt><trkpt lat="46.6301294602" lon="12.3161080107"><ele>2637.03</ele><time>2013-07-23T12:17:48Z</time></trkpt><trkpt lat="46.6301294602" lon="12.3161080107"><ele>2636.55</ele><time>2013-07-23T12:18:02Z</time></trkpt><trkpt lat="46.6301294602" lon="12.3161080107"><ele>2637.99</ele><time>2013-07-23T12:18:14Z</time></trkpt><trkpt lat="46.6300460603" lon="12.3160821106"><ele>2638.96</ele><time>2013-07-23T12:18:25Z</time></trkpt><trkpt lat="46.6300460603" lon="12.3160821106"><ele>2638.96</ele><time>2013-07-23T12:18:38Z</time></trkpt><trkpt lat="46.6300460603" lon="12.3160821106"><ele>2637.99</ele><time>2013-07-23T12:18:50Z</time></trkpt><trkpt lat="46.6300460603" lon="12.3160821106"><ele>2638.48</ele><time>2013-07-23T12:18:53Z</time></trkpt><trkpt lat="46.6300600581" lon="12.3161094356"><ele>2639.44</ele><time>2013-07-23T12:19:01Z</time></trkpt><trkpt lat="46.6300600581" lon="12.3161094356"><ele>2640.88</ele><time>2013-07-23T12:19:12Z</time></trkpt><trkpt lat="46.6300600581" lon="12.3161094356"><ele>2640.40</ele><time>2013-07-23T12:19:23Z</time></trkpt><trkpt lat="46.6300600581" lon="12.3161094356"><ele>2642.32</ele><time>2013-07-23T12:19:34Z</time></trkpt><trkpt lat="46.6300324816" lon="12.3161082622"><ele>2644.72</ele><time>2013-07-23T12:19:47Z</time></trkpt><trkpt lat="46.6300324816" lon="12.3161082622"><ele>2645.21</ele><time>2013-07-23T12:20:03Z</time></trkpt><trkpt lat="46.6299948469" lon="12.3162140418"><ele>2646.65</ele><time>2013-07-23T12:20:14Z</time></trkpt><trkpt lat="46.6299650911" lon="12.3162563704"><ele>2646.65</ele><time>2013-07-23T12:20:25Z</time></trkpt><trkpt lat="46.6299650911" lon="12.3162563704"><ele>2646.17</ele><time>2013-07-23T12:20:29Z</time></trkpt><trkpt lat="46.6300680209" lon="12.3163567018"><ele>2647.61</ele><time>2013-07-23T12:20:39Z</time></trkpt><trkpt lat="46.6300674342" lon="12.3163504992"><ele>2648.09</ele><time>2013-07-23T12:20:56Z</time></trkpt><trkpt lat="46.6300924961" lon="12.3163552769"><ele>2648.57</ele><time>2013-07-23T12:21:17Z</time></trkpt><trkpt lat="46.6300924961" lon="12.3163552769"><ele>2648.09</ele><time>2013-07-23T12:21:35Z</time></trkpt><trkpt lat="46.6301349085" lon="12.3163691070"><ele>2649.05</ele><time>2013-07-23T12:21:51Z</time></trkpt><trkpt lat="46.6301349085" lon="12.3163691070"><ele>2648.57</ele><time>2013-07-23T12:22:09Z</time></trkpt><trkpt lat="46.6301167198" lon="12.3163521755"><ele>2648.57</ele><time>2013-07-23T12:22:28Z</time></trkpt><trkpt lat="46.6301167198" lon="12.3163521755"><ele>2648.09</ele><time>2013-07-23T12:22:43Z</time></trkpt><trkpt lat="46.6301169712" lon="12.3163587134"><ele>2648.09</ele><time>2013-07-23T12:23:05Z</time></trkpt><trkpt lat="46.6301453859" lon="12.3163825180"><ele>2647.61</ele><time>2013-07-23T12:23:25Z</time></trkpt><trkpt lat="46.6301567852" lon="12.3164313845"><ele>2647.61</ele><time>2013-07-23T12:23:36Z</time></trkpt><trkpt lat="46.6301462241" lon="12.3164393473"><ele>2648.09</ele><time>2013-07-23T12:23:48Z</time></trkpt><trkpt lat="46.6301462241" lon="12.3164393473"><ele>2648.09</ele><time>2013-07-23T12:24:13Z</time></trkpt><trkpt lat="46.6301296279" lon="12.3164282832"><ele>2647.61</ele><time>2013-07-23T12:24:23Z</time></trkpt><trkpt lat="46.6301296279" lon="12.3164282832"><ele>2647.61</ele><time>2013-07-23T12:24:41Z</time></trkpt><trkpt lat="46.6301296279" lon="12.3164279480"><ele>2647.61</ele><time>2013-07-23T12:25:06Z</time></trkpt><trkpt lat="46.6301278677" lon="12.3164233379"><ele>2648.09</ele><time>2013-07-23T12:25:33Z</time></trkpt><trkpt lat="46.6301290412" lon="12.3164176382"><ele>2648.57</ele><time>2013-07-23T12:25:45Z</time></trkpt><trkpt lat="46.6301196534" lon="12.3164290376"><ele>2646.65</ele><time>2013-07-23T12:25:55Z</time></trkpt><trkpt lat="46.6300918255" lon="12.3164016288"><ele>2645.69</ele><time>2013-07-23T12:26:04Z</time></trkpt><trkpt lat="46.6300591361" lon="12.3163920734"><ele>2643.28</ele><time>2013-07-23T12:26:14Z</time></trkpt><trkpt lat="46.6300448868" lon="12.3163829371"><ele>2643.76</ele><time>2013-07-23T12:26:28Z</time></trkpt><trkpt lat="46.6300300509" lon="12.3163910676"><ele>2643.76</ele><time>2013-07-23T12:26:49Z</time></trkpt><trkpt lat="46.6300189868" lon="12.3164521717"><ele>2643.76</ele><time>2013-07-23T12:27:04Z</time></trkpt><trkpt lat="46.6300164722" lon="12.3164704442"><ele>2643.28</ele><time>2013-07-23T12:27:24Z</time></trkpt><trkpt lat="46.6300062463" lon="12.3165076599"><ele>2642.80</ele><time>2013-07-23T12:27:39Z</time></trkpt><trkpt lat="46.6299816035" lon="12.3165765591"><ele>2643.76</ele><time>2013-07-23T12:27:48Z</time></trkpt><trkpt lat="46.6299565416" lon="12.3166384175"><ele>2644.72</ele><time>2013-07-23T12:28:02Z</time></trkpt><trkpt lat="46.6299528535" lon="12.3166276049"><ele>2645.69</ele><time>2013-07-23T12:28:12Z</time></trkpt><trkpt lat="46.6299554519" lon="12.3166039679"><ele>2646.17</ele><time>2013-07-23T12:28:25Z</time></trkpt><trkpt lat="46.6299554519" lon="12.3166039679"><ele>2646.17</ele><time>2013-07-23T12:28:43Z</time></trkpt><trkpt lat="46.6299554519" lon="12.3166039679"><ele>2646.17</ele><time>2013-07-23T12:29:03Z</time></trkpt><trkpt lat="46.6299545299" lon="12.3166022915"><ele>2646.17</ele><time>2013-07-23T12:29:26Z</time></trkpt><trkpt lat="46.6299545299" lon="12.3166022915"><ele>2647.13</ele><time>2013-07-23T12:29:39Z</time></trkpt><trkpt lat="46.6299484111" lon="12.3165992741"><ele>2647.13</ele><time>2013-07-23T12:29:50Z</time></trkpt><trkpt lat="46.6299484111" lon="12.3165992741"><ele>2647.61</ele><time>2013-07-23T12:30:05Z</time></trkpt><trkpt lat="46.6299515124" lon="12.3166003637"><ele>2649.05</ele><time>2013-07-23T12:30:16Z</time></trkpt><trkpt lat="46.6299592238" lon="12.3166486435"><ele>2649.53</ele><time>2013-07-23T12:30:26Z</time></trkpt><trkpt lat="46.6299592238" lon="12.3166486435"><ele>2650.49</ele><time>2013-07-23T12:30:42Z</time></trkpt><trkpt lat="46.6299592238" lon="12.3166486435"><ele>2651.45</ele><time>2013-07-23T12:30:55Z</time></trkpt><trkpt lat="46.6299601458" lon="12.3166493140"><ele>2651.93</ele><time>2013-07-23T12:31:12Z</time></trkpt><trkpt lat="46.6299745627" lon="12.3166447040"><ele>2652.90</ele><time>2013-07-23T12:31:26Z</time></trkpt><trkpt lat="46.6299745627" lon="12.3166447040"><ele>2649.05</ele><time>2013-07-23T12:31:29Z</time></trkpt><trkpt lat="46.6299745627" lon="12.3166447040"><ele>2653.86</ele><time>2013-07-23T12:31:30Z</time></trkpt><trkpt lat="46.6299635824" lon="12.3166511580"><ele>2653.38</ele><time>2013-07-23T12:31:39Z</time></trkpt><trkpt lat="46.6299635824" lon="12.3166511580"><ele>2654.34</ele><time>2013-07-23T12:31:56Z</time></trkpt><trkpt lat="46.6299635824" lon="12.3166511580"><ele>2655.30</ele><time>2013-07-23T12:32:10Z</time></trkpt><trkpt lat="46.6299614031" lon="12.3166583665"><ele>2656.74</ele><time>2013-07-23T12:32:24Z</time></trkpt><trkpt lat="46.6299614031" lon="12.3166583665"><ele>2655.78</ele><time>2013-07-23T12:32:40Z</time></trkpt><trkpt lat="46.6299614031" lon="12.3166583665"><ele>2655.78</ele><time>2013-07-23T12:32:56Z</time></trkpt><trkpt lat="46.6299724672" lon="12.3166145291"><ele>2656.74</ele><time>2013-07-23T12:33:08Z</time></trkpt><trkpt lat="46.6299724672" lon="12.3166145291"><ele>2657.70</ele><time>2013-07-23T12:33:20Z</time></trkpt><trkpt lat="46.6299724672" lon="12.3166145291"><ele>2658.18</ele><time>2013-07-23T12:33:36Z</time></trkpt><trkpt lat="46.6299661808" lon="12.3165605497"><ele>2659.62</ele><time>2013-07-23T12:33:48Z</time></trkpt><trkpt lat="46.6299661808" lon="12.3165605497"><ele>2660.59</ele><time>2013-07-23T12:33:57Z</time></trkpt><trkpt lat="46.6299661808" lon="12.3165605497"><ele>2661.07</ele><time>2013-07-23T12:34:10Z</time></trkpt><trkpt lat="46.6299495846" lon="12.3165407684"><ele>2661.55</ele><time>2013-07-23T12:34:20Z</time></trkpt><trkpt lat="46.6299495846" lon="12.3165407684"><ele>2663.95</ele><time>2013-07-23T12:34:30Z</time></trkpt><trkpt lat="46.6299495846" lon="12.3165407684"><ele>2664.43</ele><time>2013-07-23T12:34:43Z</time></trkpt><trkpt lat="46.6298863851" lon="12.3164651636"><ele>2664.91</ele><time>2013-07-23T12:34:53Z</time></trkpt><trkpt lat="46.6298562102" lon="12.3164388444"><ele>2665.39</ele><time>2013-07-23T12:35:03Z</time></trkpt><trkpt lat="46.6298562102" lon="12.3164388444"><ele>2666.83</ele><time>2013-07-23T12:35:07Z</time></trkpt><trkpt lat="46.6298046615" lon="12.3163841944"><ele>2666.83</ele><time>2013-07-23T12:35:16Z</time></trkpt><trkpt lat="46.6297098622" lon="12.3162501678"><ele>2667.80</ele><time>2013-07-23T12:35:27Z</time></trkpt><trkpt lat="46.6296540387" lon="12.3161679413"><ele>2668.76</ele><time>2013-07-23T12:35:37Z</time></trkpt><trkpt lat="46.6296540387" lon="12.3161679413"><ele>2670.20</ele><time>2013-07-23T12:35:48Z</time></trkpt><trkpt lat="46.6296238638" lon="12.3161541112"><ele>2671.16</ele><time>2013-07-23T12:35:57Z</time></trkpt><trkpt lat="46.6296238638" lon="12.3161541112"><ele>2671.16</ele><time>2013-07-23T12:36:11Z</time></trkpt><trkpt lat="46.6296238638" lon="12.3161541112"><ele>2671.16</ele><time>2013-07-23T12:36:26Z</time></trkpt><trkpt lat="46.6296017356" lon="12.3161258642"><ele>2672.60</ele><time>2013-07-23T12:36:34Z</time></trkpt><trkpt lat="46.6296017356" lon="12.3161258642"><ele>2673.56</ele><time>2013-07-23T12:36:43Z</time></trkpt><trkpt lat="46.6296017356" lon="12.3161258642"><ele>2674.04</ele><time>2013-07-23T12:36:54Z</time></trkpt><trkpt lat="46.6296017356" lon="12.3161258642"><ele>2675.49</ele><time>2013-07-23T12:37:06Z</time></trkpt><trkpt lat="46.6295982152" lon="12.3161116149"><ele>2676.45</ele><time>2013-07-23T12:37:26Z</time></trkpt><trkpt lat="46.6295982152" lon="12.3161116149"><ele>2676.93</ele><time>2013-07-23T12:37:33Z</time></trkpt><trkpt lat="46.6296096146" lon="12.3160887323"><ele>2678.37</ele><time>2013-07-23T12:37:44Z</time></trkpt><trkpt lat="46.6296096146" lon="12.3160887323"><ele>2678.85</ele><time>2013-07-23T12:37:56Z</time></trkpt><trkpt lat="46.6296096146" lon="12.3160887323"><ele>2679.33</ele><time>2013-07-23T12:38:15Z</time></trkpt><trkpt lat="46.6296099499" lon="12.3160770815"><ele>2681.25</ele><time>2013-07-23T12:38:31Z</time></trkpt><trkpt lat="46.6296571400" lon="12.3160528578"><ele>2683.18</ele><time>2013-07-23T12:38:43Z</time></trkpt><trkpt lat="46.6296571400" lon="12.3160528578"><ele>2683.66</ele><time>2013-07-23T12:38:53Z</time></trkpt><trkpt lat="46.6296571400" lon="12.3160528578"><ele>2684.62</ele><time>2013-07-23T12:39:06Z</time></trkpt><trkpt lat="46.6296571400" lon="12.3160528578"><ele>2685.58</ele><time>2013-07-23T12:39:17Z</time></trkpt><trkpt lat="46.6296740714" lon="12.3160407878"><ele>2687.98</ele><time>2013-07-23T12:39:28Z</time></trkpt><trkpt lat="46.6296986304" lon="12.3160392791"><ele>2687.98</ele><time>2013-07-23T12:39:42Z</time></trkpt><trkpt lat="46.6296986304" lon="12.3160392791"><ele>2688.94</ele><time>2013-07-23T12:39:57Z</time></trkpt><trkpt lat="46.6296986304" lon="12.3160392791"><ele>2689.91</ele><time>2013-07-23T12:40:08Z</time></trkpt><trkpt lat="46.6297055036" lon="12.3160555400"><ele>2691.35</ele><time>2013-07-23T12:40:19Z</time></trkpt><trkpt lat="46.6297040787" lon="12.3160527740"><ele>2691.35</ele><time>2013-07-23T12:40:35Z</time></trkpt><trkpt lat="46.6297494248" lon="12.3160570487"><ele>2693.75</ele><time>2013-07-23T12:40:49Z</time></trkpt><trkpt lat="46.6298044939" lon="12.3160750698"><ele>2694.23</ele><time>2013-07-23T12:40:57Z</time></trkpt><trkpt lat="46.6298181564" lon="12.3160657659"><ele>2695.19</ele><time>2013-07-23T12:41:02Z</time></trkpt><trkpt lat="46.6298236046" lon="12.3160421290"><ele>2696.15</ele><time>2013-07-23T12:41:15Z</time></trkpt><trkpt lat="46.6298176534" lon="12.3160109483"><ele>2696.64</ele><time>2013-07-23T12:41:25Z</time></trkpt><trkpt lat="46.6298157256" lon="12.3160061706"><ele>2697.12</ele><time>2013-07-23T12:41:41Z</time></trkpt><trkpt lat="46.6298157256" lon="12.3160061706"><ele>2698.08</ele><time>2013-07-23T12:41:50Z</time></trkpt><trkpt lat="46.6298157256" lon="12.3160061706"><ele>2698.08</ele><time>2013-07-23T12:42:01Z</time></trkpt><trkpt lat="46.6298339143" lon="12.3159805220"><ele>2699.52</ele><time>2013-07-23T12:42:11Z</time></trkpt><trkpt lat="46.6298379377" lon="12.3159562983"><ele>2700.48</ele><time>2013-07-23T12:42:21Z</time></trkpt><trkpt lat="46.6298262030" lon="12.3158925120"><ele>2701.44</ele><time>2013-07-23T12:42:30Z</time></trkpt><trkpt lat="46.6298125405" lon="12.3158660252"><ele>2702.40</ele><time>2013-07-23T12:42:40Z</time></trkpt><trkpt lat="46.6298049968" lon="12.3158342578"><ele>2703.85</ele><time>2013-07-23T12:42:48Z</time></trkpt><trkpt lat="46.6298049968" lon="12.3158342578"><ele>2704.81</ele><time>2013-07-23T12:42:58Z</time></trkpt><trkpt lat="46.6298049968" lon="12.3158342578"><ele>2705.77</ele><time>2013-07-23T12:43:07Z</time></trkpt><trkpt lat="46.6298027337" lon="12.3158065137"><ele>2706.25</ele><time>2013-07-23T12:43:24Z</time></trkpt><trkpt lat="46.6297977045" lon="12.3157827929"><ele>2706.73</ele><time>2013-07-23T12:43:34Z</time></trkpt><trkpt lat="46.6298138816" lon="12.3157583177"><ele>2707.69</ele><time>2013-07-23T12:43:44Z</time></trkpt><trkpt lat="46.6298255324" lon="12.3157409672"><ele>2707.21</ele><time>2013-07-23T12:43:47Z</time></trkpt><trkpt lat="46.6298538633" lon="12.3157188389"><ele>2708.17</ele><time>2013-07-23T12:43:59Z</time></trkpt><trkpt lat="46.6298529413" lon="12.3157123849"><ele>2710.09</ele><time>2013-07-23T12:44:08Z</time></trkpt><trkpt lat="46.6298434697" lon="12.3156942800"><ele>2710.57</ele><time>2013-07-23T12:44:18Z</time></trkpt><trkpt lat="46.6298072599" lon="12.3156627640"><ele>2711.54</ele><time>2013-07-23T12:44:27Z</time></trkpt><trkpt lat="46.6298038233" lon="12.3156594951"><ele>2713.46</ele><time>2013-07-23T12:44:39Z</time></trkpt><trkpt lat="46.6298038233" lon="12.3156594951"><ele>2713.94</ele><time>2013-07-23T12:44:49Z</time></trkpt><trkpt lat="46.6298292205" lon="12.3155977204"><ele>2713.94</ele><time>2013-07-23T12:45:00Z</time></trkpt><trkpt lat="46.6298449785" lon="12.3155819625"><ele>2715.86</ele><time>2013-07-23T12:45:07Z</time></trkpt><trkpt lat="46.6298496723" lon="12.3155550566"><ele>2716.34</ele><time>2013-07-23T12:45:17Z</time></trkpt><trkpt lat="46.6298772488" lon="12.3154964671"><ele>2718.27</ele><time>2013-07-23T12:45:29Z</time></trkpt><trkpt lat="46.6299178172" lon="12.3154481035"><ele>2719.71</ele><time>2013-07-23T12:45:41Z</time></trkpt><trkpt lat="46.6299496684" lon="12.3154407274"><ele>2720.19</ele><time>2013-07-23T12:45:51Z</time></trkpt><trkpt lat="46.6299735568" lon="12.3154324293"><ele>2721.63</ele><time>2013-07-23T12:46:06Z</time></trkpt><trkpt lat="46.6300254408" lon="12.3154175933"><ele>2723.55</ele><time>2013-07-23T12:46:18Z</time></trkpt><trkpt lat="46.6300670151" lon="12.3153977282"><ele>2724.51</ele><time>2013-07-23T12:46:28Z</time></trkpt><trkpt lat="46.6301121097" lon="12.3153849877"><ele>2725.96</ele><time>2013-07-23T12:46:41Z</time></trkpt><trkpt lat="46.6301472299" lon="12.3153709900"><ele>2727.40</ele><time>2013-07-23T12:46:51Z</time></trkpt><trkpt lat="46.6301805899" lon="12.3153499514"><ele>2728.36</ele><time>2013-07-23T12:47:04Z</time></trkpt><trkpt lat="46.6302147880" lon="12.3153181002"><ele>2729.80</ele><time>2013-07-23T12:47:15Z</time></trkpt><trkpt lat="46.6302256845" lon="12.3153107241"><ele>2731.24</ele><time>2013-07-23T12:47:28Z</time></trkpt><trkpt lat="46.6302178055" lon="12.3152919486"><ele>2732.68</ele><time>2013-07-23T12:47:40Z</time></trkpt><trkpt lat="46.6302406043" lon="12.3152559903"><ele>2733.65</ele><time>2013-07-23T12:47:49Z</time></trkpt><trkpt lat="46.6302919015" lon="12.3152132425"><ele>2735.09</ele><time>2013-07-23T12:47:58Z</time></trkpt><trkpt lat="46.6303221602" lon="12.3151902761"><ele>2737.01</ele><time>2013-07-23T12:48:08Z</time></trkpt><trkpt lat="46.6303385049" lon="12.3151906114"><ele>2737.01</ele><time>2013-07-23T12:48:18Z</time></trkpt><trkpt lat="46.6303455457" lon="12.3151735123"><ele>2737.97</ele><time>2013-07-23T12:48:35Z</time></trkpt><trkpt lat="46.6303508263" lon="12.3151588440"><ele>2738.93</ele><time>2013-07-23T12:48:48Z</time></trkpt><trkpt lat="46.6303508263" lon="12.3151588440"><ele>2738.45</ele><time>2013-07-23T12:49:02Z</time></trkpt><trkpt lat="46.6303554364" lon="12.3151515517"><ele>2738.93</ele><time>2013-07-23T12:49:17Z</time></trkpt><trkpt lat="46.6303554364" lon="12.3151515517"><ele>2738.93</ele><time>2013-07-23T12:49:35Z</time></trkpt><trkpt lat="46.6303561907" lon="12.3151506297"><ele>2738.93</ele><time>2013-07-23T12:50:01Z</time></trkpt><trkpt lat="46.6303561907" lon="12.3151506297"><ele>2738.93</ele><time>2013-07-23T12:50:27Z</time></trkpt><trkpt lat="46.6303564422" lon="12.3151501268"><ele>2738.45</ele><time>2013-07-23T12:50:48Z</time></trkpt><trkpt lat="46.6303564422" lon="12.3151501268"><ele>2738.93</ele><time>2013-07-23T12:51:13Z</time></trkpt><trkpt lat="46.6303568613" lon="12.3151497915"><ele>2738.93</ele><time>2013-07-23T12:51:35Z</time></trkpt><trkpt lat="46.6303574480" lon="12.3151466902"><ele>2738.93</ele><time>2013-07-23T12:52:03Z</time></trkpt><trkpt lat="46.6303574480" lon="12.3151466902"><ele>2739.41</ele><time>2013-07-23T12:52:29Z</time></trkpt><trkpt lat="46.6303575318" lon="12.3151491210"><ele>2738.93</ele><time>2013-07-23T12:52:57Z</time></trkpt><trkpt lat="46.6303574480" lon="12.3151487019"><ele>2739.89</ele><time>2013-07-23T12:53:23Z</time></trkpt><trkpt lat="46.6303574480" lon="12.3151487019"><ele>2739.89</ele><time>2013-07-23T12:53:47Z</time></trkpt><trkpt lat="46.6303576156" lon="12.3151465226"><ele>2740.38</ele><time>2013-07-23T12:54:09Z</time></trkpt><trkpt lat="46.6303576156" lon="12.3151465226"><ele>2740.38</ele><time>2013-07-23T12:54:33Z</time></trkpt><trkpt lat="46.6303561069" lon="12.3151452653"><ele>2740.38</ele><time>2013-07-23T12:55:00Z</time></trkpt><trkpt lat="46.6303562745" lon="12.3151468579"><ele>2740.38</ele><time>2013-07-23T12:55:29Z</time></trkpt><trkpt lat="46.6303565260" lon="12.3151456006"><ele>2741.34</ele><time>2013-07-23T12:55:56Z</time></trkpt><trkpt lat="46.6303565260" lon="12.3151456006"><ele>2741.34</ele><time>2013-07-23T12:56:24Z</time></trkpt><trkpt lat="46.6303582862" lon="12.3151450977"><ele>2740.86</ele><time>2013-07-23T12:56:48Z</time></trkpt><trkpt lat="46.6303586215" lon="12.3151450139"><ele>2741.34</ele><time>2013-07-23T12:57:15Z</time></trkpt><trkpt lat="46.6303694341" lon="12.3151501268"><ele>2741.82</ele><time>2013-07-23T12:57:23Z</time></trkpt><trkpt lat="46.6303701047" lon="12.3151676450"><ele>2741.34</ele><time>2013-07-23T12:57:35Z</time></trkpt><trkpt lat="46.6303665843" lon="12.3151774518"><ele>2740.86</ele><time>2013-07-23T12:57:38Z</time></trkpt><trkpt lat="46.6303436179" lon="12.3151942994"><ele>2740.86</ele><time>2013-07-23T12:57:41Z</time></trkpt><trkpt lat="46.6303150356" lon="12.3151932936"><ele>2739.41</ele><time>2013-07-23T12:57:51Z</time></trkpt><trkpt lat="46.6303058993" lon="12.3152451776"><ele>2737.49</ele><time>2013-07-23T12:58:02Z</time></trkpt><trkpt lat="46.6302879620" lon="12.3152558226"><ele>2736.53</ele><time>2013-07-23T12:58:11Z</time></trkpt><trkpt lat="46.6302675102" lon="12.3152672220"><ele>2735.09</ele><time>2013-07-23T12:58:21Z</time></trkpt><trkpt lat="46.6302369162" lon="12.3153260630"><ele>2733.17</ele><time>2013-07-23T12:58:31Z</time></trkpt><trkpt lat="46.6301900614" lon="12.3153660446"><ele>2731.72</ele><time>2013-07-23T12:58:42Z</time></trkpt><trkpt lat="46.6301784106" lon="12.3153920285"><ele>2730.76</ele><time>2013-07-23T12:58:50Z</time></trkpt><trkpt lat="46.6301503312" lon="12.3154134024"><ele>2729.80</ele><time>2013-07-23T12:58:57Z</time></trkpt><trkpt lat="46.6300933342" lon="12.3154758476"><ele>2728.36</ele><time>2013-07-23T12:59:09Z</time></trkpt><trkpt lat="46.6300702002" lon="12.3154750094"><ele>2726.44</ele><time>2013-07-23T12:59:18Z</time></trkpt><trkpt lat="46.6300702002" lon="12.3154750094"><ele>2724.03</ele><time>2013-07-23T12:59:31Z</time></trkpt><trkpt lat="46.6300138738" lon="12.3154938687"><ele>2723.55</ele><time>2013-07-23T12:59:41Z</time></trkpt><trkpt lat="46.6300080065" lon="12.3155048490"><ele>2721.63</ele><time>2013-07-23T12:59:52Z</time></trkpt><trkpt lat="46.6299794242" lon="12.3155284021"><ele>2721.63</ele><time>2013-07-23T12:59:56Z</time></trkpt><trkpt lat="46.6299313959" lon="12.3155462556"><ele>2720.67</ele><time>2013-07-23T13:00:06Z</time></trkpt><trkpt lat="46.6299313959" lon="12.3155462556"><ele>2720.67</ele><time>2013-07-23T13:00:16Z</time></trkpt><trkpt lat="46.6299313959" lon="12.3155462556"><ele>2719.23</ele><time>2013-07-23T13:00:26Z</time></trkpt><trkpt lat="46.6299313959" lon="12.3155462556"><ele>2717.78</ele><time>2013-07-23T13:00:36Z</time></trkpt><trkpt lat="46.6299287975" lon="12.3155553080"><ele>2716.82</ele><time>2013-07-23T13:00:46Z</time></trkpt><trkpt lat="46.6299189907" lon="12.3155673780"><ele>2715.86</ele><time>2013-07-23T13:00:56Z</time></trkpt><trkpt lat="46.6299242713" lon="12.3155821301"><ele>2715.38</ele><time>2013-07-23T13:01:07Z</time></trkpt><trkpt lat="46.6299242713" lon="12.3155821301"><ele>2714.42</ele><time>2013-07-23T13:01:18Z</time></trkpt><trkpt lat="46.6299242713" lon="12.3155821301"><ele>2713.46</ele><time>2013-07-23T13:01:28Z</time></trkpt><trkpt lat="46.6299233492" lon="12.3155848123"><ele>2712.50</ele><time>2013-07-23T13:01:46Z</time></trkpt><trkpt lat="46.6299337428" lon="12.3156390432"><ele>2711.54</ele><time>2013-07-23T13:01:55Z</time></trkpt><trkpt lat="46.6299276240" lon="12.3156598303"><ele>2710.57</ele><time>2013-07-23T13:02:06Z</time></trkpt><trkpt lat="46.6299276240" lon="12.3156598303"><ele>2709.61</ele><time>2013-07-23T13:02:14Z</time></trkpt><trkpt lat="46.6299276240" lon="12.3156598303"><ele>2708.65</ele><time>2013-07-23T13:02:28Z</time></trkpt><trkpt lat="46.6299276240" lon="12.3156598303"><ele>2708.17</ele><time>2013-07-23T13:02:40Z</time></trkpt><trkpt lat="46.6299262829" lon="12.3156683799"><ele>2708.65</ele><time>2013-07-23T13:02:58Z</time></trkpt><trkpt lat="46.6299264506" lon="12.3156737443"><ele>2708.65</ele><time>2013-07-23T13:03:23Z</time></trkpt><trkpt lat="46.6299264506" lon="12.3156737443"><ele>2709.13</ele><time>2013-07-23T13:03:46Z</time></trkpt><trkpt lat="46.6299264506" lon="12.3156737443"><ele>2709.61</ele><time>2013-07-23T13:04:01Z</time></trkpt><trkpt lat="46.6299284622" lon="12.3156766780"><ele>2709.61</ele><time>2013-07-23T13:04:18Z</time></trkpt><trkpt lat="46.6299284622" lon="12.3156766780"><ele>2710.09</ele><time>2013-07-23T13:04:35Z</time></trkpt><trkpt lat="46.6299121175" lon="12.3156809527"><ele>2710.09</ele><time>2013-07-23T13:04:57Z</time></trkpt><trkpt lat="46.6299121175" lon="12.3156809527"><ele>2710.57</ele><time>2013-07-23T13:05:19Z</time></trkpt><trkpt lat="46.6299091000" lon="12.3156855628"><ele>2711.06</ele><time>2013-07-23T13:05:46Z</time></trkpt><trkpt lat="46.6299082618" lon="12.3157097865"><ele>2711.54</ele><time>2013-07-23T13:06:04Z</time></trkpt><trkpt lat="46.6299082618" lon="12.3157097865"><ele>2711.54</ele><time>2013-07-23T13:06:22Z</time></trkpt><trkpt lat="46.6299254447" lon="12.3157343455"><ele>2711.54</ele><time>2013-07-23T13:06:42Z</time></trkpt><trkpt lat="46.6299254447" lon="12.3157343455"><ele>2712.02</ele><time>2013-07-23T13:07:07Z</time></trkpt><trkpt lat="46.6299254447" lon="12.3157343455"><ele>2712.50</ele><time>2013-07-23T13:07:18Z</time></trkpt><trkpt lat="46.6299018916" lon="12.3157778475"><ele>2712.02</ele><time>2013-07-23T13:07:30Z</time></trkpt><trkpt lat="46.6299006343" lon="12.3158181645"><ele>2711.06</ele><time>2013-07-23T13:07:41Z</time></trkpt><trkpt lat="46.6299091000" lon="12.3158494290"><ele>2710.57</ele><time>2013-07-23T13:07:52Z</time></trkpt><trkpt lat="46.6299245227" lon="12.3158677854"><ele>2710.09</ele><time>2013-07-23T13:08:06Z</time></trkpt><trkpt lat="46.6299265344" lon="12.3158764187"><ele>2709.61</ele><time>2013-07-23T13:08:16Z</time></trkpt><trkpt lat="46.6299290489" lon="12.3158912547"><ele>2708.65</ele><time>2013-07-23T13:08:29Z</time></trkpt><trkpt lat="46.6299322341" lon="12.3158959486"><ele>2708.65</ele><time>2013-07-23T13:08:39Z</time></trkpt><trkpt lat="46.6299308091" lon="12.3159070127"><ele>2708.17</ele><time>2013-07-23T13:08:48Z</time></trkpt><trkpt lat="46.6299235169" lon="12.3159281351"><ele>2707.21</ele><time>2013-07-23T13:09:01Z</time></trkpt><trkpt lat="46.6299210861" lon="12.3159350082"><ele>2706.73</ele><time>2013-07-23T13:09:12Z</time></trkpt><trkpt lat="46.6299210861" lon="12.3159350082"><ele>2706.25</ele><time>2013-07-23T13:09:25Z</time></trkpt><trkpt lat="46.6299228463" lon="12.3159434740"><ele>2705.77</ele><time>2013-07-23T13:09:39Z</time></trkpt><trkpt lat="46.6299267858" lon="12.3159436416"><ele>2704.33</ele><time>2013-07-23T13:09:52Z</time></trkpt><trkpt lat="46.6299299709" lon="12.3159511853"><ele>2704.33</ele><time>2013-07-23T13:09:55Z</time></trkpt><trkpt lat="46.6299024783" lon="12.3159673624"><ele>2703.85</ele><time>2013-07-23T13:10:06Z</time></trkpt><trkpt lat="46.6298997123" lon="12.3159719724"><ele>2704.33</ele><time>2013-07-23T13:10:09Z</time></trkpt><trkpt lat="46.6298872232" lon="12.3159838747"><ele>2702.40</ele><time>2013-07-23T13:10:19Z</time></trkpt><trkpt lat="46.6299123690" lon="12.3159895744"><ele>2701.44</ele><time>2013-07-23T13:10:28Z</time></trkpt><trkpt lat="46.6299052443" lon="12.3160100263"><ele>2700.48</ele><time>2013-07-23T13:10:37Z</time></trkpt><trkpt lat="46.6299061663" lon="12.3159992974"><ele>2699.52</ele><time>2013-07-23T13:10:48Z</time></trkpt><trkpt lat="46.6299061663" lon="12.3159992974"><ele>2699.04</ele><time>2013-07-23T13:10:53Z</time></trkpt><trkpt lat="46.6298580542" lon="12.3160557076"><ele>2697.60</ele><time>2013-07-23T13:11:02Z</time></trkpt><trkpt lat="46.6298372671" lon="12.3160651792"><ele>2696.64</ele><time>2013-07-23T13:11:11Z</time></trkpt><trkpt lat="46.6298096906" lon="12.3160701245"><ele>2695.67</ele><time>2013-07-23T13:11:23Z</time></trkpt><trkpt lat="46.6297837067" lon="12.3160842061"><ele>2693.75</ele><time>2013-07-23T13:11:33Z</time></trkpt><trkpt lat="46.6297443956" lon="12.3160692025"><ele>2692.79</ele><time>2013-07-23T13:11:42Z</time></trkpt><trkpt lat="46.6297230218" lon="12.3160616588"><ele>2692.31</ele><time>2013-07-23T13:11:48Z</time></trkpt><trkpt lat="46.6296680365" lon="12.3160928395"><ele>2691.35</ele><time>2013-07-23T13:11:58Z</time></trkpt><trkpt lat="46.6296680365" lon="12.3160928395"><ele>2689.91</ele><time>2013-07-23T13:12:06Z</time></trkpt><trkpt lat="46.6296680365" lon="12.3160928395"><ele>2688.94</ele><time>2013-07-23T13:12:14Z</time></trkpt><trkpt lat="46.6296516079" lon="12.3161016405"><ele>2688.46</ele><time>2013-07-23T13:12:23Z</time></trkpt><trkpt lat="46.6296149790" lon="12.3161255289"><ele>2687.02</ele><time>2013-07-23T13:12:32Z</time></trkpt><trkpt lat="46.6295968741" lon="12.3161248583"><ele>2687.50</ele><time>2013-07-23T13:12:36Z</time></trkpt><trkpt lat="46.6295739077" lon="12.3161086813"><ele>2686.06</ele><time>2013-07-23T13:12:44Z</time></trkpt><trkpt lat="46.6295739077" lon="12.3161086813"><ele>2685.58</ele><time>2013-07-23T13:12:53Z</time></trkpt><trkpt lat="46.6295568924" lon="12.3161029816"><ele>2684.14</ele><time>2013-07-23T13:13:02Z</time></trkpt><trkpt lat="46.6295568924" lon="12.3161029816"><ele>2683.66</ele><time>2013-07-23T13:13:11Z</time></trkpt><trkpt lat="46.6295569763" lon="12.3161101900"><ele>2683.18</ele><time>2013-07-23T13:13:21Z</time></trkpt><trkpt lat="46.6295569763" lon="12.3161101900"><ele>2681.73</ele><time>2013-07-23T13:13:30Z</time></trkpt><trkpt lat="46.6295915935" lon="12.3161679413"><ele>2681.25</ele><time>2013-07-23T13:13:39Z</time></trkpt><trkpt lat="46.6296640970" lon="12.3162081745"><ele>2680.29</ele><time>2013-07-23T13:13:51Z</time></trkpt><trkpt lat="46.6297008935" lon="12.3162523471"><ele>2679.33</ele><time>2013-07-23T13:14:02Z</time></trkpt><trkpt lat="46.6297193337" lon="12.3162789177"><ele>2679.33</ele><time>2013-07-23T13:14:15Z</time></trkpt><trkpt lat="46.6297193337" lon="12.3162789177"><ele>2679.33</ele><time>2013-07-23T13:14:24Z</time></trkpt><trkpt lat="46.6297723912" lon="12.3162998725"><ele>2678.37</ele><time>2013-07-23T13:14:35Z</time></trkpt><trkpt lat="46.6297916695" lon="12.3162857071"><ele>2678.85</ele><time>2013-07-23T13:14:44Z</time></trkpt><trkpt lat="46.6297890712" lon="12.3162910715"><ele>2677.89</ele><time>2013-07-23T13:14:54Z</time></trkpt><trkpt lat="46.6297890712" lon="12.3162910715"><ele>2678.37</ele><time>2013-07-23T13:15:14Z</time></trkpt><trkpt lat="46.6297933459" lon="12.3162901495"><ele>2678.85</ele><time>2013-07-23T13:15:36Z</time></trkpt><trkpt lat="46.6297933459" lon="12.3162901495"><ele>2678.37</ele><time>2013-07-23T13:16:04Z</time></trkpt><trkpt lat="46.6297955252" lon="12.3162879702"><ele>2678.37</ele><time>2013-07-23T13:16:25Z</time></trkpt><trkpt lat="46.6297955252" lon="12.3162879702"><ele>2678.85</ele><time>2013-07-23T13:16:45Z</time></trkpt><trkpt lat="46.6297969501" lon="12.3162878864"><ele>2678.85</ele><time>2013-07-23T13:17:04Z</time></trkpt><trkpt lat="46.6297969501" lon="12.3162878864"><ele>2678.85</ele><time>2013-07-23T13:17:26Z</time></trkpt><trkpt lat="46.6297951899" lon="12.3162898142"><ele>2678.37</ele><time>2013-07-23T13:17:46Z</time></trkpt><trkpt lat="46.6297951899" lon="12.3162898142"><ele>2678.37</ele><time>2013-07-23T13:17:59Z</time></trkpt><trkpt lat="46.6297985427" lon="12.3162857909"><ele>2678.85</ele><time>2013-07-23T13:18:23Z</time></trkpt><trkpt lat="46.6297985427" lon="12.3162857909"><ele>2679.33</ele><time>2013-07-23T13:18:40Z</time></trkpt><trkpt lat="46.6297998000" lon="12.3162854556"><ele>2678.37</ele><time>2013-07-23T13:18:58Z</time></trkpt><trkpt lat="46.6297998000" lon="12.3162854556"><ele>2677.41</ele><time>2013-07-23T13:19:09Z</time></trkpt><trkpt lat="46.6297971178" lon="12.3162826058"><ele>2677.41</ele><time>2013-07-23T13:19:21Z</time></trkpt><trkpt lat="46.6297971178" lon="12.3162826058"><ele>2676.93</ele><time>2013-07-23T13:19:34Z</time></trkpt><trkpt lat="46.6297924239" lon="12.3162877187"><ele>2677.89</ele><time>2013-07-23T13:19:45Z</time></trkpt><trkpt lat="46.6297924239" lon="12.3162877187"><ele>2677.89</ele><time>2013-07-23T13:19:57Z</time></trkpt><trkpt lat="46.6297869757" lon="12.3163034767"><ele>2676.45</ele><time>2013-07-23T13:20:09Z</time></trkpt><trkpt lat="46.6297846287" lon="12.3163043987"><ele>2675.97</ele><time>2013-07-23T13:20:21Z</time></trkpt><trkpt lat="46.6297821142" lon="12.3163162172"><ele>2675.01</ele><time>2013-07-23T13:20:32Z</time></trkpt><trkpt lat="46.6297775880" lon="12.3163256049"><ele>2675.01</ele><time>2013-07-23T13:20:46Z</time></trkpt><trkpt lat="46.6297657695" lon="12.3163422011"><ele>2673.56</ele><time>2013-07-23T13:20:58Z</time></trkpt><trkpt lat="46.6297621652" lon="12.3163458891"><ele>2673.56</ele><time>2013-07-23T13:21:06Z</time></trkpt><trkpt lat="46.6297621652" lon="12.3163458891"><ele>2672.60</ele><time>2013-07-23T13:21:15Z</time></trkpt><trkpt lat="46.6297615785" lon="12.3163536005"><ele>2672.12</ele><time>2013-07-23T13:21:22Z</time></trkpt><trkpt lat="46.6297615785" lon="12.3163536005"><ele>2672.60</ele><time>2013-07-23T13:21:37Z</time></trkpt><trkpt lat="46.6297615785" lon="12.3163536005"><ele>2672.12</ele><time>2013-07-23T13:21:48Z</time></trkpt><trkpt lat="46.6297521908" lon="12.3163566180"><ele>2671.16</ele><time>2013-07-23T13:21:58Z</time></trkpt><trkpt lat="46.6297713015" lon="12.3163721245"><ele>2671.16</ele><time>2013-07-23T13:22:09Z</time></trkpt><trkpt lat="46.6297854669" lon="12.3163883854"><ele>2670.68</ele><time>2013-07-23T13:22:19Z</time></trkpt><trkpt lat="46.6297854669" lon="12.3163883854"><ele>2670.68</ele><time>2013-07-23T13:22:35Z</time></trkpt><trkpt lat="46.6297852155" lon="12.3163911514"><ele>2670.20</ele><time>2013-07-23T13:22:59Z</time></trkpt><trkpt lat="46.6297852155" lon="12.3163911514"><ele>2670.68</ele><time>2013-07-23T13:23:12Z</time></trkpt><trkpt lat="46.6297907475" lon="12.3163975216"><ele>2670.68</ele><time>2013-07-23T13:23:37Z</time></trkpt><trkpt lat="46.6297907475" lon="12.3163975216"><ele>2669.24</ele><time>2013-07-23T13:23:49Z</time></trkpt><trkpt lat="46.6297907475" lon="12.3163975216"><ele>2668.28</ele><time>2013-07-23T13:24:05Z</time></trkpt><trkpt lat="46.6297910828" lon="12.3163943365"><ele>2667.31</ele><time>2013-07-23T13:24:19Z</time></trkpt><trkpt lat="46.6297909990" lon="12.3163943365"><ele>2667.80</ele><time>2013-07-23T13:24:39Z</time></trkpt><trkpt lat="46.6297945194" lon="12.3164195661"><ele>2666.83</ele><time>2013-07-23T13:24:57Z</time></trkpt><trkpt lat="46.6297938488" lon="12.3164184764"><ele>2666.35</ele><time>2013-07-23T13:25:04Z</time></trkpt><trkpt lat="46.6298031528" lon="12.3164876271"><ele>2666.83</ele><time>2013-07-23T13:25:15Z</time></trkpt><trkpt lat="46.6298130434" lon="12.3165090848"><ele>2665.87</ele><time>2013-07-23T13:25:26Z</time></trkpt><trkpt lat="46.6298140492" lon="12.3164997809"><ele>2663.95</ele><time>2013-07-23T13:25:43Z</time></trkpt><trkpt lat="46.6298129596" lon="12.3164827656"><ele>2663.47</ele><time>2013-07-23T13:25:53Z</time></trkpt><trkpt lat="46.6297838744" lon="12.3164505791"><ele>2662.99</ele><time>2013-07-23T13:26:02Z</time></trkpt><trkpt lat="46.6297838744" lon="12.3164505791"><ele>2662.03</ele><time>2013-07-23T13:26:16Z</time></trkpt><trkpt lat="46.6298035719" lon="12.3164641578"><ele>2661.07</ele><time>2013-07-23T13:26:32Z</time></trkpt><trkpt lat="46.6298251133" lon="12.3164631519"><ele>2661.55</ele><time>2013-07-23T13:26:39Z</time></trkpt><trkpt lat="46.6298933420" lon="12.3164508305"><ele>2662.03</ele><time>2013-07-23T13:26:50Z</time></trkpt><trkpt lat="46.6299430467" lon="12.3164359946"><ele>2662.51</ele><time>2013-07-23T13:27:04Z</time></trkpt><trkpt lat="46.6299660970" lon="12.3164381739"><ele>2664.91</ele><time>2013-07-23T13:27:15Z</time></trkpt><trkpt lat="46.6299816873" lon="12.3164429516"><ele>2664.43</ele><time>2013-07-23T13:27:24Z</time></trkpt><trkpt lat="46.6299821902" lon="12.3164540995"><ele>2663.95</ele><time>2013-07-23T13:27:34Z</time></trkpt><trkpt lat="46.6299375147" lon="12.3164987750"><ele>2662.51</ele><time>2013-07-23T13:27:47Z</time></trkpt><trkpt lat="46.6299401969" lon="12.3164989427"><ele>2661.55</ele><time>2013-07-23T13:27:58Z</time></trkpt><trkpt lat="46.6299301386" lon="12.3164924048"><ele>2660.59</ele><time>2013-07-23T13:28:10Z</time></trkpt><trkpt lat="46.6298639216" lon="12.3164811730"><ele>2658.18</ele><time>2013-07-23T13:28:21Z</time></trkpt><trkpt lat="46.6298573837" lon="12.3164739646"><ele>2658.18</ele><time>2013-07-23T13:28:25Z</time></trkpt><trkpt lat="46.6298455652" lon="12.3164899740"><ele>2657.70</ele><time>2013-07-23T13:28:31Z</time></trkpt><trkpt lat="46.6297979560" lon="12.3164830171"><ele>2656.26</ele><time>2013-07-23T13:28:40Z</time></trkpt><trkpt lat="46.6297622491" lon="12.3164774012"><ele>2656.74</ele><time>2013-07-23T13:28:50Z</time></trkpt><trkpt lat="46.6297526099" lon="12.3164817598"><ele>2656.74</ele><time>2013-07-23T13:29:04Z</time></trkpt><trkpt lat="46.6297360975" lon="12.3164753895"><ele>2655.78</ele><time>2013-07-23T13:29:16Z</time></trkpt><trkpt lat="46.6297338344" lon="12.3164810054"><ele>2656.26</ele><time>2013-07-23T13:29:33Z</time></trkpt><trkpt lat="46.6297338344" lon="12.3164810054"><ele>2655.30</ele><time>2013-07-23T13:29:48Z</time></trkpt><trkpt lat="46.6296700481" lon="12.3164521717"><ele>2653.86</ele><time>2013-07-23T13:29:59Z</time></trkpt><trkpt lat="46.6296340898" lon="12.3164393473"><ele>2652.90</ele><time>2013-07-23T13:30:11Z</time></trkpt><trkpt lat="46.6296221875" lon="12.3164246790"><ele>2652.90</ele><time>2013-07-23T13:30:21Z</time></trkpt><trkpt lat="46.6296164040" lon="12.3164455500"><ele>2652.42</ele><time>2013-07-23T13:30:32Z</time></trkpt><trkpt lat="46.6295963712" lon="12.3164420296"><ele>2652.42</ele><time>2013-07-23T13:30:42Z</time></trkpt><trkpt lat="46.6295958683" lon="12.3164360784"><ele>2650.97</ele><time>2013-07-23T13:30:52Z</time></trkpt><trkpt lat="46.6295991372" lon="12.3164418619"><ele>2651.45</ele><time>2013-07-23T13:31:01Z</time></trkpt><trkpt lat="46.6296076868" lon="12.3164270259"><ele>2650.49</ele><time>2013-07-23T13:31:11Z</time></trkpt><trkpt lat="46.6296004783" lon="12.3164402694"><ele>2650.01</ele><time>2013-07-23T13:31:23Z</time></trkpt><trkpt lat="46.6295775119" lon="12.3164429516"><ele>2648.57</ele><time>2013-07-23T13:31:30Z</time></trkpt><trkpt lat="46.6295625083" lon="12.3164446279"><ele>2648.57</ele><time>2013-07-23T13:31:41Z</time></trkpt><trkpt lat="46.6295625083" lon="12.3164446279"><ele>2649.05</ele><time>2013-07-23T13:31:54Z</time></trkpt><trkpt lat="46.6295626760" lon="12.3164353240"><ele>2647.61</ele><time>2013-07-23T13:32:04Z</time></trkpt><trkpt lat="46.6295609996" lon="12.3164314684"><ele>2647.61</ele><time>2013-07-23T13:32:11Z</time></trkpt><trkpt lat="46.6295656934" lon="12.3164026346"><ele>2647.13</ele><time>2013-07-23T13:32:21Z</time></trkpt><trkpt lat="46.6295719799" lon="12.3164058197"><ele>2646.17</ele><time>2013-07-23T13:32:32Z</time></trkpt><trkpt lat="46.6295645200" lon="12.3164153751"><ele>2646.65</ele><time>2013-07-23T13:32:43Z</time></trkpt><trkpt lat="46.6295515280" lon="12.3164108489"><ele>2645.21</ele><time>2013-07-23T13:32:55Z</time></trkpt><trkpt lat="46.6295408830" lon="12.3164016288"><ele>2643.76</ele><time>2013-07-23T13:33:07Z</time></trkpt><trkpt lat="46.6295568086" lon="12.3164053168"><ele>2643.76</ele><time>2013-07-23T13:33:19Z</time></trkpt><trkpt lat="46.6295488458" lon="12.3164463881"><ele>2643.28</ele><time>2013-07-23T13:33:27Z</time></trkpt><trkpt lat="46.6295478400" lon="12.3164579552"><ele>2641.84</ele><time>2013-07-23T13:33:41Z</time></trkpt><trkpt lat="46.6295322496" lon="12.3164953385"><ele>2641.36</ele><time>2013-07-23T13:33:55Z</time></trkpt><trkpt lat="46.6294979677" lon="12.3165430315"><ele>2638.96</ele><time>2013-07-23T13:34:10Z</time></trkpt><trkpt lat="46.6294979677" lon="12.3165430315"><ele>2639.44</ele><time>2013-07-23T13:34:22Z</time></trkpt><trkpt lat="46.6294964589" lon="12.3165359069"><ele>2639.44</ele><time>2013-07-23T13:34:31Z</time></trkpt><trkpt lat="46.6295081936" lon="12.3165757209"><ele>2638.96</ele><time>2013-07-23T13:34:39Z</time></trkpt><trkpt lat="46.6295081936" lon="12.3165757209"><ele>2638.48</ele><time>2013-07-23T13:34:50Z</time></trkpt><trkpt lat="46.6295081936" lon="12.3165757209"><ele>2637.51</ele><time>2013-07-23T13:35:00Z</time></trkpt><trkpt lat="46.6295081936" lon="12.3165757209"><ele>2637.03</ele><time>2013-07-23T13:35:11Z</time></trkpt><trkpt lat="46.6294946149" lon="12.3165722843"><ele>2636.07</ele><time>2013-07-23T13:35:24Z</time></trkpt><trkpt lat="46.6294946149" lon="12.3165722843"><ele>2635.11</ele><time>2013-07-23T13:35:36Z</time></trkpt><trkpt lat="46.6294380371" lon="12.3166225757"><ele>2635.59</ele><time>2013-07-23T13:35:52Z</time></trkpt><trkpt lat="46.6294169147" lon="12.3166747950"><ele>2634.63</ele><time>2013-07-23T13:36:04Z</time></trkpt><trkpt lat="46.6294169147" lon="12.3166747950"><ele>2634.15</ele><time>2013-07-23T13:36:16Z</time></trkpt><trkpt lat="46.6294216923" lon="12.3167298641"><ele>2633.67</ele><time>2013-07-23T13:36:28Z</time></trkpt><trkpt lat="46.6294119693" lon="12.3167302832"><ele>2632.23</ele><time>2013-07-23T13:36:38Z</time></trkpt><trkpt lat="46.6294119693" lon="12.3167302832"><ele>2632.23</ele><time>2013-07-23T13:36:39Z</time></trkpt><trkpt lat="46.6294055153" lon="12.3166803271"><ele>2630.30</ele><time>2013-07-23T13:36:49Z</time></trkpt><trkpt lat="46.6293975525" lon="12.3166992702"><ele>2628.86</ele><time>2013-07-23T13:36:57Z</time></trkpt><trkpt lat="46.6293741670" lon="12.3167555127"><ele>2627.90</ele><time>2013-07-23T13:37:06Z</time></trkpt><trkpt lat="46.6293122247" lon="12.3167522438"><ele>2626.46</ele><time>2013-07-23T13:37:14Z</time></trkpt><trkpt lat="46.6292953771" lon="12.3167421017"><ele>2624.06</ele><time>2013-07-23T13:37:25Z</time></trkpt><trkpt lat="46.6292565688" lon="12.3167219851"><ele>2623.09</ele><time>2013-07-23T13:37:34Z</time></trkpt><trkpt lat="46.6292101331" lon="12.3166961689"><ele>2622.13</ele><time>2013-07-23T13:37:38Z</time></trkpt><trkpt lat="46.6292013321" lon="12.3167295288"><ele>2620.69</ele><time>2013-07-23T13:37:48Z</time></trkpt><trkpt lat="46.6291849874" lon="12.3168210592"><ele>2618.29</ele><time>2013-07-23T13:37:58Z</time></trkpt><trkpt lat="46.6291789524" lon="12.3168294411"><ele>2617.33</ele><time>2013-07-23T13:38:00Z</time></trkpt><trkpt lat="46.6291647870" lon="12.3168532457"><ele>2617.33</ele><time>2013-07-23T13:38:02Z</time></trkpt><trkpt lat="46.6290942952" lon="12.3167914711"><ele>2614.92</ele><time>2013-07-23T13:38:11Z</time></trkpt><trkpt lat="46.6291030962" lon="12.3167648166"><ele>2613.00</ele><time>2013-07-23T13:38:21Z</time></trkpt><trkpt lat="46.6290018428" lon="12.3167259246"><ele>2610.60</ele><time>2013-07-23T13:38:31Z</time></trkpt><trkpt lat="46.6289713327" lon="12.3167276848"><ele>2608.67</ele><time>2013-07-23T13:38:39Z</time></trkpt><trkpt lat="46.6288942192" lon="12.3167201411"><ele>2606.75</ele><time>2013-07-23T13:38:50Z</time></trkpt><trkpt lat="46.6288659722" lon="12.3167128488"><ele>2604.35</ele><time>2013-07-23T13:39:00Z</time></trkpt><trkpt lat="46.6288439278" lon="12.3167156149"><ele>2602.43</ele><time>2013-07-23T13:39:10Z</time></trkpt><trkpt lat="46.6288289241" lon="12.3167441972"><ele>2600.50</ele><time>2013-07-23T13:39:19Z</time></trkpt><trkpt lat="46.6288286727" lon="12.3167478852"><ele>2600.50</ele><time>2013-07-23T13:39:30Z</time></trkpt><trkpt lat="46.6288289241" lon="12.3167441972"><ele>2599.06</ele><time>2013-07-23T13:39:39Z</time></trkpt><trkpt lat="46.6288289241" lon="12.3167441972"><ele>2599.54</ele><time>2013-07-23T13:39:50Z</time></trkpt><trkpt lat="46.6288115736" lon="12.3167416826"><ele>2599.54</ele><time>2013-07-23T13:40:02Z</time></trkpt><trkpt lat="46.6288115736" lon="12.3167416826"><ele>2598.58</ele><time>2013-07-23T13:40:20Z</time></trkpt><trkpt lat="46.6287984140" lon="12.3167439457"><ele>2599.54</ele><time>2013-07-23T13:40:42Z</time></trkpt><trkpt lat="46.6287984140" lon="12.3167439457"><ele>2598.58</ele><time>2013-07-23T13:40:53Z</time></trkpt><trkpt lat="46.6287984978" lon="12.3167430237"><ele>2598.58</ele><time>2013-07-23T13:41:01Z</time></trkpt><trkpt lat="46.6287984140" lon="12.3167439457"><ele>2596.66</ele><time>2013-07-23T13:41:11Z</time></trkpt><trkpt lat="46.6287896130" lon="12.3167747911"><ele>2594.74</ele><time>2013-07-23T13:41:21Z</time></trkpt><trkpt lat="46.6287003458" lon="12.3167973384"><ele>2593.29</ele><time>2013-07-23T13:41:31Z</time></trkpt><trkpt lat="46.6286682431" lon="12.3168270104"><ele>2591.37</ele><time>2013-07-23T13:41:38Z</time></trkpt><trkpt lat="46.6286345478" lon="12.3168636393"><ele>2589.45</ele><time>2013-07-23T13:41:47Z</time></trkpt><trkpt lat="46.6285995115" lon="12.3167851847"><ele>2588.01</ele><time>2013-07-23T13:41:56Z</time></trkpt><trkpt lat="46.6284540854" lon="12.3167395033"><ele>2586.56</ele><time>2013-07-23T13:42:07Z</time></trkpt><trkpt lat="46.6283737868" lon="12.3166972585"><ele>2586.08</ele><time>2013-07-23T13:42:13Z</time></trkpt><trkpt lat="46.6283257585" lon="12.3166809138"><ele>2584.64</ele><time>2013-07-23T13:42:22Z</time></trkpt><trkpt lat="46.6283082403" lon="12.3166608810"><ele>2583.68</ele><time>2013-07-23T13:42:27Z</time></trkpt><trkpt lat="46.6282746289" lon="12.3165810853"><ele>2581.76</ele><time>2013-07-23T13:42:36Z</time></trkpt><trkpt lat="46.6282735392" lon="12.3165554367"><ele>2580.80</ele><time>2013-07-23T13:42:45Z</time></trkpt><trkpt lat="46.6282735392" lon="12.3165554367"><ele>2581.28</ele><time>2013-07-23T13:42:57Z</time></trkpt><trkpt lat="46.6282625590" lon="12.3165219929"><ele>2579.35</ele><time>2013-07-23T13:43:07Z</time></trkpt><trkpt lat="46.6282625590" lon="12.3165219929"><ele>2577.91</ele><time>2013-07-23T13:43:18Z</time></trkpt><trkpt lat="46.6282625590" lon="12.3165219929"><ele>2575.99</ele><time>2013-07-23T13:43:30Z</time></trkpt><trkpt lat="46.6282309592" lon="12.3165204842"><ele>2574.07</ele><time>2013-07-23T13:43:40Z</time></trkpt><trkpt lat="46.6282012034" lon="12.3165097553"><ele>2573.59</ele><time>2013-07-23T13:43:52Z</time></trkpt><trkpt lat="46.6281801648" lon="12.3164964281"><ele>2572.63</ele><time>2013-07-23T13:44:01Z</time></trkpt><trkpt lat="46.6281685978" lon="12.3164823465"><ele>2571.66</ele><time>2013-07-23T13:44:13Z</time></trkpt><trkpt lat="46.6281591263" lon="12.3164696060"><ele>2569.74</ele><time>2013-07-23T13:44:23Z</time></trkpt><trkpt lat="46.6281248443" lon="12.3164427839"><ele>2568.30</ele><time>2013-07-23T13:44:33Z</time></trkpt><trkpt lat="46.6280820128" lon="12.3164070770"><ele>2567.34</ele><time>2013-07-23T13:44:42Z</time></trkpt><trkpt lat="46.6280337330" lon="12.3163265269"><ele>2566.38</ele><time>2013-07-23T13:44:51Z</time></trkpt><trkpt lat="46.6280142032" lon="12.3162739724"><ele>2566.38</ele><time>2013-07-23T13:44:53Z</time></trkpt><trkpt lat="46.6279952601" lon="12.3162090965"><ele>2566.38</ele><time>2013-07-23T13:44:56Z</time></trkpt><trkpt lat="46.6279311385" lon="12.3160105292"><ele>2567.82</ele><time>2013-07-23T13:45:08Z</time></trkpt><trkpt lat="46.6278864630" lon="12.3159699608"><ele>2569.74</ele><time>2013-07-23T13:45:19Z</time></trkpt><trkpt lat="46.6278610658" lon="12.3159617465"><ele>2571.66</ele><time>2013-07-23T13:45:29Z</time></trkpt><trkpt lat="46.6278616525" lon="12.3159598187"><ele>2572.14</ele><time>2013-07-23T13:45:37Z</time></trkpt><trkpt lat="46.6278616525" lon="12.3159598187"><ele>2573.59</ele><time>2013-07-23T13:45:49Z</time></trkpt><trkpt lat="46.6278616525" lon="12.3159598187"><ele>2575.03</ele><time>2013-07-23T13:46:00Z</time></trkpt><trkpt lat="46.6278575454" lon="12.3159606569"><ele>2576.95</ele><time>2013-07-23T13:46:08Z</time></trkpt><trkpt lat="46.6278575454" lon="12.3159606569"><ele>2576.47</ele><time>2013-07-23T13:46:25Z</time></trkpt><trkpt lat="46.6279085074" lon="12.3159204237"><ele>2577.91</ele><time>2013-07-23T13:46:35Z</time></trkpt><trkpt lat="46.6279085074" lon="12.3159204237"><ele>2578.39</ele><time>2013-07-23T13:46:36Z</time></trkpt><trkpt lat="46.6278637480" lon="12.3159389477"><ele>2579.35</ele><time>2013-07-23T13:46:45Z</time></trkpt><trkpt lat="46.6278537735" lon="12.3158789333"><ele>2580.80</ele><time>2013-07-23T13:46:54Z</time></trkpt><trkpt lat="46.6278582998" lon="12.3158719763"><ele>2582.24</ele><time>2013-07-23T13:47:03Z</time></trkpt><trkpt lat="46.6278533544" lon="12.3158602417"><ele>2582.72</ele><time>2013-07-23T13:47:08Z</time></trkpt><trkpt lat="46.6278525162" lon="12.3158320785"><ele>2583.20</ele><time>2013-07-23T13:47:10Z</time></trkpt><trkpt lat="46.6278718784" lon="12.3156826291"><ele>2584.64</ele><time>2013-07-23T13:47:19Z</time></trkpt><trkpt lat="46.6278692801" lon="12.3156758398"><ele>2584.64</ele><time>2013-07-23T13:47:38Z</time></trkpt><trkpt lat="46.6278718784" lon="12.3156826291"><ele>2585.12</ele><time>2013-07-23T13:47:43Z</time></trkpt><trkpt lat="46.6277787555" lon="12.3156165797"><ele>2586.56</ele><time>2013-07-23T13:47:53Z</time></trkpt><trkpt lat="46.6277153045" lon="12.3155122250"><ele>2588.49</ele><time>2013-07-23T13:48:04Z</time></trkpt><trkpt lat="46.6277140472" lon="12.3154269811"><ele>2589.45</ele><time>2013-07-23T13:48:13Z</time></trkpt><trkpt lat="46.6276353411" lon="12.3153983150"><ele>2590.89</ele><time>2013-07-23T13:48:22Z</time></trkpt><trkpt lat="46.6275855526" lon="12.3153670505"><ele>2591.85</ele><time>2013-07-23T13:48:31Z</time></trkpt><trkpt lat="46.6275356803" lon="12.3152486142"><ele>2593.77</ele><time>2013-07-23T13:48:40Z</time></trkpt><trkpt lat="46.6275327466" lon="12.3152353708"><ele>2593.77</ele><time>2013-07-23T13:48:41Z</time></trkpt><trkpt lat="46.6274759173" lon="12.3151171859"><ele>2593.29</ele><time>2013-07-23T13:48:51Z</time></trkpt><trkpt lat="46.6274050903" lon="12.3150677327"><ele>2593.29</ele><time>2013-07-23T13:49:01Z</time></trkpt><trkpt lat="46.6274081916" lon="12.3150814790"><ele>2593.29</ele><time>2013-07-23T13:49:03Z</time></trkpt><trkpt lat="46.6273940261" lon="12.3151567485"><ele>2591.85</ele><time>2013-07-23T13:49:13Z</time></trkpt><trkpt lat="46.6273587383" lon="12.3151643761"><ele>2591.37</ele><time>2013-07-23T13:49:17Z</time></trkpt><trkpt lat="46.6272979695" lon="12.3151042778"><ele>2590.41</ele><time>2013-07-23T13:49:26Z</time></trkpt><trkpt lat="46.6272979695" lon="12.3151042778"><ele>2590.41</ele><time>2013-07-23T13:49:34Z</time></trkpt><trkpt lat="46.6272979695" lon="12.3151042778"><ele>2590.41</ele><time>2013-07-23T13:49:53Z</time></trkpt><trkpt lat="46.6272868216" lon="12.3150814790"><ele>2589.93</ele><time>2013-07-23T13:50:16Z</time></trkpt><trkpt lat="46.6272670403" lon="12.3150237277"><ele>2589.93</ele><time>2013-07-23T13:50:31Z</time></trkpt><trkpt lat="46.6271421500" lon="12.3149371427"><ele>2587.53</ele><time>2013-07-23T13:51:06Z</time></trkpt><trkpt lat="46.6270651203" lon="12.3149850871"><ele>2587.53</ele><time>2013-07-23T13:51:13Z</time></trkpt><trkpt lat="46.6270533018" lon="12.3150042817"><ele>2586.56</ele><time>2013-07-23T13:51:15Z</time></trkpt><trkpt lat="46.6270045191" lon="12.3150461912"><ele>2586.08</ele><time>2013-07-23T13:51:20Z</time></trkpt><trkpt lat="46.6269296687" lon="12.3150565848"><ele>2585.60</ele><time>2013-07-23T13:51:24Z</time></trkpt><trkpt lat="46.6268266551" lon="12.3150349595"><ele>2585.12</ele><time>2013-07-23T13:51:29Z</time></trkpt><trkpt lat="46.6267706640" lon="12.3150326964"><ele>2584.64</ele><time>2013-07-23T13:51:33Z</time></trkpt><trkpt lat="46.6266871803" lon="12.3150300141"><ele>2583.68</ele><time>2013-07-23T13:51:40Z</time></trkpt><trkpt lat="46.6265765391" lon="12.3150620330"><ele>2582.24</ele><time>2013-07-23T13:51:49Z</time></trkpt><trkpt lat="46.6265516449" lon="12.3150831554"><ele>2582.24</ele><time>2013-07-23T13:51:51Z</time></trkpt><trkpt lat="46.6265000124" lon="12.3151025176"><ele>2581.28</ele><time>2013-07-23T13:51:55Z</time></trkpt><trkpt lat="46.6263813246" lon="12.3152145837"><ele>2580.80</ele><time>2013-07-23T13:52:04Z</time></trkpt><trkpt lat="46.6263154428" lon="12.3151722550"><ele>2580.32</ele><time>2013-07-23T13:52:11Z</time></trkpt><trkpt lat="46.6263154428" lon="12.3151722550"><ele>2579.84</ele><time>2013-07-23T13:52:30Z</time></trkpt><trkpt lat="46.6263154428" lon="12.3151722550"><ele>2580.32</ele><time>2013-07-23T13:52:45Z</time></trkpt><trkpt lat="46.6263229866" lon="12.3149226420"><ele>2579.35</ele><time>2013-07-23T13:52:56Z</time></trkpt><trkpt lat="46.6262850165" lon="12.3149177805"><ele>2578.39</ele><time>2013-07-23T13:53:07Z</time></trkpt><trkpt lat="46.6262301151" lon="12.3149014357"><ele>2575.99</ele><time>2013-07-23T13:53:15Z</time></trkpt><trkpt lat="46.6261886247" lon="12.3148907907"><ele>2576.95</ele><time>2013-07-23T13:53:24Z</time></trkpt><trkpt lat="46.6261823382" lon="12.3148927186"><ele>2576.95</ele><time>2013-07-23T13:53:25Z</time></trkpt><trkpt lat="46.6260835994" lon="12.3149076384"><ele>2575.99</ele><time>2013-07-23T13:53:34Z</time></trkpt><trkpt lat="46.6260111798" lon="12.3149064649"><ele>2576.95</ele><time>2013-07-23T13:53:43Z</time></trkpt><trkpt lat="46.6259688511" lon="12.3149407469"><ele>2576.95</ele><time>2013-07-23T13:53:48Z</time></trkpt><trkpt lat="46.6259210743" lon="12.3149688262"><ele>2575.99</ele><time>2013-07-23T13:53:53Z</time></trkpt><trkpt lat="46.6258740518" lon="12.3149896972"><ele>2574.55</ele><time>2013-07-23T13:54:02Z</time></trkpt><trkpt lat="46.6258740518" lon="12.3149896972"><ele>2572.14</ele><time>2013-07-23T13:54:14Z</time></trkpt><trkpt lat="46.6258586291" lon="12.3149679042"><ele>2570.22</ele><time>2013-07-23T13:54:25Z</time></trkpt><trkpt lat="46.6258564498" lon="12.3149674851"><ele>2569.74</ele><time>2013-07-23T13:54:32Z</time></trkpt><trkpt lat="46.6258484870" lon="12.3149653897"><ele>2568.30</ele><time>2013-07-23T13:54:41Z</time></trkpt><trkpt lat="46.6258204915" lon="12.3149258271"><ele>2566.86</ele><time>2013-07-23T13:54:50Z</time></trkpt><trkpt lat="46.6258178093" lon="12.3149062973"><ele>2565.42</ele><time>2013-07-23T13:54:57Z</time></trkpt><trkpt lat="46.6258147079" lon="12.3149091471"><ele>2563.97</ele><time>2013-07-23T13:55:06Z</time></trkpt><trkpt lat="46.6258199885" lon="12.3149068840"><ele>2563.49</ele><time>2013-07-23T13:55:21Z</time></trkpt><trkpt lat="46.6257580463" lon="12.3147055507"><ele>2563.01</ele><time>2013-07-23T13:55:30Z</time></trkpt><trkpt lat="46.6257470660" lon="12.3147516511"><ele>2563.49</ele><time>2013-07-23T13:55:39Z</time></trkpt><trkpt lat="46.6256803460" lon="12.3147748690"><ele>2563.49</ele><time>2013-07-23T13:55:48Z</time></trkpt><trkpt lat="46.6256053280" lon="12.3147368990"><ele>2562.05</ele><time>2013-07-23T13:55:58Z</time></trkpt><trkpt lat="46.6254104488" lon="12.3147799820"><ele>2561.57</ele><time>2013-07-23T13:56:08Z</time></trkpt><trkpt lat="46.6252989694" lon="12.3147635534"><ele>2559.65</ele><time>2013-07-23T13:56:19Z</time></trkpt><trkpt lat="46.6252615862" lon="12.3147275951"><ele>2559.17</ele><time>2013-07-23T13:56:25Z</time></trkpt><trkpt lat="46.6252342612" lon="12.3147451133"><ele>2560.13</ele><time>2013-07-23T13:56:28Z</time></trkpt><trkpt lat="46.6251632664" lon="12.3147490527"><ele>2559.17</ele><time>2013-07-23T13:56:37Z</time></trkpt><trkpt lat="46.6251097061" lon="12.3147754557"><ele>2557.73</ele><time>2013-07-23T13:56:46Z</time></trkpt><trkpt lat="46.6250550561" lon="12.3147656489"><ele>2557.73</ele><time>2013-07-23T13:56:57Z</time></trkpt><trkpt lat="46.6250076145" lon="12.3147470411"><ele>2557.73</ele><time>2013-07-23T13:57:06Z</time></trkpt><trkpt lat="46.6249999870" lon="12.3147262540"><ele>2557.24</ele><time>2013-07-23T13:57:19Z</time></trkpt><trkpt lat="46.6249980591" lon="12.3147279304"><ele>2557.24</ele><time>2013-07-23T13:57:32Z</time></trkpt><trkpt lat="46.6249859892" lon="12.3147548363"><ele>2557.24</ele><time>2013-07-23T13:57:38Z</time></trkpt><trkpt lat="46.6249522101" lon="12.3147692531"><ele>2556.28</ele><time>2013-07-23T13:59:56Z</time></trkpt><trkpt lat="46.6248303372" lon="12.3148553353"><ele>2556.76</ele><time>2013-07-23T14:00:07Z</time></trkpt><trkpt lat="46.6248243861" lon="12.3148563411"><ele>2556.76</ele><time>2013-07-23T14:00:11Z</time></trkpt><trkpt lat="46.6247628629" lon="12.3148741946"><ele>2556.28</ele><time>2013-07-23T14:00:18Z</time></trkpt><trkpt lat="46.6247409862" lon="12.3148731887"><ele>2556.28</ele><time>2013-07-23T14:00:20Z</time></trkpt><trkpt lat="46.6246456001" lon="12.3148865998"><ele>2556.76</ele><time>2013-07-23T14:00:29Z</time></trkpt><trkpt lat="46.6246067919" lon="12.3148584366"><ele>2555.32</ele><time>2013-07-23T14:00:35Z</time></trkpt><trkpt lat="46.6245722584" lon="12.3148348834"><ele>2554.84</ele><time>2013-07-23T14:00:42Z</time></trkpt><trkpt lat="46.6244980786" lon="12.3148083966"><ele>2548.11</ele><time>2013-07-23T14:04:22Z</time></trkpt><trkpt lat="46.6242863517" lon="12.3147641402"><ele>2549.07</ele><time>2013-07-23T14:06:04Z</time></trkpt><trkpt lat="46.6242663190" lon="12.3147368990"><ele>2547.15</ele><time>2013-07-23T14:06:10Z</time></trkpt><trkpt lat="46.6242484655" lon="12.3147632182"><ele>2546.19</ele><time>2013-07-23T14:06:21Z</time></trkpt><trkpt lat="46.6242159437" lon="12.3147545010"><ele>2545.71</ele><time>2013-07-23T14:06:24Z</time></trkpt><trkpt lat="46.6241194680" lon="12.3147747852"><ele>2546.19</ele><time>2013-07-23T14:06:33Z</time></trkpt><trkpt lat="46.6240515746" lon="12.3147635534"><ele>2545.71</ele><time>2013-07-23T14:06:44Z</time></trkpt><trkpt lat="46.6240361519" lon="12.3147678282"><ele>2545.71</ele><time>2013-07-23T14:06:46Z</time></trkpt><trkpt lat="46.6239581164" lon="12.3148726020"><ele>2545.71</ele><time>2013-07-23T14:07:00Z</time></trkpt><trkpt lat="46.6239445377" lon="12.3148940597"><ele>2543.79</ele><time>2013-07-23T14:07:02Z</time></trkpt><trkpt lat="46.6239384189" lon="12.3149037827"><ele>2545.23</ele><time>2013-07-23T14:07:03Z</time></trkpt><trkpt lat="46.6236940864" lon="12.3147482984"><ele>2545.23</ele><time>2013-07-23T14:08:50Z</time></trkpt><trkpt lat="46.6236630734" lon="12.3148060497"><ele>2545.23</ele><time>2013-07-23T14:08:51Z</time></trkpt><trkpt lat="46.6236441303" lon="12.3147690855"><ele>2543.31</ele><time>2013-07-23T14:09:02Z</time></trkpt><trkpt lat="46.6236324795" lon="12.3146970011"><ele>2540.42</ele><time>2013-07-23T14:09:12Z</time></trkpt><trkpt lat="46.6236439627" lon="12.3146684188"><ele>2538.98</ele><time>2013-07-23T14:09:15Z</time></trkpt><trkpt lat="46.6236252710" lon="12.3146076500"><ele>2537.54</ele><time>2013-07-23T14:09:23Z</time></trkpt><trkpt lat="46.6235922463" lon="12.3145696800"><ele>2535.61</ele><time>2013-07-23T14:09:32Z</time></trkpt><trkpt lat="46.6235705372" lon="12.3145216517"><ele>2534.17</ele><time>2013-07-23T14:09:40Z</time></trkpt><trkpt lat="46.6235631611" lon="12.3145022057"><ele>2532.73</ele><time>2013-07-23T14:09:43Z</time></trkpt><trkpt lat="46.6235627420" lon="12.3144238349"><ele>2530.33</ele><time>2013-07-23T14:09:51Z</time></trkpt><trkpt lat="46.6235578805" lon="12.3144118488"><ele>2530.33</ele><time>2013-07-23T14:09:52Z</time></trkpt><trkpt lat="46.6235239338" lon="12.3143338133"><ele>2527.92</ele><time>2013-07-23T14:10:01Z</time></trkpt><trkpt lat="46.6234733909" lon="12.3142992798"><ele>2525.52</ele><time>2013-07-23T14:10:11Z</time></trkpt><trkpt lat="46.6234654281" lon="12.3142654169"><ele>2522.64</ele><time>2013-07-23T14:10:19Z</time></trkpt><trkpt lat="46.6234673560" lon="12.3142062407"><ele>2521.19</ele><time>2013-07-23T14:10:26Z</time></trkpt><trkpt lat="46.6234552860" lon="12.3141613137"><ele>2520.23</ele><time>2013-07-23T14:10:31Z</time></trkpt><trkpt lat="46.6234349180" lon="12.3140954319"><ele>2517.35</ele><time>2013-07-23T14:10:41Z</time></trkpt><trkpt lat="46.6234132927" lon="12.3140910733"><ele>2516.87</ele><time>2013-07-23T14:10:46Z</time></trkpt><trkpt lat="46.6234084312" lon="12.3139869701"><ele>2514.47</ele><time>2013-07-23T14:10:54Z</time></trkpt><trkpt lat="46.6233977862" lon="12.3139586393"><ele>2513.50</ele><time>2013-07-23T14:10:56Z</time></trkpt><trkpt lat="46.6233763285" lon="12.3138459027"><ele>2510.14</ele><time>2013-07-23T14:11:04Z</time></trkpt><trkpt lat="46.6233709641" lon="12.3138306476"><ele>2511.10</ele><time>2013-07-23T14:11:07Z</time></trkpt><trkpt lat="46.6233338322" lon="12.3137600720"><ele>2508.22</ele><time>2013-07-23T14:11:16Z</time></trkpt><trkpt lat="46.6233399510" lon="12.3137246165"><ele>2507.26</ele><time>2013-07-23T14:11:18Z</time></trkpt><trkpt lat="46.6233428847" lon="12.3136349302"><ele>2505.81</ele><time>2013-07-23T14:11:23Z</time></trkpt><trkpt lat="46.6233498417" lon="12.3134590778"><ele>2503.89</ele><time>2013-07-23T14:11:34Z</time></trkpt><trkpt lat="46.6233529430" lon="12.3134083673"><ele>2502.45</ele><time>2013-07-23T14:11:37Z</time></trkpt><trkpt lat="46.6233680304" lon="12.3132228758"><ele>2500.05</ele><time>2013-07-23T14:11:48Z</time></trkpt><trkpt lat="46.6233610734" lon="12.3131939583"><ele>2499.08</ele><time>2013-07-23T14:11:50Z</time></trkpt><trkpt lat="46.6233324911" lon="12.3130872566"><ele>2497.16</ele><time>2013-07-23T14:11:59Z</time></trkpt><trkpt lat="46.6233059205" lon="12.3130550701"><ele>2496.20</ele><time>2013-07-23T14:12:02Z</time></trkpt><trkpt lat="46.6232399549" lon="12.3129193671"><ele>2493.80</ele><time>2013-07-23T14:12:11Z</time></trkpt><trkpt lat="46.6232430562" lon="12.3128689080"><ele>2492.84</ele><time>2013-07-23T14:12:14Z</time></trkpt><trkpt lat="46.6232345905" lon="12.3127907887"><ele>2492.36</ele><time>2013-07-23T14:12:18Z</time></trkpt><trkpt lat="46.6232449003" lon="12.3127255775"><ele>2492.36</ele><time>2013-07-23T14:12:22Z</time></trkpt><trkpt lat="46.6232458223" lon="12.3126377352"><ele>2489.95</ele><time>2013-07-23T14:12:26Z</time></trkpt><trkpt lat="46.6232424695" lon="12.3125263397"><ele>2489.95</ele><time>2013-07-23T14:12:31Z</time></trkpt><trkpt lat="46.6232371889" lon="12.3124503158"><ele>2489.95</ele><time>2013-07-23T14:12:35Z</time></trkpt><trkpt lat="46.6231824551" lon="12.3123711068"><ele>2490.43</ele><time>2013-07-23T14:12:41Z</time></trkpt><trkpt lat="46.6231345106" lon="12.3122748826"><ele>2489.47</ele><time>2013-07-23T14:12:47Z</time></trkpt><trkpt lat="46.6230508592" lon="12.3121546861"><ele>2489.95</ele><time>2013-07-23T14:12:56Z</time></trkpt><trkpt lat="46.6229521204" lon="12.3120382614"><ele>2489.95</ele><time>2013-07-23T14:13:05Z</time></trkpt><trkpt lat="46.6227898467" lon="12.3119523469"><ele>2489.47</ele><time>2013-07-23T14:13:18Z</time></trkpt><trkpt lat="46.6226470191" lon="12.3118483275"><ele>2488.51</ele><time>2013-07-23T14:13:31Z</time></trkpt><trkpt lat="46.6225321870" lon="12.3117014766"><ele>2485.63</ele><time>2013-07-23T14:13:43Z</time></trkpt><trkpt lat="46.6224690713" lon="12.3116483353"><ele>2484.18</ele><time>2013-07-23T14:13:49Z</time></trkpt><trkpt lat="46.6223667283" lon="12.3115475010"><ele>2481.30</ele><time>2013-07-23T14:14:02Z</time></trkpt><trkpt lat="46.6223224718" lon="12.3115056753"><ele>2478.90</ele><time>2013-07-23T14:14:10Z</time></trkpt><trkpt lat="46.6223129164" lon="12.3115070164"><ele>2477.94</ele><time>2013-07-23T14:14:12Z</time></trkpt><trkpt lat="46.6222482082" lon="12.3114535399"><ele>2475.53</ele><time>2013-07-23T14:14:21Z</time></trkpt><trkpt lat="46.6221952345" lon="12.3114233650"><ele>2473.13</ele><time>2013-07-23T14:14:30Z</time></trkpt><trkpt lat="46.6221171152" lon="12.3113771807"><ele>2471.69</ele><time>2013-07-23T14:14:38Z</time></trkpt><trkpt lat="46.6220685001" lon="12.3113549687"><ele>2471.21</ele><time>2013-07-23T14:14:43Z</time></trkpt><trkpt lat="46.6220462881" lon="12.3113149870"><ele>2469.76</ele><time>2013-07-23T14:14:45Z</time></trkpt><trkpt lat="46.6220291052" lon="12.3112945352"><ele>2469.76</ele><time>2013-07-23T14:14:47Z</time></trkpt><trkpt lat="46.6219881177" lon="12.3112887517"><ele>2468.80</ele><time>2013-07-23T14:14:50Z</time></trkpt><trkpt lat="46.6218581982" lon="12.3112110514"><ele>2467.36</ele><time>2013-07-23T14:15:00Z</time></trkpt><trkpt lat="46.6217423603" lon="12.3111742549"><ele>2464.96</ele><time>2013-07-23T14:15:08Z</time></trkpt><trkpt lat="46.6216585413" lon="12.3111120611"><ele>2464.48</ele><time>2013-07-23T14:15:15Z</time></trkpt><trkpt lat="46.6215821821" lon="12.3110797908"><ele>2462.55</ele><time>2013-07-23T14:15:22Z</time></trkpt><trkpt lat="46.6215214133" lon="12.3110337742"><ele>2461.59</ele><time>2013-07-23T14:15:26Z</time></trkpt><trkpt lat="46.6214001272" lon="12.3110195249"><ele>2459.19</ele><time>2013-07-23T14:15:37Z</time></trkpt><trkpt lat="46.6212799307" lon="12.3109465186"><ele>2456.79</ele><time>2013-07-23T14:15:46Z</time></trkpt><trkpt lat="46.6212548688" lon="12.3109413218"><ele>2456.31</ele><time>2013-07-23T14:15:48Z</time></trkpt><trkpt lat="46.6211270448" lon="12.3109394778"><ele>2454.38</ele><time>2013-07-23T14:15:58Z</time></trkpt><trkpt lat="46.6210594028" lon="12.3108969815"><ele>2452.94</ele><time>2013-07-23T14:16:07Z</time></trkpt><trkpt lat="46.6210503504" lon="12.3108982388"><ele>2452.46</ele><time>2013-07-23T14:16:08Z</time></trkpt><trkpt lat="46.6209916770" lon="12.3109043576"><ele>2451.50</ele><time>2013-07-23T14:16:13Z</time></trkpt><trkpt lat="46.6209530365" lon="12.3108684830"><ele>2451.02</ele><time>2013-07-23T14:16:16Z</time></trkpt><trkpt lat="46.6208570637" lon="12.3108383082"><ele>2449.58</ele><time>2013-07-23T14:16:24Z</time></trkpt><trkpt lat="46.6207993124" lon="12.3107977398"><ele>2450.06</ele><time>2013-07-23T14:16:30Z</time></trkpt><trkpt lat="46.6206237115" lon="12.3107311875"><ele>2449.10</ele><time>2013-07-23T14:16:42Z</time></trkpt><trkpt lat="46.6205054428" lon="12.3106899485"><ele>2447.65</ele><time>2013-07-23T14:16:51Z</time></trkpt><trkpt lat="46.6203606874" lon="12.3105707578"><ele>2444.77</ele><time>2013-07-23T14:17:02Z</time></trkpt><trkpt lat="46.6202657204" lon="12.3105038702"><ele>2441.41</ele><time>2013-07-23T14:17:13Z</time></trkpt><trkpt lat="46.6201779619" lon="12.3105580173"><ele>2439.48</ele><time>2013-07-23T14:17:23Z</time></trkpt><trkpt lat="46.6201694123" lon="12.3105612025"><ele>2439.00</ele><time>2013-07-23T14:17:24Z</time></trkpt><trkpt lat="46.6201180313" lon="12.3105938081"><ele>2438.04</ele><time>2013-07-23T14:17:28Z</time></trkpt><trkpt lat="46.6200377326" lon="12.3106201272"><ele>2436.12</ele><time>2013-07-23T14:17:36Z</time></trkpt><trkpt lat="46.6199871060" lon="12.3106397409"><ele>2435.16</ele><time>2013-07-23T14:17:41Z</time></trkpt><trkpt lat="46.6199431010" lon="12.3106551636"><ele>2434.20</ele><time>2013-07-23T14:17:44Z</time></trkpt><trkpt lat="46.6198652331" lon="12.3107723426"><ele>2433.23</ele><time>2013-07-23T14:17:54Z</time></trkpt><trkpt lat="46.6197424382" lon="12.3107475322"><ele>2430.35</ele><time>2013-07-23T14:18:04Z</time></trkpt><trkpt lat="46.6196451243" lon="12.3106130864"><ele>2427.95</ele><time>2013-07-23T14:18:12Z</time></trkpt><trkpt lat="46.6195872892" lon="12.3104658164"><ele>2427.47</ele><time>2013-07-23T14:18:15Z</time></trkpt><trkpt lat="46.6195048951" lon="12.3103757109"><ele>2425.06</ele><time>2013-07-23T14:18:22Z</time></trkpt><trkpt lat="46.6195023805" lon="12.3103648983"><ele>2425.06</ele><time>2013-07-23T14:18:24Z</time></trkpt><trkpt lat="46.6194745526" lon="12.3103653174"><ele>2423.14</ele><time>2013-07-23T14:18:29Z</time></trkpt><trkpt lat="46.6193894763" lon="12.3103470448"><ele>2419.78</ele><time>2013-07-23T14:18:39Z</time></trkpt><trkpt lat="46.6193427052" lon="12.3103307001"><ele>2418.81</ele><time>2013-07-23T14:18:45Z</time></trkpt><trkpt lat="46.6192707047" lon="12.3103453685"><ele>2415.93</ele><time>2013-07-23T14:18:55Z</time></trkpt><trkpt lat="46.6192138754" lon="12.3103659879"><ele>2413.53</ele><time>2013-07-23T14:19:03Z</time></trkpt><trkpt lat="46.6191785876" lon="12.3103789799"><ele>2413.53</ele><time>2013-07-23T14:19:06Z</time></trkpt><trkpt lat="46.6191074252" lon="12.3104052152"><ele>2410.16</ele><time>2013-07-23T14:19:16Z</time></trkpt><trkpt lat="46.6191043239" lon="12.3104107473"><ele>2409.68</ele><time>2013-07-23T14:19:17Z</time></trkpt><trkpt lat="46.6189982928" lon="12.3104613740"><ele>2408.24</ele><time>2013-07-23T14:19:27Z</time></trkpt><trkpt lat="46.6189143900" lon="12.3104643077"><ele>2405.84</ele><time>2013-07-23T14:19:36Z</time></trkpt><trkpt lat="46.6188972909" lon="12.3104832508"><ele>2404.39</ele><time>2013-07-23T14:19:43Z</time></trkpt><trkpt lat="46.6188760847" lon="12.3105344642"><ele>2401.99</ele><time>2013-07-23T14:19:52Z</time></trkpt><trkpt lat="46.6188401263" lon="12.3105675727"><ele>2400.55</ele><time>2013-07-23T14:19:59Z</time></trkpt><trkpt lat="46.6188324988" lon="12.3106668144"><ele>2397.67</ele><time>2013-07-23T14:20:08Z</time></trkpt><trkpt lat="46.6188346781" lon="12.3106693290"><ele>2397.18</ele><time>2013-07-23T14:20:09Z</time></trkpt><trkpt lat="46.6188412160" lon="12.3107077181"><ele>2396.22</ele><time>2013-07-23T14:20:12Z</time></trkpt><trkpt lat="46.6187931038" lon="12.3108051997"><ele>2393.34</ele><time>2013-07-23T14:20:23Z</time></trkpt><trkpt lat="46.6187842190" lon="12.3108243104"><ele>2391.90</ele><time>2013-07-23T14:20:26Z</time></trkpt><trkpt lat="46.6187573969" lon="12.3108729254"><ele>2389.97</ele><time>2013-07-23T14:20:35Z</time></trkpt><trkpt lat="46.6186946165" lon="12.3109425791"><ele>2386.61</ele><time>2013-07-23T14:20:42Z</time></trkpt><trkpt lat="46.6186584905" lon="12.3109681439"><ele>2385.17</ele><time>2013-07-23T14:20:45Z</time></trkpt><trkpt lat="46.6186511144" lon="12.3109753523"><ele>2385.17</ele><time>2013-07-23T14:20:46Z</time></trkpt><trkpt lat="46.6186078638" lon="12.3110456765"><ele>2382.76</ele><time>2013-07-23T14:20:51Z</time></trkpt><trkpt lat="46.6185588297" lon="12.3111290764"><ele>2380.36</ele><time>2013-07-23T14:20:59Z</time></trkpt><trkpt lat="46.6185359471" lon="12.3112768494"><ele>2377.96</ele><time>2013-07-23T14:21:09Z</time></trkpt><trkpt lat="46.6185190156" lon="12.3113087844"><ele>2378.44</ele><time>2013-07-23T14:21:12Z</time></trkpt><trkpt lat="46.6184919421" lon="12.3114360217"><ele>2377.00</ele><time>2013-07-23T14:21:21Z</time></trkpt><trkpt lat="46.6184562352" lon="12.3115618341"><ele>2376.04</ele><time>2013-07-23T14:21:29Z</time></trkpt><trkpt lat="46.6184021719" lon="12.3117479123"><ele>2375.07</ele><time>2013-07-23T14:21:39Z</time></trkpt><trkpt lat="46.6183515452" lon="12.3118996248"><ele>2375.55</ele><time>2013-07-23T14:21:49Z</time></trkpt><trkpt lat="46.6183188558" lon="12.3119909037"><ele>2375.07</ele><time>2013-07-23T14:21:57Z</time></trkpt><trkpt lat="46.6183188558" lon="12.3119909037"><ele>2374.59</ele><time>2013-07-23T14:22:09Z</time></trkpt><trkpt lat="46.6183189396" lon="12.3119905684"><ele>2374.59</ele><time>2013-07-23T14:22:28Z</time></trkpt><trkpt lat="46.6183150001" lon="12.3119950108"><ele>2374.11</ele><time>2013-07-23T14:22:38Z</time></trkpt><trkpt lat="46.6183150839" lon="12.3119950108"><ele>2374.11</ele><time>2013-07-23T14:22:58Z</time></trkpt><trkpt lat="46.6183102224" lon="12.3120001238"><ele>2373.63</ele><time>2013-07-23T14:23:16Z</time></trkpt><trkpt lat="46.6183078755" lon="12.3120086733"><ele>2374.11</ele><time>2013-07-23T14:23:31Z</time></trkpt><trkpt lat="46.6183082946" lon="12.3120086733"><ele>2374.11</ele><time>2013-07-23T14:23:55Z</time></trkpt><trkpt lat="46.6183067858" lon="12.3120163847"><ele>2373.63</ele><time>2013-07-23T14:24:15Z</time></trkpt><trkpt lat="46.6183067858" lon="12.3120163847"><ele>2374.11</ele><time>2013-07-23T14:24:37Z</time></trkpt><trkpt lat="46.6183044389" lon="12.3120204918"><ele>2373.63</ele><time>2013-07-23T14:24:58Z</time></trkpt><trkpt lat="46.6183044389" lon="12.3120204918"><ele>2373.15</ele><time>2013-07-23T14:25:20Z</time></trkpt><trkpt lat="46.6183041874" lon="12.3120188992"><ele>2373.15</ele><time>2013-07-23T14:25:38Z</time></trkpt><trkpt lat="46.6183041874" lon="12.3120188992"><ele>2373.15</ele><time>2013-07-23T14:25:55Z</time></trkpt><trkpt lat="46.6183089651" lon="12.3120251857"><ele>2373.15</ele><time>2013-07-23T14:26:16Z</time></trkpt><trkpt lat="46.6183089651" lon="12.3120251857"><ele>2372.67</ele><time>2013-07-23T14:26:34Z</time></trkpt><trkpt lat="46.6183047742" lon="12.3120260239"><ele>2372.19</ele><time>2013-07-23T14:26:52Z</time></trkpt><trkpt lat="46.6183047742" lon="12.3120260239"><ele>2371.71</ele><time>2013-07-23T14:27:12Z</time></trkpt><trkpt lat="46.6183047742" lon="12.3120205756"><ele>2371.71</ele><time>2013-07-23T14:27:32Z</time></trkpt><trkpt lat="46.6183021758" lon="12.3120275326"><ele>2371.23</ele><time>2013-07-23T14:27:49Z</time></trkpt><trkpt lat="46.6182997450" lon="12.3120324779"><ele>2371.71</ele><time>2013-07-23T14:28:07Z</time></trkpt><trkpt lat="46.6182997450" lon="12.3120324779"><ele>2370.75</ele><time>2013-07-23T14:28:26Z</time></trkpt><trkpt lat="46.6182965599" lon="12.3120422848"><ele>2370.27</ele><time>2013-07-23T14:28:46Z</time></trkpt><trkpt lat="46.6182965599" lon="12.3120422848"><ele>2370.75</ele><time>2013-07-23T14:29:04Z</time></trkpt><trkpt lat="46.6182963084" lon="12.3120496608"><ele>2370.75</ele><time>2013-07-23T14:29:19Z</time></trkpt><trkpt lat="46.6182883456" lon="12.3120525107"><ele>2370.75</ele><time>2013-07-23T14:29:35Z</time></trkpt><trkpt lat="46.6182883456" lon="12.3120525107"><ele>2370.27</ele><time>2013-07-23T14:29:57Z</time></trkpt><trkpt lat="46.6182843223" lon="12.3120577913"><ele>2370.27</ele><time>2013-07-23T14:30:09Z</time></trkpt><trkpt lat="46.6183023434" lon="12.3120338190"><ele>2370.27</ele><time>2013-07-23T14:30:27Z</time></trkpt><trkpt lat="46.6183023434" lon="12.3120338190"><ele>2370.27</ele><time>2013-07-23T14:30:43Z</time></trkpt><trkpt lat="46.6183023434" lon="12.3120338190"><ele>2370.27</ele><time>2013-07-23T14:31:05Z</time></trkpt><trkpt lat="46.6182999965" lon="12.3120380100"><ele>2369.31</ele><time>2013-07-23T14:31:24Z</time></trkpt><trkpt lat="46.6183079593" lon="12.3120245989"><ele>2369.31</ele><time>2013-07-23T14:31:41Z</time></trkpt><trkpt lat="46.6183079593" lon="12.3120245989"><ele>2369.79</ele><time>2013-07-23T14:32:01Z</time></trkpt><trkpt lat="46.6183088813" lon="12.3120173905"><ele>2369.31</ele><time>2013-07-23T14:32:19Z</time></trkpt><trkpt lat="46.6183196940" lon="12.3120003752"><ele>2369.79</ele><time>2013-07-23T14:32:26Z</time></trkpt><trkpt lat="46.6183222923" lon="12.3119536042"><ele>2368.83</ele><time>2013-07-23T14:32:32Z</time></trkpt><trkpt lat="46.6182898544" lon="12.3118832801"><ele>2369.31</ele><time>2013-07-23T14:32:36Z</time></trkpt><trkpt lat="46.6182704922" lon="12.3116916697"><ele>2368.83</ele><time>2013-07-23T14:32:46Z</time></trkpt><trkpt lat="46.6181937139" lon="12.3115405440"><ele>2368.83</ele><time>2013-07-23T14:32:55Z</time></trkpt><trkpt lat="46.6181072965" lon="12.3114005663"><ele>2369.31</ele><time>2013-07-23T14:33:06Z</time></trkpt><trkpt lat="46.6179876029" lon="12.3113040067"><ele>2368.35</ele><time>2013-07-23T14:33:17Z</time></trkpt><trkpt lat="46.6179412510" lon="12.3112468421"><ele>2367.86</ele><time>2013-07-23T14:33:22Z</time></trkpt><trkpt lat="46.6179105733" lon="12.3112173378"><ele>2366.42</ele><time>2013-07-23T14:33:25Z</time></trkpt><trkpt lat="46.6178589407" lon="12.3111172579"><ele>2364.50</ele><time>2013-07-23T14:33:33Z</time></trkpt><trkpt lat="46.6178267542" lon="12.3110534716"><ele>2364.02</ele><time>2013-07-23T14:33:38Z</time></trkpt><trkpt lat="46.6177932266" lon="12.3110400606"><ele>2363.54</ele><time>2013-07-23T14:33:41Z</time></trkpt><trkpt lat="46.6176995169" lon="12.3109807167"><ele>2363.06</ele><time>2013-07-23T14:33:48Z</time></trkpt><trkpt lat="46.6175447870" lon="12.3109540623"><ele>2361.62</ele><time>2013-07-23T14:34:01Z</time></trkpt><trkpt lat="46.6175091639" lon="12.3109184392"><ele>2360.65</ele><time>2013-07-23T14:34:05Z</time></trkpt><trkpt lat="46.6173633188" lon="12.3108064570"><ele>2360.65</ele><time>2013-07-23T14:34:16Z</time></trkpt><trkpt lat="46.6172400210" lon="12.3107489571"><ele>2360.17</ele><time>2013-07-23T14:34:25Z</time></trkpt><trkpt lat="46.6171758156" lon="12.3106790520"><ele>2360.65</ele><time>2013-07-23T14:34:31Z</time></trkpt><trkpt lat="46.6171380132" lon="12.3106512241"><ele>2360.65</ele><time>2013-07-23T14:34:34Z</time></trkpt><trkpt lat="46.6169927549" lon="12.3104492202"><ele>2360.17</ele><time>2013-07-23T14:34:48Z</time></trkpt><trkpt lat="46.6169738956" lon="12.3104242422"><ele>2359.69</ele><time>2013-07-23T14:34:50Z</time></trkpt><trkpt lat="46.6169108637" lon="12.3103825003"><ele>2360.65</ele><time>2013-07-23T14:34:56Z</time></trkpt><trkpt lat="46.6167765856" lon="12.3102399241"><ele>2360.17</ele><time>2013-07-23T14:35:08Z</time></trkpt><trkpt lat="46.6166799422" lon="12.3101358209"><ele>2360.17</ele><time>2013-07-23T14:35:17Z</time></trkpt><trkpt lat="46.6166316625" lon="12.3100980185"><ele>2361.14</ele><time>2013-07-23T14:35:21Z</time></trkpt><trkpt lat="46.6164891701" lon="12.3100360762"><ele>2359.69</ele><time>2013-07-23T14:35:32Z</time></trkpt><trkpt lat="46.6163774393" lon="12.3099594656"><ele>2359.69</ele><time>2013-07-23T14:35:41Z</time></trkpt><trkpt lat="46.6162771080" lon="12.3099012952"><ele>2359.21</ele><time>2013-07-23T14:35:49Z</time></trkpt><trkpt lat="46.6161352862" lon="12.3099091742"><ele>2359.21</ele><time>2013-07-23T14:35:58Z</time></trkpt><trkpt lat="46.6159993317" lon="12.3098472320"><ele>2358.73</ele><time>2013-07-23T14:36:09Z</time></trkpt><trkpt lat="46.6158725135" lon="12.3097618204"><ele>2357.77</ele><time>2013-07-23T14:36:19Z</time></trkpt><trkpt lat="46.6157968249" lon="12.3097172286"><ele>2357.77</ele><time>2013-07-23T14:36:24Z</time></trkpt><trkpt lat="46.6156424303" lon="12.3095704615"><ele>2356.33</ele><time>2013-07-23T14:36:36Z</time></trkpt><trkpt lat="46.6155732796" lon="12.3095098604"><ele>2354.89</ele><time>2013-07-23T14:36:46Z</time></trkpt><trkpt lat="46.6155643109" lon="12.3094984610"><ele>2354.89</ele><time>2013-07-23T14:36:51Z</time></trkpt><trkpt lat="46.6154524963" lon="12.3094087746"><ele>2354.41</ele><time>2013-07-23T14:37:02Z</time></trkpt><trkpt lat="46.6153642349" lon="12.3092546314"><ele>2352.96</ele><time>2013-07-23T14:37:13Z</time></trkpt><trkpt lat="46.6152877919" lon="12.3091554735"><ele>2352.48</ele><time>2013-07-23T14:37:22Z</time></trkpt><trkpt lat="46.6152541805" lon="12.3091115523"><ele>2351.52</ele><time>2013-07-23T14:37:26Z</time></trkpt><trkpt lat="46.6152372491" lon="12.3090698104"><ele>2351.04</ele><time>2013-07-23T14:37:29Z</time></trkpt><trkpt lat="46.6151693556" lon="12.3089669645"><ele>2351.04</ele><time>2013-07-23T14:37:36Z</time></trkpt><trkpt lat="46.6151462216" lon="12.3089055251"><ele>2350.56</ele><time>2013-07-23T14:37:40Z</time></trkpt><trkpt lat="46.6149908211" lon="12.3088296689"><ele>2349.12</ele><time>2013-07-23T14:37:53Z</time></trkpt><trkpt lat="46.6149479058" lon="12.3087879270"><ele>2349.12</ele><time>2013-07-23T14:37:56Z</time></trkpt><trkpt lat="46.6147452313" lon="12.3087472748"><ele>2348.16</ele><time>2013-07-23T14:38:10Z</time></trkpt><trkpt lat="46.6145959496" lon="12.3086656351"><ele>2346.72</ele><time>2013-07-23T14:38:21Z</time></trkpt><trkpt lat="46.6144667007" lon="12.3086382262"><ele>2345.27</ele><time>2013-07-23T14:38:31Z</time></trkpt><trkpt lat="46.6143715661" lon="12.3086071294"><ele>2344.79</ele><time>2013-07-23T14:38:38Z</time></trkpt><trkpt lat="46.6142108850" lon="12.3085041158"><ele>2342.87</ele><time>2013-07-23T14:38:51Z</time></trkpt><trkpt lat="46.6140696499" lon="12.3084755335"><ele>2341.43</ele><time>2013-07-23T14:39:01Z</time></trkpt><trkpt lat="46.6140149999" lon="12.3084714264"><ele>2340.95</ele><time>2013-07-23T14:39:05Z</time></trkpt><trkpt lat="46.6138984077" lon="12.3083636351"><ele>2340.95</ele><time>2013-07-23T14:39:15Z</time></trkpt><trkpt lat="46.6138807219" lon="12.3082776368"><ele>2340.95</ele><time>2013-07-23T14:39:19Z</time></trkpt><trkpt lat="46.6138576716" lon="12.3081765510"><ele>2340.47</ele><time>2013-07-23T14:39:24Z</time></trkpt><trkpt lat="46.6138240602" lon="12.3081242479"><ele>2339.51</ele><time>2013-07-23T14:39:29Z</time></trkpt><trkpt lat="46.6137540713" lon="12.3079235014"><ele>2338.54</ele><time>2013-07-23T14:39:41Z</time></trkpt><trkpt lat="46.6136870161" lon="12.3078060709"><ele>2338.06</ele><time>2013-07-23T14:39:50Z</time></trkpt><trkpt lat="46.6136409994" lon="12.3077015486"><ele>2338.06</ele><time>2013-07-23T14:39:57Z</time></trkpt><trkpt lat="46.6136186197" lon="12.3075956013"><ele>2337.10</ele><time>2013-07-23T14:40:02Z</time></trkpt><trkpt lat="46.6135858465" lon="12.3075201642"><ele>2337.10</ele><time>2013-07-23T14:40:06Z</time></trkpt><trkpt lat="46.6135492176" lon="12.3072637618"><ele>2335.66</ele><time>2013-07-23T14:40:18Z</time></trkpt><trkpt lat="46.6135375667" lon="12.3070173338"><ele>2335.18</ele><time>2013-07-23T14:40:30Z</time></trkpt><trkpt lat="46.6135192942" lon="12.3068367876"><ele>2334.70</ele><time>2013-07-23T14:40:40Z</time></trkpt><trkpt lat="46.6135304421" lon="12.3066501226"><ele>2333.26</ele><time>2013-07-23T14:40:50Z</time></trkpt><trkpt lat="46.6135850921" lon="12.3064245656"><ele>2331.81</ele><time>2013-07-23T14:41:02Z</time></trkpt><trkpt lat="46.6135856789" lon="12.3062753677"><ele>2331.33</ele><time>2013-07-23T14:41:10Z</time></trkpt><trkpt lat="46.6135705076" lon="12.3062119167"><ele>2330.85</ele><time>2013-07-23T14:41:13Z</time></trkpt><trkpt lat="46.6135594435" lon="12.3060008604"><ele>2329.41</ele><time>2013-07-23T14:41:24Z</time></trkpt><trkpt lat="46.6136049572" lon="12.3057493195"><ele>2327.97</ele><time>2013-07-23T14:41:36Z</time></trkpt><trkpt lat="46.6136057954" lon="12.3056437075"><ele>2327.97</ele><time>2013-07-23T14:41:42Z</time></trkpt><trkpt lat="46.6136285104" lon="12.3055560328"><ele>2327.49</ele><time>2013-07-23T14:41:46Z</time></trkpt><trkpt lat="46.6136365570" lon="12.3054543603"><ele>2327.01</ele><time>2013-07-23T14:41:53Z</time></trkpt><trkpt lat="46.6136078909" lon="12.3052511830"><ele>2327.01</ele><time>2013-07-23T14:42:05Z</time></trkpt><trkpt lat="46.6136487946" lon="12.3049928527"><ele>2326.53</ele><time>2013-07-23T14:42:17Z</time></trkpt><trkpt lat="46.6137045342" lon="12.3049254622"><ele>2327.01</ele><time>2013-07-23T14:42:22Z</time></trkpt><trkpt lat="46.6137695778" lon="12.3048671242"><ele>2326.53</ele><time>2013-07-23T14:42:27Z</time></trkpt><trkpt lat="46.6138917021" lon="12.3047602549"><ele>2326.05</ele><time>2013-07-23T14:42:37Z</time></trkpt><trkpt lat="46.6139488667" lon="12.3046543915"><ele>2326.53</ele><time>2013-07-23T14:42:44Z</time></trkpt><trkpt lat="46.6140376311" lon="12.3045015056"><ele>2327.49</ele><time>2013-07-23T14:42:54Z</time></trkpt><trkpt lat="46.6141014174" lon="12.3044212908"><ele>2327.49</ele><time>2013-07-23T14:43:00Z</time></trkpt><trkpt lat="46.6141094640" lon="12.3043868411"><ele>2328.93</ele><time>2013-07-23T14:43:03Z</time></trkpt><trkpt lat="46.6141537204" lon="12.3042514734"><ele>2329.41</ele><time>2013-07-23T14:43:13Z</time></trkpt><trkpt lat="46.6141729150" lon="12.3041271698"><ele>2328.93</ele><time>2013-07-23T14:43:20Z</time></trkpt><trkpt lat="46.6142101306" lon="12.3040177859"><ele>2329.89</ele><time>2013-07-23T14:43:26Z</time></trkpt><trkpt lat="46.6142392997" lon="12.3038668279"><ele>2330.37</ele><time>2013-07-23T14:43:34Z</time></trkpt><trkpt lat="46.6142181773" lon="12.3036735412"><ele>2329.89</ele><time>2013-07-23T14:43:45Z</time></trkpt><trkpt lat="46.6142324265" lon="12.3034820985"><ele>2329.89</ele><time>2013-07-23T14:43:55Z</time></trkpt><trkpt lat="46.6142337676" lon="12.3034416977"><ele>2329.89</ele><time>2013-07-23T14:43:57Z</time></trkpt><trkpt lat="46.6142472625" lon="12.3032951821"><ele>2329.89</ele><time>2013-07-23T14:44:04Z</time></trkpt><trkpt lat="46.6142299119" lon="12.3031915817"><ele>2329.89</ele><time>2013-07-23T14:44:09Z</time></trkpt><trkpt lat="46.6142354440" lon="12.3031479120"><ele>2330.37</ele><time>2013-07-23T14:44:12Z</time></trkpt><trkpt lat="46.6142362822" lon="12.3029647674"><ele>2330.85</ele><time>2013-07-23T14:44:23Z</time></trkpt><trkpt lat="46.6142436583" lon="12.3028651066"><ele>2331.33</ele><time>2013-07-23T14:44:28Z</time></trkpt><trkpt lat="46.6142352764" lon="12.3026902601"><ele>2331.33</ele><time>2013-07-23T14:44:39Z</time></trkpt><trkpt lat="46.6142305825" lon="12.3026051000"><ele>2332.78</ele><time>2013-07-23T14:44:44Z</time></trkpt><trkpt lat="46.6142371204" lon="12.3024393059"><ele>2333.26</ele><time>2013-07-23T14:44:55Z</time></trkpt><trkpt lat="46.6142553091" lon="12.3023383040"><ele>2333.74</ele><time>2013-07-23T14:45:01Z</time></trkpt><trkpt lat="46.6142970510" lon="12.3021862563"><ele>2334.70</ele><time>2013-07-23T14:45:12Z</time></trkpt><trkpt lat="46.6143031698" lon="12.3021324445"><ele>2335.18</ele><time>2013-07-23T14:45:15Z</time></trkpt><trkpt lat="46.6143066064" lon="12.3020207137"><ele>2336.14</ele><time>2013-07-23T14:45:22Z</time></trkpt><trkpt lat="46.6143087018" lon="12.3018415086"><ele>2335.66</ele><time>2013-07-23T14:45:34Z</time></trkpt><trkpt lat="46.6143050976" lon="12.3016600404"><ele>2336.14</ele><time>2013-07-23T14:45:44Z</time></trkpt><trkpt lat="46.6142925248" lon="12.3015023768"><ele>2336.14</ele><time>2013-07-23T14:45:53Z</time></trkpt><trkpt lat="46.6142682172" lon="12.3013939150"><ele>2336.62</ele><time>2013-07-23T14:45:59Z</time></trkpt><trkpt lat="46.6142350249" lon="12.3011930007"><ele>2336.62</ele><time>2013-07-23T14:46:11Z</time></trkpt><trkpt lat="46.6142186802" lon="12.3009811062"><ele>2336.62</ele><time>2013-07-23T14:46:21Z</time></trkpt><trkpt lat="46.6141862422" lon="12.3008327466"><ele>2337.10</ele><time>2013-07-23T14:46:31Z</time></trkpt><trkpt lat="46.6141321789" lon="12.3006497696"><ele>2337.10</ele><time>2013-07-23T14:46:42Z</time></trkpt><trkpt lat="46.6140714101" lon="12.3004869092"><ele>2337.10</ele><time>2013-07-23T14:46:53Z</time></trkpt><trkpt lat="46.6140517127" lon="12.3004180100"><ele>2337.10</ele><time>2013-07-23T14:46:57Z</time></trkpt><trkpt lat="46.6139996611" lon="12.3002486955"><ele>2336.62</ele><time>2013-07-23T14:47:07Z</time></trkpt><trkpt lat="46.6139679775" lon="12.3001589254"><ele>2337.10</ele><time>2013-07-23T14:47:12Z</time></trkpt><trkpt lat="46.6138828173" lon="12.2999492940"><ele>2336.62</ele><time>2013-07-23T14:47:24Z</time></trkpt><trkpt lat="46.6138061229" lon="12.2997549176"><ele>2337.10</ele><time>2013-07-23T14:47:36Z</time></trkpt><trkpt lat="46.6137917060" lon="12.2997034527"><ele>2336.62</ele><time>2013-07-23T14:47:38Z</time></trkpt><trkpt lat="46.6137461085" lon="12.2995301988"><ele>2336.14</ele><time>2013-07-23T14:47:47Z</time></trkpt><trkpt lat="46.6137442645" lon="12.2995099146"><ele>2336.14</ele><time>2013-07-23T14:47:48Z</time></trkpt><trkpt lat="46.6137353797" lon="12.2993462998"><ele>2336.14</ele><time>2013-07-23T14:47:55Z</time></trkpt><trkpt lat="46.6137044504" lon="12.2991302144"><ele>2336.14</ele><time>2013-07-23T14:48:06Z</time></trkpt><trkpt lat="46.6136978287" lon="12.2990857065"><ele>2336.14</ele><time>2013-07-23T14:48:09Z</time></trkpt><trkpt lat="46.6136860102" lon="12.2990147118"><ele>2336.62</ele><time>2013-07-23T14:48:13Z</time></trkpt><trkpt lat="46.6136851721" lon="12.2988291364"><ele>2336.62</ele><time>2013-07-23T14:48:22Z</time></trkpt><trkpt lat="46.6136986669" lon="12.2986473329"><ele>2335.18</ele><time>2013-07-23T14:48:32Z</time></trkpt><trkpt lat="46.6136975773" lon="12.2985014878"><ele>2334.70</ele><time>2013-07-23T14:48:40Z</time></trkpt><trkpt lat="46.6137071326" lon="12.2983598337"><ele>2334.22</ele><time>2013-07-23T14:48:47Z</time></trkpt><trkpt lat="46.6137071326" lon="12.2980806325"><ele>2335.18</ele><time>2013-07-23T14:49:00Z</time></trkpt><trkpt lat="46.6136803105" lon="12.2979642916"><ele>2334.70</ele><time>2013-07-23T14:49:06Z</time></trkpt><trkpt lat="46.6136529017" lon="12.2977733519"><ele>2335.18</ele><time>2013-07-23T14:49:15Z</time></trkpt><trkpt lat="46.6136456095" lon="12.2975871898"><ele>2334.70</ele><time>2013-07-23T14:49:25Z</time></trkpt><trkpt lat="46.6135524865" lon="12.2974638082"><ele>2335.18</ele><time>2013-07-23T14:49:35Z</time></trkpt><trkpt lat="46.6135073919" lon="12.2973961663"><ele>2334.22</ele><time>2013-07-23T14:49:40Z</time></trkpt><trkpt lat="46.6134602018" lon="12.2971800808"><ele>2333.74</ele><time>2013-07-23T14:49:51Z</time></trkpt><trkpt lat="46.6134121735" lon="12.2969697788"><ele>2334.22</ele><time>2013-07-23T14:50:01Z</time></trkpt><trkpt lat="46.6133850999" lon="12.2967813537"><ele>2334.70</ele><time>2013-07-23T14:50:11Z</time></trkpt><trkpt lat="46.6132972576" lon="12.2966692038"><ele>2335.66</ele><time>2013-07-23T14:50:22Z</time></trkpt><trkpt lat="46.6132659931" lon="12.2966561280"><ele>2335.66</ele><time>2013-07-23T14:50:25Z</time></trkpt><trkpt lat="46.6131250095" lon="12.2967120353"><ele>2335.66</ele><time>2013-07-23T14:50:37Z</time></trkpt><trkpt lat="46.6129736323" lon="12.2967485804"><ele>2335.18</ele><time>2013-07-23T14:50:48Z</time></trkpt><trkpt lat="46.6127422918" lon="12.2966267914"><ele>2335.18</ele><time>2013-07-23T14:51:00Z</time></trkpt><trkpt lat="46.6126105282" lon="12.2966092732"><ele>2335.18</ele><time>2013-07-23T14:51:10Z</time></trkpt><trkpt lat="46.6124677006" lon="12.2965587303"><ele>2336.62</ele><time>2013-07-23T14:51:21Z</time></trkpt><trkpt lat="46.6123981308" lon="12.2964843828"><ele>2336.62</ele><time>2013-07-23T14:51:30Z</time></trkpt><trkpt lat="46.6123615019" lon="12.2964692954"><ele>2336.62</ele><time>2013-07-23T14:51:33Z</time></trkpt><trkpt lat="46.6122315824" lon="12.2964152321"><ele>2339.02</ele><time>2013-07-23T14:51:44Z</time></trkpt><trkpt lat="46.6121532954" lon="12.2963480093"><ele>2338.06</ele><time>2013-07-23T14:51:55Z</time></trkpt><trkpt lat="46.6121508647" lon="12.2963448241"><ele>2339.02</ele><time>2013-07-23T14:51:56Z</time></trkpt><trkpt lat="46.6120833065" lon="12.2962304112"><ele>2338.54</ele><time>2013-07-23T14:52:07Z</time></trkpt><trkpt lat="46.6120574903" lon="12.2960570734"><ele>2338.54</ele><time>2013-07-23T14:52:15Z</time></trkpt><trkpt lat="46.6120556463" lon="12.2960164212"><ele>2338.06</ele><time>2013-07-23T14:52:17Z</time></trkpt><trkpt lat="46.6121188458" lon="12.2958799638"><ele>2338.54</ele><time>2013-07-23T14:52:28Z</time></trkpt><trkpt lat="46.6121895891" lon="12.2957694065"><ele>2339.99</ele><time>2013-07-23T14:52:37Z</time></trkpt><trkpt lat="46.6122018266" lon="12.2957404889"><ele>2339.99</ele><time>2013-07-23T14:52:39Z</time></trkpt><trkpt lat="46.6122672893" lon="12.2956041154"><ele>2340.47</ele><time>2013-07-23T14:52:50Z</time></trkpt><trkpt lat="46.6123593226" lon="12.2953995131"><ele>2339.99</ele><time>2013-07-23T14:53:03Z</time></trkpt><trkpt lat="46.6123907547" lon="12.2953270096"><ele>2339.99</ele><time>2013-07-23T14:53:08Z</time></trkpt><trkpt lat="46.6124197561" lon="12.2952062264"><ele>2339.51</ele><time>2013-07-23T14:53:15Z</time></trkpt><trkpt lat="46.6124834586" lon="12.2950334754"><ele>2339.02</ele><time>2013-07-23T14:53:25Z</time></trkpt><trkpt lat="46.6125003062" lon="12.2949801665"><ele>2339.02</ele><time>2013-07-23T14:53:28Z</time></trkpt><trkpt lat="46.6125733964" lon="12.2948295437"><ele>2338.06</ele><time>2013-07-23T14:53:38Z</time></trkpt><trkpt lat="46.6126190778" lon="12.2947188187"><ele>2338.06</ele><time>2013-07-23T14:53:45Z</time></trkpt><trkpt lat="46.6126469895" lon="12.2946769092"><ele>2337.58</ele><time>2013-07-23T14:53:48Z</time></trkpt><trkpt lat="46.6126945149" lon="12.2945253644"><ele>2336.14</ele><time>2013-07-23T14:53:57Z</time></trkpt><trkpt lat="46.6126971971" lon="12.2944830358"><ele>2335.66</ele><time>2013-07-23T14:54:00Z</time></trkpt><trkpt lat="46.6127248574" lon="12.2944015637"><ele>2335.18</ele><time>2013-07-23T14:54:05Z</time></trkpt><trkpt lat="46.6128004622" lon="12.2942084447"><ele>2333.26</ele><time>2013-07-23T14:54:16Z</time></trkpt><trkpt lat="46.6128168069" lon="12.2941705585"><ele>2332.78</ele><time>2013-07-23T14:54:18Z</time></trkpt><trkpt lat="46.6128438804" lon="12.2940173373"><ele>2330.37</ele><time>2013-07-23T14:54:27Z</time></trkpt><trkpt lat="46.6128262784" lon="12.2938695643"><ele>2328.93</ele><time>2013-07-23T14:54:39Z</time></trkpt><trkpt lat="46.6128056590" lon="12.2938227933"><ele>2327.49</ele><time>2013-07-23T14:54:44Z</time></trkpt><trkpt lat="46.6127526853" lon="12.2937016748"><ele>2326.05</ele><time>2013-07-23T14:54:53Z</time></trkpt><trkpt lat="46.6126938444" lon="12.2936279140"><ele>2326.53</ele><time>2013-07-23T14:54:58Z</time></trkpt><trkpt lat="46.6126894020" lon="12.2935779579"><ele>2325.57</ele><time>2013-07-23T14:55:00Z</time></trkpt><trkpt lat="46.6127664316" lon="12.2933700029"><ele>2325.09</ele><time>2013-07-23T14:55:11Z</time></trkpt><trkpt lat="46.6128726304" lon="12.2932297736"><ele>2326.05</ele><time>2013-07-23T14:55:21Z</time></trkpt><trkpt lat="46.6129011288" lon="12.2931788955"><ele>2326.05</ele><time>2013-07-23T14:55:24Z</time></trkpt><trkpt lat="46.6129375901" lon="12.2931526601"><ele>2321.72</ele><time>2013-07-23T14:55:27Z</time></trkpt><trkpt lat="46.6129484866" lon="12.2931454517"><ele>2328.93</ele><time>2013-07-23T14:55:28Z</time></trkpt><trkpt lat="46.6129606403" lon="12.2931348067"><ele>2326.53</ele><time>2013-07-23T14:55:29Z</time></trkpt><trkpt lat="46.6129795834" lon="12.2931120079"><ele>2322.20</ele><time>2013-07-23T14:55:31Z</time></trkpt><trkpt lat="46.6129883844" lon="12.2930995189"><ele>2327.01</ele><time>2013-07-23T14:55:32Z</time></trkpt><trkpt lat="46.6129960120" lon="12.2930830903"><ele>2323.16</ele><time>2013-07-23T14:55:33Z</time></trkpt><trkpt lat="46.6130096745" lon="12.2930740379"><ele>2326.53</ele><time>2013-07-23T14:55:34Z</time></trkpt><trkpt lat="46.6130842734" lon="12.2929496504"><ele>2326.53</ele><time>2013-07-23T14:55:44Z</time></trkpt></trkseg></trk></gpx> 
